[[{"header":{"parameterUnit":"m.s-1","parameterCategory":1,"la1":31.0,"la2":29.5877,"lo1":-88.7671,"lo2":-86.6584,"dy":0.0162,"dx":0.0185,"nx":115,"ny":88,"refTime":"2025-12-05T12:00:00:Z","depth":0,"parameterNumber":2,"parameterNumberName":"U-component_of_WINDS"},"data":[0.0,0.0,0.0,0.0,0.0,0.0,0.0,0.0,0.0,0.0,0.0,0.0,0.0,0.0,0.0,0.0,0.0,0.0,0.0,0.0,0.0,0.0,0.0,0.0,0.0,0.0,0.0,0.0,0.0,0.0,0.0,0.0,0.0,0.0,0.0,0.0,0.0,0.0,0.0,0.0,0.0,0.0,0.0,0.0,0.0,0.0,0.0,0.0,0.0,0.0,0.0,0.0,0.0,0.0,0.0,0.0,0.0,0.0,0.0,0.0,0.0,0.0,0.0,0.0,0.0,0.0,0.0,0.0,0.0,0.0,0.0,0.0,0.0,0.0,0.0,0.0,0.0,0.0,0.0,0.0,0.0,0.0,0.0,0.0,0.0,0.0,0.0,0.0,0.0,0.0,0.0,0.0,0.0,0.0,0.0,0.0,0.0,0.0,0.0,0.0,0.0,0.0,0.0,0.0,0.0,0.0,0.0,0.0,0.0,0.0,0.0,0.0,0.0,0.0,0.0,0.0,0.0,0.0,0.0,0.0,0.0,0.0,0.0,0.0,0.0,0.0,0.0,0.0,0.0,0.0,0.0,0.0,0.0,0.0,0.0,0.0,0.0,0.0,0.0,0.0,0.0,0.0,0.0,0.0,0.0,0.0,0.0,0.0,0.0,0.0,0.0,0.0,0.0,0.0,0.0,0.0,0.0,0.0,0.0,0.0,0.0,0.0,0.0,0.0,0.0,0.0,0.0,0.0,0.0,0.0,0.0,0.0,0.0,0.0,0.0,0.0,0.0,0.0,0.0,0.0,0.0,0.0,0.0,0.0,0.0,0.0,0.0,0.0,0.0,0.0,0.0,0.0,0.0,0.0,0.0,0.0,0.0,0.0,0.0,0.0,0.0,0.0,0.0,0.0,0.0,0.0,0.0,0.0,0.0,0.0,0.0,0.0,0.0,0.0,0.0,0.0,0.0,0.0,0.0,0.0,0.0,0.0,0.0,0.0,0.0,0.0,0.0,0.0,0.0,0.0,0.0,0.0,0.0,0.0,0.0,0.0,0.0,0.0,0.0,0.0,0.0,0.0,0.0,0.0,0.0,0.0,0.0,0.0,0.0,0.0,0.0,0.0,0.0,0.0,0.0,0.0,0.0,0.0,0.0,0.0,0.0,0.0,0.0,0.0,0.0,0.0,0.0,0.0,0.0,0.0,0.0,0.0,0.0,0.0,0.0,0.0,0.0,0.0,0.0,0.0,0.0,0.0,0.0,0.0,0.0,0.0,0.0,0.0,0.0,0.0,0.0,0.0,0.0,0.0,0.0,0.0,0.0,0.0,0.0,0.0,0.0,0.0,0.0,0.0,0.0,0.0,0.0,0.0,0.0,0.0,0.0,0.0,0.0,0.0,0.0,0.0,0.0,0.0,0.0,0.0,0.0,0.0,0.0,0.0,0.0,0.0,0.0,0.0,0.0,0.0,0.0,0.0,0.0,0.0,0.0,0.0,0.0,0.0,0.0,0.0,0.0,0.0,0.0,0.0,0.0,0.0,0.0,0.0,0.0,0.0,0.0,0.0,0.0,0.0,0.0,0.0,0.0,0.0,0.0,0.0,0.0,0.0,0.0,0.0,0.0,0.0,0.0,0.0,0.0,0.0,0.0,0.0,0.0,0.0,0.0,0.0,0.0,0.0,0.0,0.0,0.0,0.0,0.0,0.0,0.0,0.0,0.0,0.0,0.0,0.0,0.0,0.0,0.0,0.0,0.0,0.0,0.0,0.0,0.0,0.0,0.0,0.0,0.0,0.0,0.0,0.0,0.0,0.0,0.0,0.0,0.0,0.0,0.0,0.0,0.0,0.0,0.0,0.0,0.0,0.0,0.0,0.0,0.0,0.0,0.0,0.0,0.0,0.0,0.0,0.0,0.0,0.0,0.0,0.0,0.0,0.0,0.0,0.0,0.0,0.0,0.0,0.0,0.0,0.0,0.0,0.0,0.0,0.0,0.0,0.0,0.0,0.0,0.0,0.0,0.0,0.0,0.0,0.0,0.0,0.0,0.0,0.0,0.0,0.0,0.0,0.0,0.0,0.0,0.0,0.0,0.0,0.0,0.0,0.0,0.0,0.0,0.0,0.0,0.0,0.0,0.0,0.0,0.0,0.0,0.0,0.0,0.0,0.0,0.0,0.0,0.0,0.0,0.0,0.0,0.0,0.0,0.0,0.0,0.0,0.0,0.0,0.0,0.0,0.0,0.0,0.0,0.0,0.0,0.0,0.0,0.0,0.0,0.0,0.0,0.0,0.0,0.0,0.0,0.0,0.0,0.0,0.0,0.0,0.0,0.0,0.0,0.0,0.0,0.0,0.0,0.0,0.0,0.0,0.0,0.0,0.0,0.0,0.0,0.0,0.0,0.0,0.0,0.0,0.0,0.0,0.0,0.0,0.0,0.0,0.0,0.0,0.0,0.0,0.0,0.0,0.0,0.0,0.0,0.0,0.0,0.0,0.0,0.0,0.0,0.0,0.0,0.0,0.0,0.0,0.0,0.0,0.0,0.0,0.0,0.0,0.0,0.0,0.0,0.0,0.0,0.0,0.0,0.0,0.0,0.0,0.0,0.0,0.0,0.0,0.0,0.0,0.0,0.0,0.0,0.0,0.0,0.0,0.0,0.0,0.0,0.0,0.0,0.0,0.0,0.0,0.0,0.0,0.0,0.0,0.0,0.0,0.0,0.0,0.0,0.0,0.0,0.0,0.0,0.0,0.0,0.0,0.0,0.0,0.0,0.0,0.0,0.0,0.0,0.0,0.0,0.0,0.0,0.0,0.0,0.0,0.0,0.0,0.0,0.0,0.0,0.0,0.0,0.0,0.0,0.0,0.0,0.0,0.0,0.0,0.0,0.0,0.0,0.0,0.0,0.0,0.0,0.0,0.0,0.0,0.0,0.0,0.0,0.0,0.0,0.0,0.0,0.0,0.0,0.0,0.0,0.0,0.0,0.0,0.0,0.0,0.0,0.0,0.0,0.0,0.0,0.0,0.0,0.0,0.0,0.0,0.0,0.0,0.0,0.0,0.0,0.0,0.0,0.0,0.0,0.0,0.0,0.0,0.0,0.0,0.0,0.0,0.0,0.0,0.0,0.0,0.0,0.0,0.0,0.0,0.0,0.0,0.0,0.0,0.0,0.0,0.0,0.0,0.0,0.0,0.0,0.0,0.0,0.0,0.0,0.0,0.0,0.0,0.0,0.0,0.0,0.0,0.0,0.0,0.0,0.0,0.0,0.0,0.0,0.0,0.0,0.0,0.0,0.0,0.0,0.0,0.0,0.0,0.0,0.0,0.0,0.0,0.0,0.0,0.0,0.0,0.0,0.0,0.0,0.0,0.0,0.0,0.0,0.0,0.0,0.0,0.0,0.0,0.0,0.0,0.0,0.0,0.0,0.0,0.0,0.0,0.0,0.0,0.0,0.0,0.0,0.0,0.0,0.0,0.0,0.0,0.0,0.0,0.0,0.0,0.0,0.0,0.0,0.0,0.0,0.0,0.0,0.0,0.0,0.0,0.0,0.0,0.0,0.0,0.0,0.0,0.0,0.0,0.0,0.0,0.0,0.0,0.0,0.0,0.0,0.0,0.0,0.0,0.0,0.0,0.0,0.0,0.0,0.0,0.0,0.0,0.0,0.0,0.0,0.0,0.0,0.0,0.0,0.0,0.0,0.0,0.0,0.0,0.0,0.0,0.0,0.0,0.0,0.0,0.0,0.0,0.0,0.0,0.0,0.0,0.0,0.0,0.0,0.0,0.0,0.0,0.0,0.0,0.0,0.0,0.0,0.0,0.0,0.0,0.0,0.0,0.0,0.0,0.0,0.0,0.0,0.0,0.0,0.0,0.0,0.0,0.0,0.0,0.0,0.0,0.0,0.0,0.0,0.0,0.0,0.0,0.0,0.0,0.0,0.0,0.0,0.0,0.0,0.0,0.0,0.0,0.0,0.0,0.0,0.0,0.0,0.0,0.0,0.0,0.0,0.0,0.0,0.0,0.0,0.0,0.0,0.0,0.0,0.0,0.0,0.0,0.0,0.0,0.0,0.0,0.0,0.0,0.0,0.0,0.0,0.0,0.0,0.0,0.0,0.0,0.0,0.0,0.0,0.0,0.0,0.0,0.0,0.0,0.0,0.0,0.0,0.0,0.0,0.0,0.0,0.0,0.0,0.0,0.0,0.0,0.0,0.0,0.0,0.0,0.0,0.0,0.0,0.0,0.0,0.0,0.0,0.0,0.0,0.0,0.0,0.0,0.0,5.6569,0.0,0.0,0.0,0.0,0.0,0.0,0.0,0.0,0.0,0.0,0.0,0.0,0.0,0.0,0.0,0.0,0.0,0.0,0.0,0.0,0.0,0.0,0.0,0.0,0.0,0.0,0.0,0.0,0.0,0.0,0.0,0.0,0.0,0.0,0.0,0.0,0.0,0.0,0.0,0.0,0.0,0.0,0.0,0.0,0.0,0.0,0.0,0.0,0.0,0.0,0.0,0.0,0.0,0.0,0.0,0.0,0.0,0.0,0.0,0.0,0.0,0.0,0.0,0.0,0.0,0.0,0.0,0.0,0.0,0.0,0.0,0.0,0.0,0.0,0.0,0.0,0.0,0.0,0.0,0.0,0.0,0.0,0.0,0.0,0.0,0.0,0.0,0.0,0.0,0.0,0.0,0.0,0.0,0.0,0.0,0.0,0.0,0.0,0.0,0.0,0.0,0.0,0.0,0.0,0.0,0.0,0.0,0.0,0.0,0.0,5.7894,5.6675,5.7816,5.789,5.6626,0.0,0.0,0.0,0.0,0.0,0.0,0.0,0.0,0.0,0.0,0.0,0.0,0.0,0.0,0.0,0.0,0.0,0.0,0.0,0.0,0.0,0.0,0.0,0.0,0.0,0.0,0.0,0.0,0.0,0.0,0.0,0.0,0.0,0.0,0.0,0.0,0.0,0.0,0.0,0.0,0.0,0.0,0.0,0.0,0.0,0.0,0.0,0.0,0.0,0.0,0.0,0.0,0.0,0.0,0.0,0.0,0.0,0.0,0.0,0.0,0.0,0.0,0.0,0.0,0.0,0.0,0.0,0.0,0.0,0.0,0.0,0.0,0.0,0.0,0.0,0.0,0.0,0.0,0.0,0.0,0.0,0.0,0.0,0.0,0.0,0.0,0.0,0.0,0.0,0.0,0.0,0.0,0.0,0.0,0.0,0.0,0.0,0.0,0.0,0.0,0.0,0.0,0.0,0.0,0.0,0.0,0.0,0.0,0.0,0.0,0.0,0.0,5.8246,5.8089,5.6684,0.0,0.0,0.0,0.0,0.0,0.0,0.0,0.0,0.0,0.0,0.0,0.0,0.0,0.0,0.0,0.0,0.0,0.0,0.0,0.0,0.0,0.0,0.0,0.0,0.0,0.0,0.0,0.0,0.0,0.0,0.0,0.0,0.0,0.0,0.0,0.0,0.0,0.0,0.0,0.0,0.0,0.0,0.0,0.0,0.0,0.0,0.0,0.0,0.0,0.0,0.0,0.0,0.0,0.0,0.0,0.0,0.0,0.0,0.0,0.0,0.0,0.0,0.0,0.0,0.0,0.0,0.0,0.0,0.0,0.0,0.0,0.0,0.0,0.0,0.0,0.0,0.0,0.0,0.0,0.0,0.0,0.0,0.0,0.0,0.0,0.0,0.0,0.0,0.0,0.0,0.0,0.0,0.0,0.0,0.0,0.0,0.0,0.0,0.0,0.0,0.0,0.0,0.0,0.0,0.0,0.0,0.0,0.0,0.0,0.0,5.9026,5.8866,5.8246,0.0,5.6645,0.0,0.0,0.0,0.0,0.0,0.0,0.0,0.0,0.0,0.0,0.0,0.0,0.0,0.0,0.0,0.0,0.0,0.0,0.0,0.0,0.0,0.0,0.0,0.0,0.0,0.0,0.0,0.0,0.0,0.0,0.0,0.0,0.0,0.0,0.0,0.0,0.0,0.0,0.0,0.0,0.0,0.0,0.0,0.0,0.0,0.0,0.0,0.0,0.0,0.0,0.0,0.0,0.0,0.0,0.0,0.0,0.0,0.0,0.0,0.0,0.0,0.0,0.0,0.0,0.0,0.0,0.0,0.0,0.0,0.0,0.0,0.0,0.0,0.0,0.0,0.0,0.0,0.0,0.0,0.0,0.0,0.0,0.0,0.0,0.0,0.0,0.0,0.0,0.0,0.0,0.0,0.0,0.0,0.0,0.0,0.0,0.0,0.0,0.0,0.0,0.0,0.0,0.0,0.0,0.0,0.0,0.0,0.0,0.0,0.0,0.0,5.9104,5.8753,5.7929,0.0,0.0,0.0,0.0,0.0,0.0,0.0,0.0,0.0,0.0,0.0,0.0,0.0,0.0,0.0,0.0,0.0,0.0,0.0,0.0,0.0,0.0,0.0,0.0,0.0,0.0,0.0,0.0,0.0,0.0,0.0,0.0,0.0,0.0,0.0,0.0,0.0,0.0,0.0,0.0,0.0,0.0,0.0,0.0,0.0,0.0,0.0,0.0,0.0,0.0,0.0,0.0,0.0,0.0,0.0,0.0,0.0,0.0,0.0,0.0,0.0,0.0,0.0,0.0,0.0,0.0,0.0,0.0,0.0,0.0,0.0,0.0,0.0,0.0,0.0,0.0,0.0,0.0,0.0,0.0,0.0,0.0,0.0,0.0,0.0,0.0,0.0,0.0,0.0,0.0,0.0,0.0,0.0,0.0,0.0,0.0,0.0,0.0,0.0,0.0,0.0,0.0,0.0,0.0,0.0,0.0,0.0,0.0,0.0,0.0,6.0232,0.0,5.9143,5.9104,5.8509,5.7283,0.0,0.0,0.0,0.0,0.0,0.0,0.0,0.0,0.0,0.0,0.0,0.0,0.0,0.0,0.0,0.0,0.0,0.0,0.0,0.0,0.0,0.0,0.0,0.0,0.0,0.0,0.0,0.0,0.0,0.0,0.0,0.0,0.0,0.0,0.0,0.0,0.0,0.0,0.0,0.0,0.0,0.0,0.0,0.0,0.0,0.0,0.0,0.0,0.0,0.0,0.0,0.0,0.0,0.0,0.0,0.0,0.0,0.0,0.0,0.0,0.0,0.0,0.0,0.0,0.0,0.0,0.0,0.0,0.0,0.0,0.0,0.0,0.0,0.0,0.0,0.0,0.0,0.0,0.0,0.0,0.0,0.0,0.0,0.0,0.0,0.0,0.0,0.0,0.0,0.0,0.0,0.0,0.0,0.0,0.0,0.0,0.0,0.0,0.0,0.0,0.0,0.0,0.0,0.0,0.0,0.0,0.0,0.0,0.0,6.0817,5.9998,5.9178,5.9104,5.9061,0.0,0.0,0.0,0.0,0.0,0.0,0.0,0.0,0.0,0.0,0.0,0.0,0.0,0.0,0.0,0.0,0.0,0.0,0.0,0.0,0.0,0.0,0.0,0.0,0.0,0.0,0.0,0.0,0.0,0.0,0.0,0.0,0.0,0.0,0.0,0.0,0.0,0.0,0.0,0.0,0.0,0.0,0.0,0.0,0.0,0.0,0.0,0.0,0.0,0.0,0.0,0.0,0.0,0.0,0.0,0.0,0.0,0.0,0.0,0.0,0.0,0.0,0.0,0.0,0.0,0.0,0.0,0.0,0.0,0.0,0.0,0.0,0.0,0.0,0.0,0.0,0.0,0.0,0.0,0.0,0.0,0.0,0.0,0.0,0.0,0.0,0.0,0.0,0.0,0.0,0.0,0.0,0.0,0.0,0.0,0.0,0.0,0.0,0.0,0.0,0.0,0.0,0.0,0.0,0.0,0.0,0.0,0.0,0.0,6.1642,6.1408,6.0817,5.9998,6.0471,6.0227,0.0,0.0,0.0,0.0,0.0,0.0,0.0,0.0,0.0,0.0,0.0,0.0,0.0,0.0,0.0,0.0,0.0,0.0,0.0,0.0,0.0,0.0,0.0,0.0,0.0,0.0,0.0,0.0,0.0,0.0,0.0,0.0,0.0,0.0,0.0,0.0,0.0,0.0,0.0,0.0,0.0,0.0,0.0,0.0,0.0,0.0,0.0,0.0,0.0,0.0,0.0,0.0,0.0,0.0,0.0,0.0,0.0,0.0,0.0,0.0,0.0,0.0,0.0,0.0,0.0,0.0,0.0,0.0,0.0,0.0,0.0,0.0,0.0,0.0,0.0,0.0,0.0,0.0,0.0,0.0,0.0,0.0,0.0,0.0,0.0,0.0,0.0,0.0,0.0,0.0,0.0,0.0,0.0,0.0,0.0,0.0,0.0,0.0,0.0,0.0,0.0,0.0,0.0,0.0,0.0,0.0,0.0,0.0,0.0,6.211,0.0,6.211,0.0,6.1525,6.1158,0.0,0.0,0.0,0.0,0.0,0.0,0.0,0.0,0.0,0.0,0.0,0.0,0.0,0.0,0.0,0.0,0.0,0.0,0.0,0.0,0.0,0.0,0.0,0.0,0.0,0.0,0.0,0.0,0.0,0.0,0.0,0.0,0.0,0.0,0.0,0.0,0.0,0.0,0.0,0.0,0.0,0.0,0.0,0.0,0.0,0.0,0.0,0.0,0.0,0.0,0.0,0.0,0.0,0.0,0.0,0.0,0.0,0.0,0.0,0.0,0.0,0.0,0.0,0.0,0.0,0.0,0.0,0.0,0.0,0.0,0.0,0.0,0.0,0.0,0.0,0.0,0.0,0.0,0.0,0.0,0.0,0.0,0.0,0.0,0.0,0.0,0.0,0.0,0.0,0.0,0.0,0.0,0.0,0.0,0.0,0.0,0.0,0.0,0.0,0.0,0.0,0.0,0.0,0.0,0.0,0.0,0.0,0.0,0.0,6.3008,6.3867,6.3867,6.3047,6.2267,6.1744,0.0,0.0,0.0,0.0,0.0,0.0,0.0,0.0,0.0,0.0,0.0,0.0,0.0,0.0,0.0,0.0,0.0,0.0,0.0,0.0,0.0,0.0,0.0,0.0,0.0,0.0,0.0,0.0,0.0,0.0,0.0,0.0,0.0,0.0,0.0,0.0,0.0,0.0,0.0,0.0,0.0,0.0,0.0,0.0,0.0,0.0,0.0,0.0,0.0,0.0,0.0,0.0,0.0,0.0,0.0,0.0,0.0,0.0,0.0,0.0,0.0,0.0,0.0,0.0,0.0,0.0,0.0,0.0,0.0,0.0,0.0,0.0,0.0,0.0,0.0,0.0,0.0,0.0,0.0,0.0,0.0,0.0,0.0,0.0,0.0,0.0,0.0,0.0,0.0,0.0,0.0,0.0,0.0,0.0,0.0,0.0,0.0,0.0,0.0,0.0,0.0,0.0,0.0,0.0,0.0,0.0,0.0,0.0,0.0,6.4804,6.5038,6.5077,6.4804,6.4531,6.3779,0.0,0.0,0.0,0.0,0.0,0.0,0.0,0.0,0.0,0.0,0.0,0.0,0.0,0.0,0.0,0.0,0.0,0.0,0.0,0.0,0.0,0.0,0.0,0.0,0.0,0.0,0.0,0.0,0.0,0.0,0.0,0.0,0.0,0.0,0.0,0.0,0.0,0.0,0.0,0.0,0.0,0.0,0.0,0.0,0.0,0.0,0.0,0.0,0.0,0.0,0.0,0.0,0.0,0.0,0.0,0.0,0.0,0.0,0.0,0.0,0.0,0.0,0.0,0.0,0.0,0.0,0.0,0.0,0.0,0.0,0.0,0.0,0.0,0.0,0.0,0.0,0.0,0.0,0.0,0.0,0.0,0.0,0.0,0.0,0.0,0.0,0.0,0.0,0.0,0.0,0.0,0.0,0.0,0.0,0.0,0.0,0.0,0.0,0.0,0.0,0.0,0.0,0.0,0.0,0.0,0.0,0.0,0.0,0.0,6.8903,6.8318,6.7849,6.7498,6.7185,6.6009,6.3962,0.0,0.0,0.0,0.0,0.0,0.0,0.0,0.0,0.0,0.0,0.0,0.0,0.0,0.0,0.0,0.0,0.0,0.0,0.0,0.0,0.0,0.0,0.0,0.0,0.0,0.0,0.0,0.0,0.0,0.0,0.0,0.0,0.0,0.0,0.0,0.0,0.0,0.0,0.0,0.0,0.0,0.0,0.0,0.0,0.0,0.0,0.0,0.0,0.0,0.0,0.0,0.0,0.0,0.0,0.0,0.0,0.0,0.0,0.0,0.0,0.0,0.0,0.0,0.0,0.0,0.0,0.0,0.0,0.0,0.0,0.0,0.0,0.0,0.0,0.0,0.0,0.0,0.0,0.0,0.0,0.0,0.0,0.0,0.0,0.0,0.0,0.0,0.0,0.0,0.0,0.0,0.0,0.0,0.0,0.0,0.0,0.0,0.0,0.0,0.0,0.0,0.0,0.0,0.0,0.0,0.0,0.0,0.0,7.4843,7.3432,7.2182,7.1089,7.0191,6.844,0.0,0.0,0.0,0.0,0.0,0.0,0.0,0.0,0.0,0.0,0.0,0.0,0.0,0.0,0.0,0.0,0.0,0.0,0.0,0.0,0.0,0.0,0.0,0.0,0.0,0.0,0.0,0.0,0.0,0.0,0.0,0.0,0.0,0.0,0.0,0.0,0.0,0.0,0.0,0.0,0.0,0.0,0.0,0.0,0.0,0.0,0.0,0.0,0.0,0.0,0.0,0.0,0.0,0.0,0.0,0.0,0.0,0.0,0.0,0.0,0.0,0.0,0.0,0.0,0.0,0.0,0.0,0.0,0.0,0.0,0.0,0.0,0.0,0.0,0.0,0.0,0.0,0.0,0.0,0.0,0.0,0.0,0.0,0.0,0.0,0.0,0.0,0.0,0.0,0.0,0.0,0.0,0.0,0.0,0.0,0.0,0.0,0.0,0.0,0.0,0.0,0.0,0.0,0.0,0.0,0.0,0.0,0.0,0.0,7.8233,7.975,7.8852,7.5534,7.3939,7.168,0.0,0.0,0.0,0.0,0.0,0.0,0.0,0.0,0.0,0.0,0.0,0.0,0.0,0.0,0.0,0.0,0.0,0.0,0.0,0.0,0.0,0.0,0.0,0.0,0.0,0.0,0.0,0.0,0.0,0.0,0.0,0.0,0.0,0.0,0.0,0.0,0.0,0.0,0.0,0.0,0.0,0.0,0.0,0.0,0.0,0.0,0.0,0.0,0.0,0.0,0.0,0.0,0.0,0.0,0.0,0.0,0.0,0.0,0.0,0.0,0.0,0.0,0.0,0.0,0.0,0.0,0.0,0.0,0.0,0.0,0.0,0.0,0.0,0.0,0.0,0.0,0.0,0.0,0.0,0.0,0.0,0.0,0.0,0.0,0.0,0.0,0.0,0.0,0.0,0.0,0.0,0.0,0.0,0.0,0.0,0.0,0.0,0.0,0.0,0.0,0.0,0.0,0.0,0.0,0.0,0.0,0.0,0.0,7.7101,8.0179,8.3107,8.3419,8.096,7.7453,7.3978,0.0,0.0,0.0,0.0,0.0,0.0,0.0,0.0,0.0,0.0,0.0,0.0,0.0,0.0,0.0,0.0,0.0,0.0,0.0,0.0,0.0,0.0,0.0,0.0,0.0,0.0,0.0,0.0,0.0,0.0,0.0,0.0,0.0,0.0,0.0,0.0,0.0,0.0,0.0,0.0,0.0,0.0,0.0,0.0,0.0,0.0,0.0,0.0,0.0,0.0,0.0,0.0,0.0,0.0,0.0,0.0,0.0,0.0,0.0,0.0,0.0,0.0,0.0,0.0,0.0,0.0,0.0,0.0,0.0,0.0,0.0,0.0,0.0,0.0,0.0,0.0,0.0,0.0,0.0,0.0,0.0,0.0,0.0,0.0,0.0,0.0,0.0,0.0,0.0,0.0,0.0,0.0,0.0,0.0,0.0,0.0,0.0,0.0,0.0,0.0,0.0,0.0,0.0,0.0,0.0,0.0,0.0,0.0,7.8858,8.1617,8.4824,8.6464,8.6197,8.0537,7.5813,0.0,0.0,0.0,0.0,0.0,0.0,0.0,0.0,0.0,0.0,0.0,0.0,0.0,0.0,0.0,0.0,0.0,0.0,0.0,0.0,0.0,0.0,0.0,0.0,0.0,0.0,0.0,0.0,0.0,0.0,0.0,0.0,0.0,0.0,0.0,0.0,0.0,0.0,0.0,0.0,0.0,0.0,0.0,0.0,0.0,0.0,0.0,0.0,0.0,0.0,0.0,0.0,0.0,0.0,0.0,0.0,0.0,0.0,0.0,0.0,0.0,0.0,0.0,0.0,0.0,0.0,0.0,0.0,0.0,0.0,0.0,0.0,0.0,0.0,0.0,0.0,0.0,0.0,0.0,0.0,0.0,0.0,0.0,0.0,0.0,0.0,0.0,0.0,0.0,0.0,0.0,0.0,0.0,0.0,0.0,0.0,0.0,0.0,0.0,0.0,0.0,0.0,0.0,0.0,0.0,0.0,0.0,0.0,8.2104,8.5956,8.811,8.8852,8.8149,8.2293,7.7849,0.0,0.0,0.0,0.0,0.0,0.0,0.0,0.0,0.0,0.0,0.0,0.0,0.0,0.0,0.0,0.0,0.0,0.0,0.0,0.0,0.0,0.0,0.0,0.0,0.0,0.0,0.0,0.0,0.0,0.0,0.0,0.0,0.0,0.0,0.0,0.0,0.0,0.0,0.0,0.0,0.0,0.0,0.0,0.0,0.0,0.0,0.0,0.0,6.4193,0.0,0.0,0.0,0.0,0.0,0.0,0.0,0.0,0.0,0.0,0.0,0.0,0.0,0.0,0.0,0.0,0.0,0.0,0.0,0.0,0.0,0.0,0.0,0.0,0.0,0.0,0.0,0.0,0.0,0.0,0.0,0.0,0.0,0.0,0.0,0.0,0.0,0.0,0.0,0.0,0.0,0.0,0.0,0.0,0.0,0.0,0.0,0.0,0.0,0.0,0.0,0.0,0.0,0.0,0.0,0.0,0.0,0.0,0.0,8.3113,8.6112,8.8266,8.8969,8.7954,8.3426,7.9522,0.0,0.0,0.0,0.0,0.0,0.0,0.0,0.0,0.0,0.0,0.0,0.0,0.0,0.0,0.0,0.0,0.0,0.0,0.0,0.0,0.0,0.0,0.0,0.0,0.0,0.0,0.0,0.0,0.0,0.0,0.0,0.0,0.0,0.0,0.0,0.0,0.0,0.0,0.0,0.0,0.0,0.0,0.0,0.0,0.0,0.0,0.0,0.0,0.0,0.0,0.0,0.0,0.0,0.0,0.0,0.0,0.0,0.0,0.0,0.0,0.0,0.0,0.0,0.0,0.0,0.0,0.0,0.0,0.0,0.0,0.0,0.0,0.0,0.0,0.0,0.0,0.0,0.0,0.0,0.0,0.0,0.0,0.0,0.0,0.0,0.0,0.0,0.0,0.0,0.0,0.0,0.0,0.0,0.0,0.0,0.0,0.0,0.0,0.0,0.0,0.0,0.0,0.0,0.0,0.0,0.0,0.0,8.023,8.3308,8.5371,8.7557,8.8344,8.7564,8.4128,8.0732,0.0,0.0,0.0,0.0,0.0,0.0,0.0,0.0,0.0,0.0,0.0,0.0,0.0,0.0,0.0,0.0,0.0,0.0,0.0,0.0,0.0,0.0,0.0,0.0,0.0,0.0,0.0,0.0,0.0,0.0,0.0,0.0,0.0,0.0,0.0,0.0,0.0,0.0,0.0,6.164,6.305,0.0,0.0,0.0,0.0,0.0,0.0,0.0,0.0,6.5839,0.0,0.0,0.0,0.0,0.0,0.0,0.0,0.0,0.0,0.0,0.0,0.0,0.0,0.0,0.0,0.0,0.0,0.0,0.0,0.0,0.0,0.0,0.0,0.0,0.0,0.0,0.0,0.0,0.0,0.0,0.0,0.0,0.0,0.0,0.0,0.0,0.0,0.0,0.0,0.0,0.0,0.0,0.0,0.0,0.0,0.0,0.0,0.0,0.0,0.0,0.0,0.0,0.0,0.0,0.0,0.0,7.7927,8.0855,8.4167,8.7947,8.8461,8.8618,8.8383,8.448,8.1005,7.8161,0.0,0.0,0.0,0.0,0.0,0.0,0.0,0.0,0.0,0.0,0.0,0.0,0.0,0.0,0.0,0.0,0.0,0.0,0.0,0.0,0.0,0.0,0.0,0.0,0.0,0.0,0.0,0.0,0.0,0.0,0.0,0.0,0.0,0.0,0.0,0.0,0.0,0.0,0.0,6.4688,6.5467,0.0,0.0,0.0,0.0,0.0,0.0,0.0,0.0,6.795,0.0,0.0,0.0,0.0,0.0,0.0,0.0,0.0,0.0,0.0,0.0,0.0,0.0,0.0,0.0,0.0,0.0,0.0,0.0,0.0,0.0,0.0,0.0,0.0,0.0,0.0,0.0,0.0,0.0,0.0,0.0,0.0,0.0,0.0,0.0,0.0,0.0,0.0,0.0,0.0,0.0,0.0,0.0,0.0,0.0,0.0,0.0,0.0,0.0,0.0,0.0,0.0,0.0,0.0,0.0,7.9567,8.2299,8.526,8.854,8.8696,8.8266,8.7329,8.3621,8.0386,0.0,0.0,0.0,0.0,0.0,0.0,0.0,0.0,0.0,0.0,0.0,0.0,0.0,0.0,0.0,0.0,0.0,0.0,0.0,0.0,0.0,0.0,0.0,0.0,0.0,0.0,0.0,0.0,0.0,0.0,0.0,0.0,0.0,0.0,0.0,0.0,0.0,0.0,0.0,0.0,6.7519,6.8435,7.0265,0.0,0.0,0.0,0.0,0.0,0.0,7.0453,6.9761,0.0,0.0,0.0,0.0,0.0,0.0,0.0,0.0,0.0,0.0,0.0,0.0,0.0,0.0,0.0,0.0,0.0,0.0,0.0,0.0,0.0,0.0,0.0,0.0,0.0,0.0,0.0,0.0,0.0,0.0,0.0,0.0,0.0,0.0,0.0,0.0,0.0,0.0,0.0,0.0,0.0,0.0,0.0,0.0,0.0,0.0,0.0,0.0,0.0,0.0,0.0,0.0,0.0,0.0,0.0,8.0855,8.351,8.608,8.854,8.8696,8.7876,8.6112,8.2606,7.9528,0.0,0.0,0.0,0.0,0.0,0.0,0.0,0.0,0.0,0.0,0.0,0.0,0.0,0.0,0.0,0.0,0.0,0.0,0.0,0.0,0.0,0.0,0.0,0.0,0.0,0.0,0.0,0.0,0.0,0.0,0.0,0.0,0.0,0.0,0.0,0.0,0.0,0.0,0.0,0.0,0.0,7.1496,7.3301,7.2795,0.0,0.0,0.0,0.0,7.1214,7.1798,0.0,0.0,0.0,0.0,0.0,0.0,0.0,0.0,0.0,0.0,0.0,0.0,0.0,0.0,0.0,0.0,0.0,0.0,0.0,0.0,0.0,0.0,0.0,0.0,0.0,0.0,0.0,0.0,0.0,0.0,0.0,0.0,0.0,0.0,0.0,0.0,0.0,0.0,0.0,0.0,0.0,0.0,0.0,0.0,0.0,0.0,0.0,0.0,0.0,0.0,0.0,0.0,0.0,0.0,0.0,0.0,8.0855,8.351,8.6047,8.854,8.8696,8.7876,8.6112,8.2059,7.863,0.0,0.0,0.0,0.0,0.0,0.0,0.0,0.0,0.0,0.0,0.0,0.0,0.0,0.0,0.0,0.0,0.0,0.0,0.0,0.0,0.0,0.0,0.0,0.0,0.0,0.0,0.0,0.0,0.0,0.0,0.0,0.0,0.0,0.0,0.0,0.0,0.0,0.0,0.0,0.0,0.0,7.3354,7.5151,7.4665,7.3534,0.0,0.0,0.0,7.2899,7.3641,0.0,0.0,0.0,0.0,0.0,0.0,0.0,0.0,0.0,0.0,0.0,0.0,0.0,0.0,0.0,0.0,0.0,0.0,0.0,0.0,0.0,0.0,0.0,0.0,0.0,0.0,0.0,0.0,0.0,0.0,0.0,0.0,0.0,0.0,0.0,0.0,0.0,0.0,0.0,0.0,0.0,0.0,0.0,0.0,0.0,0.0,0.0,0.0,0.0,0.0,0.0,0.0,0.0,0.0,0.0,0.0,8.0933,8.3978,8.6588,8.8618,8.8696,8.7876,8.6112,8.1474,7.7966,0.0,0.0,0.0,0.0,0.0,0.0,0.0,0.0,0.0,0.0,0.0,0.0,0.0,0.0,0.0,0.0,0.0,0.0,0.0,0.0,0.0,0.0,0.0,0.0,0.0,0.0,0.0,0.0,0.0,0.0,0.0,0.0,0.0,0.0,0.0,0.0,0.0,0.0,0.0,0.0,0.0,0.0,7.5679,7.6253,0.0,0.0,0.0,7.4342,7.3337,0.0,0.0,0.0,0.0,0.0,0.0,0.0,0.0,0.0,0.0,0.0,0.0,0.0,0.0,0.0,0.0,0.0,0.0,0.0,0.0,0.0,0.0,0.0,0.0,0.0,0.0,0.0,0.0,0.0,0.0,0.0,0.0,0.0,0.0,0.0,0.0,0.0,0.0,0.0,0.0,0.0,0.0,0.0,0.0,0.0,0.0,0.0,0.0,0.0,0.0,0.0,0.0,0.0,0.0,0.0,0.0,0.0,8.0665,8.4252,8.6861,8.8337,8.8618,8.7759,8.5761,8.12,0.0,0.0,0.0,0.0,0.0,0.0,0.0,0.0,0.0,0.0,0.0,0.0,0.0,0.0,0.0,0.0,0.0,0.0,0.0,0.0,0.0,0.0,0.0,0.0,0.0,0.0,0.0,6.0978,0.0,0.0,0.0,0.0,0.0,0.0,0.0,0.0,0.0,0.0,0.0,0.0,0.0,0.0,7.6712,7.5824,7.7255,7.7863,0.0,0.0,7.5663,7.4367,7.5645,7.5462,0.0,0.0,0.0,0.0,0.0,0.0,0.0,0.0,0.0,0.0,0.0,0.0,0.0,0.0,0.0,0.0,0.0,0.0,0.0,0.0,0.0,0.0,0.0,0.0,0.0,0.0,0.0,0.0,0.0,0.0,0.0,0.0,0.0,0.0,0.0,0.0,0.0,0.0,0.0,0.0,0.0,0.0,0.0,0.0,0.0,0.0,0.0,0.0,0.0,0.0,0.0,0.0,0.0,0.0,0.0,7.9767,8.3933,8.6549,8.7479,8.8305,8.7486,8.4941,8.1474,7.8038,0.0,0.0,0.0,0.0,0.0,0.0,0.0,0.0,0.0,0.0,0.0,0.0,0.0,0.0,0.0,0.0,0.0,0.0,0.0,0.0,0.0,0.0,0.0,0.0,0.0,0.0,0.0,0.0,0.0,0.0,0.0,0.0,0.0,0.0,0.0,0.0,0.0,0.0,0.0,0.0,0.0,7.6778,7.5897,7.7284,7.8077,0.0,0.0,7.6984,7.6828,7.8272,7.7732,7.2734,0.0,0.0,0.0,0.0,0.0,0.0,0.0,0.0,0.0,0.0,0.0,0.0,0.0,0.0,0.0,0.0,0.0,0.0,0.0,0.0,0.0,0.0,0.0,0.0,0.0,0.0,0.0,0.0,0.0,0.0,0.0,0.0,0.0,0.0,0.0,0.0,0.0,0.0,0.0,0.0,0.0,0.0,0.0,0.0,0.0,0.0,0.0,0.0,0.0,0.0,0.0,0.0,0.0,7.5741,7.9683,8.3977,8.6542,8.7368,8.8227,8.7954,8.6425,8.2567,7.9131,0.0,0.0,0.0,0.0,0.0,0.0,0.0,0.0,0.0,0.0,0.0,0.0,0.0,0.0,0.0,0.0,0.0,0.0,0.0,0.0,0.0,0.0,0.0,0.0,0.0,0.0,0.0,0.0,6.2501,6.2301,6.1738,0.0,0.0,0.0,0.0,0.0,0.0,0.0,0.0,0.0,0.0,7.7575,7.6724,7.8572,0.0,0.0,7.835,7.8122,7.6555,7.7296,7.6516,7.1948,7.0732,0.0,0.0,0.0,0.0,0.0,0.0,0.0,0.0,0.0,0.0,0.0,0.0,0.0,0.0,0.0,0.0,0.0,0.0,0.0,0.0,0.0,0.0,0.0,0.0,0.0,0.0,0.0,0.0,0.0,0.0,0.0,0.0,0.0,0.0,0.0,0.0,0.0,0.0,0.0,0.0,0.0,0.0,0.0,0.0,0.0,0.0,0.0,0.0,0.0,0.0,0.0,0.0,7.5547,7.9336,8.3594,8.6207,8.7045,8.7882,8.7915,8.6939,8.3341,8.0029,0.0,0.0,0.0,0.0,0.0,0.0,0.0,0.0,0.0,0.0,0.0,0.0,0.0,0.0,0.0,0.0,0.0,0.0,0.0,0.0,0.0,0.0,0.0,0.0,0.0,0.0,0.0,0.0,6.2462,6.2379,6.1783,0.0,0.0,0.0,0.0,0.0,0.0,0.0,0.0,0.0,0.0,7.7621,7.6497,7.811,7.9014,7.7804,7.7921,7.7609,7.6041,7.632,7.5423,7.1675,0.0,0.0,0.0,0.0,0.0,0.0,0.0,0.0,0.0,0.0,0.0,0.0,0.0,0.0,0.0,0.0,0.0,0.0,0.0,0.0,0.0,0.0,0.0,0.0,0.0,0.0,0.0,0.0,0.0,0.0,0.0,0.0,0.0,0.0,0.0,0.0,0.0,0.0,0.0,0.0,0.0,0.0,0.0,0.0,0.0,0.0,0.0,0.0,0.0,0.0,0.0,0.0,0.0,0.0,7.8515,8.2773,8.5351,8.625,8.7006,8.7017,8.6158,8.3614,8.0647,7.714,0.0,0.0,0.0,0.0,0.0,0.0,0.0,0.0,0.0,0.0,0.0,0.0,0.0,0.0,0.0,0.0,0.0,0.0,0.0,0.0,0.0,0.0,0.0,0.0,0.0,0.0,6.0744,6.1252,6.1798,0.0,0.0,0.0,0.0,0.0,0.0,0.0,0.0,0.0,0.0,7.4421,7.6497,7.4837,7.5345,7.6086,7.5969,7.5266,7.4948,7.5768,7.5852,7.496,0.0,0.0,0.0,0.0,0.0,0.0,0.0,0.0,0.0,0.0,0.0,0.0,0.0,0.0,0.0,0.0,0.0,0.0,0.0,0.0,0.0,0.0,0.0,0.0,0.0,0.0,0.0,6.4609,6.5043,0.0,0.0,0.0,0.0,0.0,0.0,0.0,0.0,0.0,0.0,0.0,7.1128,7.0585,0.0,0.0,0.0,0.0,0.0,0.0,0.0,0.0,0.0,0.0,0.0,0.0,7.5,7.9219,8.2422,8.5,8.6953,8.7262,8.726,8.6948,8.4485,8.0735,7.5579,0.0,0.0,0.0,0.0,0.0,0.0,0.0,0.0,0.0,0.0,0.0,0.0,0.0,0.0,0.0,0.0,0.0,0.0,0.0,0.0,0.0,0.0,0.0,0.0,0.0,6.2149,0.0,0.0,0.0,0.0,0.0,0.0,0.0,0.0,0.0,0.0,0.0,7.0525,7.1377,7.3732,7.5143,7.4603,7.5735,7.6867,0.0,0.0,0.0,0.0,0.0,0.0,0.0,0.0,0.0,0.0,0.0,0.0,0.0,0.0,7.4642,7.2344,7.2383,7.2612,7.2026,0.0,0.0,0.0,0.0,0.0,0.0,0.0,0.0,0.0,0.0,0.0,0.0,0.0,0.0,0.0,0.0,6.6878,0.0,0.0,0.0,0.0,0.0,0.0,0.0,0.0,7.1172,7.2851,7.418,7.3945,7.3945,0.0,7.2422,7.0,0.0,0.0,0.0,0.0,0.0,0.0,0.0,0.0,7.457,7.875,8.1992,8.4687,8.6875,8.7265,8.7422,8.7383,8.4336,8.0156,7.4765,7.1009,6.7715,0.0,0.0,0.0,0.0,0.0,0.0,0.0,0.0,0.0,0.0,0.0,0.0,0.0,0.0,0.0,0.0,0.0,0.0,0.0,0.0,0.0,0.0,0.0,6.2306,0.0,0.0,0.0,0.0,0.0,0.0,0.0,0.0,0.0,6.6517,6.9176,7.1441,7.2288,7.3855,7.4759,7.4173,0.0,0.0,0.0,0.0,0.0,0.0,0.0,7.4876,7.4642,7.4681,7.5149,7.6516,7.8663,8.0068,7.9795,0.0,0.0,7.7068,7.6756,7.6984,7.6432,7.6314,7.6119,7.5657,7.593,7.632,0.0,0.0,0.0,0.0,0.0,0.0,0.0,0.0,6.9095,6.9475,0.0,6.8718,0.0,0.0,0.0,0.0,0.0,0.0,0.0,0.0,7.5078,7.6719,7.6055,7.6758,7.6758,7.5898,7.4219,7.293,7.1953,6.9609,0.0,0.0,0.0,0.0,0.0,0.0,7.4609,7.7383,8.1484,8.4453,8.6172,8.707,8.75,8.7344,8.3359,7.918,7.4961,7.2305,6.9334,6.5961,6.4189,0.0,0.0,0.0,0.0,0.0,0.0,0.0,0.0,0.0,0.0,0.0,0.0,0.0,0.0,0.0,0.0,0.0,0.0,0.0,0.0,6.1252,0.0,0.0,0.0,0.0,0.0,0.0,0.0,0.0,0.0,0.0,6.8468,7.0459,7.23,7.3119,0.0,0.0,0.0,0.0,7.5227,7.3822,7.4173,7.472,7.4921,7.5501,7.6236,7.7134,0.0,0.0,8.1005,8.2528,8.3426,8.2723,8.5221,8.5885,8.1005,8.0146,8.0029,7.9945,7.9906,7.9867,7.9834,7.9795,7.9873,7.4177,0.0,0.0,0.0,0.0,6.9841,7.0312,7.0898,7.1132,7.16,7.2146,7.1286,0.0,0.0,0.0,0.0,0.0,0.0,7.1758,7.2656,7.5117,7.6797,7.7734,7.7383,7.7383,7.7695,7.5976,7.5,7.4726,7.3437,7.125,6.832,0.0,0.0,0.0,0.0,7.5156,7.8906,8.2031,8.4453,8.6172,8.7031,8.7226,8.6562,8.4179,8.1406,7.8359,7.5781,7.3086,7.0272,6.791,0.0,0.0,0.0,0.0,0.0,0.0,0.0,0.0,0.0,0.0,0.0,0.0,0.0,0.0,0.0,0.0,0.0,0.0,0.0,6.0432,6.2306,6.3594,0.0,0.0,0.0,0.0,0.0,0.0,0.0,0.0,0.0,7.245,7.2255,7.2104,0.0,0.0,7.2924,7.2417,7.3783,7.5345,7.675,0.0,0.0,0.0,7.96,7.9086,8.0569,8.2215,8.3621,8.448,8.608,8.7329,8.7681,8.8579,8.8735,8.7407,8.6002,8.5026,8.4395,8.377,8.3341,8.3347,8.3308,8.3308,7.6562,7.4726,7.3509,7.2525,7.1786,7.2109,7.2539,7.3047,7.3047,7.3125,7.332,7.3125,7.2344,7.1172,7.0351,0.0,0.0,0.0,7.2851,7.4375,7.5781,7.7148,7.8437,7.8281,7.8281,7.8437,7.7422,7.6758,7.6406,7.5156,7.3555,7.1484,0.0,0.0,7.1719,7.3476,7.5937,7.918,8.2109,8.4297,8.5664,8.6875,8.707,8.6211,8.4531,8.2539,8.0273,7.7773,7.5351,7.3125,7.0541,6.8114,0.0,0.0,0.0,0.0,0.0,0.0,0.0,0.0,0.0,0.0,0.0,6.3984,0.0,0.0,0.0,0.0,6.1408,6.1564,6.1915,6.3672,0.0,0.0,0.0,0.0,0.0,0.0,0.0,7.1251,7.1875,7.3041,7.5188,7.4636,7.4128,7.4486,7.4525,7.4408,7.4056,0.0,7.7531,7.8741,7.9483,8.0654,8.2684,8.202,8.1897,8.4004,8.5143,8.6275,8.7446,8.8266,8.9125,9.0179,9.0492,9.0492,9.0531,8.9359,8.8188,8.729,8.6431,8.5846,8.5846,8.5846,8.5846,7.789,7.6992,7.543,7.4297,7.3594,7.4375,7.4687,7.4726,7.4687,7.4219,7.3476,7.4258,7.3672,7.207,7.125,0.0,0.0,7.2617,7.3633,7.5937,7.6797,7.7617,7.8437,7.914,7.914,7.8398,7.8398,7.8008,7.7148,7.5664,7.4844,7.4687,7.3984,7.3555,7.3515,7.5195,7.6914,7.8594,8.1914,8.4062,8.5,8.664,8.7109,8.6211,8.4531,8.2773,8.1015,7.8594,7.6523,7.4844,7.2305,7.0153,6.8449,0.0,0.0,0.0,0.0,0.0,0.0,0.0,0.0,0.0,0.0,0.0,0.0,0.0,0.0,0.0,6.3086,0.0,6.4414,6.5273,0.0,0.0,0.0,6.8122,7.0621,7.0972,7.1948,7.4335,0.0,0.0,0.0,0.0,7.7681,7.8702,7.8507,7.8038,7.7296,7.9248,8.0732,8.0146,8.1513,8.2645,8.3074,8.3458,8.459,8.6822,8.7525,8.8032,8.9437,8.9437,8.9633,9.096,9.1311,9.1389,9.1389,9.0648,8.9828,8.893,8.7993,8.7368,8.729,8.7251,8.7212,7.6992,7.625,7.6484,7.6055,7.5312,7.5508,7.5586,7.5586,7.5586,7.5117,7.4297,7.4531,7.3984,7.2969,7.2773,7.3281,7.4297,7.4765,7.5312,7.5937,7.6797,7.7305,7.75,7.7695,7.7695,7.75,7.75,7.7383,7.7226,7.7461,7.6914,7.5664,7.6055,7.5625,7.4453,7.668,7.8398,7.9414,8.2187,8.4336,8.5859,8.6953,8.7109,8.6211,8.4531,8.2773,8.1054,7.918,7.7695,7.6562,7.4101,7.2187,7.1092,6.7812,0.0,0.0,0.0,0.0,0.0,0.0,0.0,0.0,0.0,6.6053,6.5624,0.0,6.5306,0.0,6.3594,6.4609,6.6053,6.699,0.0,0.0,6.9489,7.0543,7.2456,7.3236,7.4095,7.5345,7.6047,7.7134,7.8858,7.9086,7.9867,8.1903,7.9483,7.757,7.8038,7.9717,8.1396,8.2489,8.4011,8.5416,8.5924,8.6314,8.6822,8.8149,8.8383,8.8774,8.9828,9.0413,9.0843,9.1272,9.1819,9.217,9.2209,9.1546,9.0726,8.9828,8.8461,8.7407,8.7407,8.7407,8.7407,7.6914,7.6523,7.6992,7.6914,7.6484,7.6484,7.6484,7.6484,7.6484,7.5781,7.4531,7.3789,7.3398,7.3281,7.289,7.3203,7.4062,7.4922,7.5508,7.5937,7.6797,7.7226,7.7226,7.7226,7.7226,7.7226,7.7578,7.7773,7.7812,7.8633,7.8555,7.7617,7.8476,7.8203,7.6953,7.7187,7.7734,7.8594,8.1523,8.4062,8.6133,8.6679,8.6328,8.5039,8.3359,8.164,7.9922,7.7887,7.6556,7.6009,7.3554,7.1758,7.0859,6.8281,6.648,0.0,0.0,0.0,0.0,0.0,0.0,0.0,0.0,0.0,0.0,0.0,6.7068,0.0,6.5814,0.0,6.7849,6.9098,7.0191,7.105,7.1558,7.269,7.4759,7.5384,7.6281,7.7921,7.8546,7.9359,8.0693,8.1194,8.1864,8.3347,8.1786,8.0693,8.1239,8.2411,8.3621,8.4558,8.5807,8.6822,8.7329,8.7407,8.772,8.8461,8.8696,8.9125,9.0335,9.0648,9.096,9.1663,9.1936,9.2092,9.2365,9.1858,9.1038,9.014,8.9242,8.8344,8.7564,8.7407,8.7407,7.7305,7.7226,7.7226,7.7226,7.7226,7.7226,7.7226,7.7226,7.7226,7.6211,7.4492,7.2773,7.2461,7.3242,7.25,7.2656,7.3515,7.4375,7.5156,7.5937,7.6797,7.7226,7.7226,7.7226,7.7226,7.7226,7.7969,7.8398,7.8515,7.9297,7.9648,7.957,8.0429,8.0351,7.9336,7.7265,7.6758,7.7851,8.082,8.3476,8.5781,8.5664,8.4765,8.3125,8.1406,7.9765,7.8203,7.5848,7.4579,7.4496,7.2337,7.0741,7.0077,6.8476,6.726,0.0,6.7195,0.0,0.0,0.0,0.0,0.0,0.0,0.0,0.0,7.0504,6.9411,6.7927,6.9249,7.0225,7.0191,7.1597,7.2807,7.351,7.3744,7.472,7.6945,7.7453,7.8468,8.0732,8.1161,8.163,8.2332,8.3074,8.3504,8.3894,8.4206,8.448,8.5065,8.5495,8.5885,8.6236,8.69,8.7329,8.7407,8.7407,8.7759,8.8618,8.893,8.9437,9.0999,9.0804,9.0804,9.1897,9.1897,9.1741,9.2404,9.1936,9.1194,9.0374,9.014,8.9516,8.7915,8.7564,8.7525,7.7851,7.7226,7.7226,7.7226,7.7226,7.7226,7.7226,7.7226,7.7226,7.6211,7.4492,7.2773,7.25,7.3242,7.3125,7.3555,7.4375,7.5273,7.5742,7.5937,7.6797,7.7226,7.7226,7.7226,7.7226,7.7226,7.7383,7.7812,7.8515,7.9297,7.9375,7.875,7.9531,7.918,0.0,0.0,0.0,0.0,8.1953,8.289,8.3984,8.2695,8.1484,8.0429,7.8789,0.0,7.6406,7.5233,7.4603,7.4535,7.3447,0.0,0.0,0.0,0.0,0.0,0.0,0.0,0.0,0.0,0.0,0.0,7.6477,7.5852,7.3978,7.3632,7.3398,7.3119,7.3972,7.4603,7.4603,7.4876,7.5149,7.5345,7.5969,7.6867,7.8077,7.9405,8.0498,8.0927,8.2176,8.3074,8.323,8.3426,8.4011,8.5182,8.5143,8.5416,8.6705,8.6431,8.6392,8.7017,8.729,8.7407,8.7407,8.7407,8.7915,8.9281,8.975,9.014,9.1038,9.1741,9.1702,9.178,9.1936,9.2287,9.2482,9.2365,9.1975,9.1194,9.1038,9.0335,8.7954,8.7993,8.8227,7.8242,0.0,7.7383,7.7226,0.0,7.7226,7.7226,7.7226,7.7226,7.625,7.4492,7.2773,7.2226,7.2695,7.3125,7.3555,7.4023,7.5312,7.5898,7.5937,7.6797,7.7226,7.7226,7.7226,7.7226,7.7226,7.7617,7.8242,7.9101,7.9922,8.0351,8.039,8.1211,8.1211,8.0429,8.125,8.1875,8.2304,8.2734,8.3594,8.4765,8.4023,8.2929,8.164,0.0,0.0,0.0,0.0,0.0,0.0,0.0,0.0,0.0,0.0,0.0,7.3945,7.4726,7.5388,7.5872,7.7068,7.8155,7.8975,8.0224,7.9678,7.6672,7.6053,7.5774,7.5807,7.6588,7.7101,7.7101,7.7101,7.7257,7.7687,7.8116,7.8858,8.0146,8.1083,8.1942,8.2684,8.2879,8.3035,8.3465,8.3504,8.4011,8.5221,8.5495,8.5885,8.7056,8.7017,8.6939,8.7329,8.7407,8.7407,8.7407,8.7407,8.7642,8.8579,8.9437,9.0101,9.057,9.1663,9.2326,9.2014,9.2248,9.2482,9.2482,9.2482,9.2248,9.1585,9.1624,9.1194,8.9164,8.8696,8.8618,7.8515,7.8203,7.75,7.7226,7.7226,7.7226,7.7226,7.7187,0.0,0.0,0.0,7.2773,7.207,7.2265,7.2969,7.3398,7.3633,7.5156,7.5898,7.5937,7.6797,7.7265,7.7422,7.7422,7.7422,7.7461,7.832,7.9062,7.9726,8.0586,8.1523,8.25,8.3242,8.375,8.4062,8.4765,8.457,8.3476,8.3554,8.4453,8.6133,8.5742,8.4844,8.3398,8.1836,8.0273,7.875,7.7344,7.625,7.5547,7.5499,7.5247,7.4744,7.6013,7.6562,7.6094,7.7969,7.8903,7.8406,8.0269,8.1597,8.1876,8.3086,8.2417,7.9137,7.8468,7.8116,7.7837,7.8696,7.9242,7.9092,7.9248,7.9444,7.9912,8.0185,8.0888,8.1903,8.2411,8.2957,8.3972,8.323,8.2762,8.3386,8.3504,8.3894,8.487,8.5456,8.6275,8.7134,8.7368,8.7407,8.7681,8.7759,8.772,8.7876,8.7954,8.7915,8.8461,8.9477,9.0218,9.0609,9.1585,9.2404,9.2443,9.2482,9.2482,9.2482,9.2482,9.2287,9.1624,9.2014,9.2092,9.0765,8.975,8.9203,7.8711,7.7383,7.7226,7.7226,7.7226,7.7226,7.7226,7.707,7.5625,7.4844,7.4492,7.2773,7.2422,7.3125,7.3242,7.3711,7.4453,7.5469,7.5898,0.0,7.6797,7.7617,7.832,7.832,7.832,7.8398,7.914,7.957,7.9805,8.0586,8.1797,8.3242,8.3554,8.4336,8.5742,8.5976,8.6601,8.7734,8.5,8.4453,8.6094,8.3984,8.2734,8.2461,8.1601,8.0547,7.957,7.9336,7.9101,7.8984,7.8984,7.9257,7.9883,8.0117,8.0547,8.1172,8.1562,8.2031,8.2655,8.304,8.3851,8.5179,8.4983,8.3569,8.0972,8.1903,8.2059,8.0732,8.1786,8.2567,8.1903,8.2215,8.1981,8.1083,8.2059,8.2528,8.1513,8.2489,8.3191,8.2918,8.3113,8.3308,8.3465,8.3504,8.4089,8.5338,8.5573,8.5651,8.7095,8.7407,8.772,8.8344,8.854,8.8852,8.9281,8.9594,8.9711,9.0648,9.0765,9.1194,9.1741,9.217,9.2482,9.2482,9.2482,9.2482,9.2482,9.2482,9.2404,9.2248,9.2443,9.2326,9.1936,9.135,9.0648,7.9961,7.914,7.8281,7.793,7.789,7.7383,7.7226,7.7031,7.5351,7.4844,7.5117,7.3476,7.3203,7.4023,7.4492,7.4922,7.5351,7.6211,7.6601,7.668,7.75,7.7851,7.789,7.8711,7.8945,7.8594,7.9297,8.0195,8.1094,8.1523,8.2578,8.4219,8.4765,8.5664,8.6836,8.7344,8.7929,8.8633,8.7148,8.6992,8.8203,8.7109,8.6484,8.6445,8.5234,8.4375,8.3945,8.3008,8.2304,8.1836,8.2265,8.25,8.2422,8.3281,8.3789,8.375,8.4609,8.5078,8.5,8.5429,8.6053,8.6793,8.6516,8.5643,8.3933,8.366,8.3236,8.2511,8.2774,8.2918,8.2879,8.2489,8.202,8.1747,8.2411,8.2684,8.2489,8.2957,8.3504,8.3582,8.3152,8.2996,8.3465,8.3504,8.3933,8.5182,8.569,8.6705,8.7915,8.811,8.8227,8.8618,8.8696,8.9086,8.9828,8.9984,9.0179,9.057,9.0999,9.1389,9.1858,9.217,9.2482,9.2482,9.2482,9.2482,9.2482,9.2482,9.2482,9.2482,9.2482,9.2482,9.2443,9.217,9.135,8.0859,8.0547,7.9101,7.8398,7.8164,7.7461,7.7226,7.7031,7.5547,7.539,7.5859,7.414,7.3867,7.4922,7.5586,7.6094,7.6523,7.6953,7.7383,7.7812,7.8281,7.832,7.8203,7.9414,7.9648,7.9258,8.0078,8.1211,8.2226,8.2695,8.3672,8.5156,8.625,8.7109,8.7773,8.8594,8.9062,8.9258,8.9297,8.9609,9.0273,9.0312,9.0312,9.0195,8.9023,8.8281,8.8008,8.6758,8.5742,8.5117,8.5508,8.5547,8.5117,8.6133,8.6562,8.6211,8.7109,8.7383,8.664,8.7109,8.75,8.75,8.7496,8.7057,8.5947,8.4697,8.3765,8.3581,8.3409,8.3386,8.3386,8.2879,8.2293,8.2606,8.2762,8.2957,8.3191,8.3386,8.3621,8.4011,8.3074,8.2606,8.3269,8.3504,8.3972,8.5104,8.6588,8.7915,8.8579,8.8813,8.9008,8.9242,8.9281,8.9711,9.0374,9.0609,9.0648,9.057,9.1155,9.1585,9.178,9.217,9.2443,9.2482,9.2482,9.2482,9.2482,9.2482,9.2482,9.2482,9.2482,9.2482,9.2482,9.2482,9.1858,8.0586,7.9726,7.8945,7.8047,7.7422,7.7305,7.7265,7.7148,7.6172,7.625,7.6797,7.4414,7.4297,7.5664,7.5898,7.6758,7.8047,7.7539,7.8008,7.9219,7.8789,7.9258,8.039,8.0781,8.082,8.0937,8.2344,8.2812,8.2617,8.3984,8.5156,8.6172,8.7695,8.8476,8.8672,8.9453,9.0273,9.1054,9.1054,9.1094,9.1172,9.1172,9.1172,9.1172,9.1015,9.0547,8.9765,8.9609,8.9453,8.9375,8.8633,8.8633,8.9179,8.8789,8.875,8.9375,8.8906,8.8242,8.75,8.7461,8.7539,8.75,8.75,8.6836,8.5351,8.4922,8.4453,8.3982,8.4897,8.4792,8.3816,8.4519,8.4519,8.3308,8.3816,8.4011,8.2879,8.3074,8.3269,8.2567,8.2645,8.2606,8.3426,8.366,8.4284,8.5807,8.7368,8.854,8.8852,8.9477,9.0179,9.0765,9.1038,9.135,9.1936,9.2248,9.2053,9.2131,9.2248,9.2287,9.2326,9.2365,9.2482,9.2482,9.2482,9.2482,9.2482,9.2482,9.2482,9.2482,9.2482,9.2482,9.2482,9.2482,9.1975,8.1562,8.1133,8.0312,7.9492,7.875,7.8672,7.8672,7.8594,7.7812,7.7656,7.7773,7.6289,7.6015,7.668,7.668,7.7344,7.8437,7.8125,7.8594,7.9687,7.9883,8.0117,8.0273,8.1328,8.1758,8.1836,8.3008,8.3945,8.4804,8.6328,8.7344,8.7773,8.8906,8.9453,8.9531,9.0351,9.0976,9.1289,9.1797,9.207,9.207,9.207,9.207,9.2031,9.1562,9.1172,9.0781,9.0273,9.0,8.9961,8.9648,8.9609,8.9961,8.9648,8.9609,8.9961,8.9687,8.9336,8.9023,8.8515,8.8203,8.8203,8.7773,8.7148,8.6523,8.5937,8.5272,8.4515,8.4101,8.366,8.3543,8.3738,8.3543,8.2957,8.3113,8.323,8.3113,8.3308,8.3504,8.3699,8.3777,8.3855,8.4245,8.4714,8.5534,8.6705,8.7993,8.8852,8.9398,9.0218,9.1038,9.178,9.2014,9.2131,9.2443,9.2482,9.2482,9.2482,9.2482,9.2482,9.2482,9.2482,9.2482,9.2482,9.2482,9.2482,9.2482,9.2482,9.2482,9.2482,9.2482,9.2482,9.2482,9.2482,9.2326,8.2304,8.2187,8.1367,8.0508,7.9726,7.9726,7.9726,7.9648,7.9062,7.8828,7.875,7.8164,7.789,7.7851,7.7656,7.8008,7.875,7.8828,7.9414,8.039,8.1054,8.1133,8.0937,8.2265,8.3008,8.3164,8.3945,8.5234,8.6875,8.832,8.9062,8.9179,8.9922,9.0351,9.0469,9.125,9.164,9.1758,9.2539,9.2851,9.2656,9.2851,9.2851,9.2578,9.1992,9.164,9.164,9.1054,9.0703,9.0742,9.0508,9.0469,9.0703,9.0469,9.0351,9.0351,9.0351,9.0234,9.0039,8.9414,8.9062,8.8984,8.8476,8.7969,8.7422,8.664,8.5781,8.4882,8.3504,8.2957,8.2996,8.284,8.2645,8.2645,8.2606,8.2957,8.3699,8.3855,8.4089,8.4675,8.4636,8.4909,8.5221,8.5885,8.6705,8.729,8.8344,8.9203,8.9984,9.0882,9.1858,9.2404,9.2482,9.2482,9.2482,9.2482,9.2482,9.2482,9.2482,9.2482,9.2482,9.2482,9.2482,9.2482,9.2482,9.2482,9.2482,9.2482,9.2482,9.2482,9.2482,9.2482,9.2482,9.2482,9.2482,8.2304,8.2187,8.1367,8.0547,7.9726,7.9805,7.9765,7.9883,7.9726,7.9687,7.9648,7.957,7.957,7.9453,7.8789,7.8906,7.957,7.9648,8.0547,8.1992,8.2226,8.2656,8.3476,8.4375,8.4765,8.4726,8.5429,8.6758,8.8437,8.9453,8.9961,9.0,9.082,9.125,9.1328,9.2031,9.25,9.2539,9.3281,9.3437,9.2851,9.3437,9.3476,9.2812,9.2539,9.2461,9.25,9.2461,9.2422,9.2461,9.1679,9.1601,9.2265,9.1679,9.125,9.125,9.125,9.0898,9.0234,9.0,8.9922,8.9922,8.9765,8.9179,8.7773,8.6797,8.5898,8.4954,8.4089,8.3269,8.2801,8.3191,8.3465,8.3465,8.3465,8.3855,8.4636,8.4753,8.4753,8.4909,8.5026,8.5377,8.5963,8.6783,8.729,8.7759,8.8891,8.9984,9.0257,9.1428,9.2287,9.2443,9.2482,9.2482,9.2482,9.2482,9.2482,9.2482,9.2482,9.2482,9.2482,9.2482,9.2482,9.2482,9.2482,9.2482,9.2482,9.2482,9.2482,9.2482,9.2482,9.2482,9.2482,9.2482,9.2482,8.2304,8.2265,8.1953,8.164,8.1367,8.1367,8.1367,8.1367,8.1367,8.1054,8.0586,8.0547,8.0234,7.9726,8.0,8.0273,8.0508,8.0508,8.1445,8.3008,8.3125,8.3594,8.4414,8.4765,8.5234,8.5742,8.6054,8.707,8.8633,8.957,9.0312,9.0898,9.1719,9.2148,9.2187,9.2422,9.2578,9.2695,9.3437,9.375,9.3515,9.4297,9.457,9.4219,9.3164,9.2578,9.2578,9.2578,9.2578,9.2578,9.2265,9.2265,9.2539,9.2304,9.2148,9.2148,9.2148,9.1992,9.164,9.1133,9.082,9.0781,9.0302,8.9794,8.8982,8.7805,8.6806,8.6282,8.5104,8.42,8.405,8.4167,8.4323,8.4323,8.4362,8.4675,8.5377,8.5651,8.5846,8.6314,8.6471,8.6627,8.69,8.7681,8.8227,8.8422,8.975,9.0648,9.096,9.1819,9.2482,9.2482,9.2482,9.2482,9.2482,9.2482,9.2482,9.2482,9.2482,9.2482,9.2482,9.2482,9.2482,9.2522,9.2522,9.2717,9.2795,9.2756,9.2717,9.2639,9.26,9.2482,9.2482,9.2482,9.2482,8.2304,8.2304,8.2304,8.2304,8.2304,8.2304,8.2304,8.2304,8.2304,8.1953,8.1484,8.1406,8.1094,8.0703,8.1133,8.1406,8.1406,8.1445,8.2187,8.3554,8.3906,8.4492,8.5234,8.5586,8.6054,8.664,8.7226,8.8047,8.914,9.0273,9.1133,9.1758,9.2344,9.2578,9.2578,9.2578,9.2578,9.2773,9.3476,9.3906,9.4023,9.4765,9.5195,9.5,9.3789,9.3008,9.3008,9.3008,9.2851,9.2656,9.2578,9.2578,9.2578,9.2578,9.2578,9.2578,9.2578,9.2578,9.2539,9.2031,9.1719,9.1719,9.1189,9.0745,9.038,8.8837,8.796,8.7486,8.6275,8.5293,8.5566,8.5651,8.5534,8.5299,8.5221,8.5573,8.6353,8.651,8.6783,8.7173,8.729,8.7368,8.7525,8.8156,8.8585,8.8696,9.0218,9.1233,9.1389,9.1975,9.2482,9.2482,9.2482,9.2482,9.2482,9.2482,9.2482,9.2482,9.26,9.26,9.2717,9.2639,9.2639,9.26,9.2756,9.299,9.3107,9.3029,9.2951,9.2873,9.2639,9.2482,9.2482,9.2482,9.2561,8.2304,8.2304,8.2304,8.2304,8.2304,8.2304,8.2304,8.2304,8.2304,8.2226,8.2148,8.2226,8.2109,8.2187,8.2109,8.2226,8.2304,8.2304,8.2812,8.375,8.457,8.5351,8.6211,8.6914,8.7304,8.7578,8.9062,8.9844,9.0078,9.1445,9.2304,9.25,9.2539,9.2578,9.2578,9.2578,9.2578,9.2773,9.3437,9.3906,9.4023,9.4844,9.5351,9.5273,9.4531,9.4101,9.3984,9.3828,9.332,9.2734,9.2656,9.2656,9.2695,9.2617,9.2578,9.2578,9.2578,9.2578,9.2578,9.2539,9.2461,9.2461,9.2482,9.2027,9.1207,8.9828,8.8813,8.8461,8.7329,8.6471,8.7056,8.7134,8.69,8.6275,8.6119,8.6471,8.7056,8.7368,8.7407,8.7407,8.7414,8.7407,8.7609,8.8324,8.887,8.9327,9.0413,9.1467,9.1546,9.2092,9.2443,9.2482,9.2482,9.2482,9.2482,9.2482,9.2482,9.2522,9.2678,9.2795,9.3146,9.3224,9.3302,9.3341,9.3615,9.3888,9.4122,9.4044,9.3693,9.3497,9.3068,9.2717,9.2795,9.2834,9.2678,8.2304,8.2304,8.2304,8.2304,8.2304,8.2304,8.2304,8.2304,8.2304,8.2304,8.2304,8.2304,8.2304,8.2304,8.2304,8.2617,8.3164,8.3203,8.3672,8.4531,8.539,8.6211,8.6992,8.7383,8.7773,8.832,8.8828,8.9765,9.082,9.1445,9.1992,9.25,9.2617,9.2578,9.2617,9.2578,9.2578,9.2695,9.3476,9.4179,9.4804,9.5625,9.6328,9.6836,9.664,9.6289,9.5664,9.3984,9.2929,9.2656,9.3164,9.3476,9.3398,9.2929,9.2617,9.2578,9.2578,9.2578,9.2617,9.2617,9.2656,9.2617,9.2617,9.2521,9.2177,9.1116,9.0179,8.9633,8.854,8.7876,8.7486,8.7407,8.7251,8.7017,8.7017,8.7056,8.7329,8.7407,8.7407,8.7414,8.7401,8.7649,8.8273,8.9052,8.9774,9.0342,9.1389,9.2053,9.217,9.2287,9.2482,9.2482,9.2482,9.26,9.2717,9.2951,9.3107,9.3146,9.3263,9.3224,9.3537,9.3888,9.3966,9.42,9.4512,9.4786,9.5059,9.4942,9.4591,9.4083,9.3615,9.3419,9.3341,9.3107,9.2795,8.2304,8.2304,8.2304,8.2304,8.2344,8.2617,8.2617,8.2383,8.2656,8.2617,8.2383,8.2304,8.2304,8.2383,8.2617,8.3086,8.3633,8.4219,8.4844,8.539,8.5898,8.6679,8.7461,8.7851,8.8359,8.914,8.9492,9.0234,9.125,9.164,9.2226,9.2969,9.3086,9.3086,9.3086,9.3047,9.2969,9.2773,9.3125,9.4023,9.5039,9.5742,9.6562,9.7461,9.7383,9.6992,9.6367,9.457,9.3398,9.3242,9.3633,9.4023,9.4297,9.3867,9.3554,9.3554,9.3594,9.3594,9.3554,9.3633,9.3398,9.3164,9.3086,9.289,9.256,9.1799,9.1006,9.0482,8.9354,8.8485,8.8,8.7537,8.742,8.7407,8.7381,8.7426,8.7426,8.7414,8.7407,8.7459,8.7685,8.8125,8.8711,8.9842,9.0603,9.1324,9.2014,9.2522,9.2522,9.2482,9.2522,9.2639,9.2912,9.299,9.3068,9.3341,9.3693,9.3849,9.3966,9.3888,9.3927,9.4473,9.4747,9.5215,9.5567,9.5957,9.6191,9.584,9.5449,9.4864,9.4278,9.381,9.3497,9.2951,9.2639,8.2461,8.2422,8.2461,8.2578,8.2695,8.3359,8.3281,8.2734,8.332,8.3281,8.2695,8.2695,8.2617,8.2695,8.3398,8.3789,8.4062,8.5469,8.625,8.6445,8.6679,8.7226,8.7929,8.8515,8.9219,9.0078,9.0781,9.125,9.1562,9.2304,9.3086,9.3711,9.3906,9.3984,9.3984,9.3945,9.3633,9.3125,9.2969,9.3828,9.5234,9.5351,9.6094,9.7578,9.7109,9.6719,9.6562,9.5664,9.4804,9.4179,9.414,9.4453,9.5078,9.5234,9.5,9.4961,9.5117,9.5039,9.5117,9.4726,9.4492,9.3867,9.3594,9.3515,9.2617,9.1978,9.1423,9.1094,8.9922,8.8901,8.8602,8.8173,8.7782,8.7609,8.7553,8.7486,8.7486,8.7548,8.7621,8.7743,8.8203,8.8828,8.9062,9.039,9.1049,9.1575,9.2144,9.2443,9.2522,9.2522,9.2561,9.2834,9.3302,9.3615,9.3732,9.4044,9.4395,9.4512,9.4747,9.4981,9.4903,9.541,9.5762,9.623,9.6464,9.6894,9.705,9.666,9.6308,9.584,9.5137,9.4239,9.381,9.3576,9.338,8.4219,8.4219,8.4219,8.4219,8.4258,8.4492,8.4453,8.4258,8.4414,8.4375,8.4179,8.4219,8.4101,8.4219,8.4414,8.4883,8.5625,8.664,8.7539,8.8086,8.875,8.9062,8.9297,8.9531,9.0117,9.0898,9.125,9.164,9.2304,9.3047,9.3633,9.3906,9.4609,9.4844,9.4883,9.4883,9.4765,9.457,9.4492,9.4961,9.5898,9.6094,9.664,9.75,9.7422,9.7344,9.7304,9.6601,9.6094,9.582,9.5156,9.5234,9.6015,9.5586,9.5273,9.5273,9.5195,9.5195,9.5078,9.4648,9.4179,9.3906,9.3437,9.2851,9.2656,9.2422,9.1953,9.1445,9.0781,9.0037,8.9084,8.9032,8.9216,8.9138,8.8346,8.7812,8.8242,8.8357,8.8356,8.8434,8.914,8.9804,9.0429,9.0937,9.1562,9.2062,9.2395,9.26,9.2561,9.2561,9.2561,9.3263,9.3771,9.4161,9.4512,9.4825,9.5059,9.5137,9.5606,9.6347,9.6503,9.6855,9.7089,9.7323,9.7128,9.7362,9.7479,9.7362,9.705,9.6738,9.6074,9.5293,9.5293,9.5176,9.4942,8.4883,8.4883,8.4883,8.4883,8.4961,8.5312,8.5234,8.5039,8.5312,8.5195,8.4961,8.4883,8.4883,8.4922,8.5273,8.5898,8.6797,8.7617,8.8437,8.9258,9.0078,9.0469,9.0547,9.0547,9.1015,9.1758,9.1836,9.2148,9.2656,9.3476,9.4062,9.457,9.5312,9.5742,9.5742,9.5742,9.5547,9.5273,9.5195,9.5625,9.6406,9.6133,9.6406,9.6992,9.7226,9.7304,9.7539,9.7226,9.6875,9.6484,9.6054,9.6133,9.6836,9.6211,9.5781,9.5742,9.5429,9.5195,9.5117,9.4687,9.4297,9.3945,9.3359,9.3008,9.2695,9.2578,9.2226,9.1445,9.1328,9.0625,8.9684,8.9716,9.0139,9.0259,8.9332,8.8789,8.9219,8.9219,8.9258,8.9453,9.0,9.0664,9.1289,9.1601,9.2031,9.2418,9.2521,9.258,9.2567,9.2561,9.2873,9.3693,9.4356,9.4864,9.5488,9.5918,9.6113,9.6191,9.6503,9.7284,9.7518,9.7831,9.7792,9.7753,9.7714,9.7831,9.8065,9.8104,9.7792,9.7401,9.6855,9.6425,9.623,9.6074,9.5996,8.5234,8.5156,8.5156,8.5156,8.5351,8.5976,8.5976,8.5469,8.6015,8.5937,8.5429,8.5234,8.5429,8.5234,8.6094,8.6797,8.7656,8.8281,8.9219,9.0117,9.0976,9.1445,9.1445,9.1445,9.1797,9.2383,9.2578,9.2656,9.3047,9.3711,9.4531,9.5351,9.6211,9.6562,9.6601,9.664,9.6211,9.5781,9.5742,9.5976,9.6406,9.6133,9.625,9.6523,9.6875,9.7148,9.7539,9.7578,9.7344,9.664,9.6601,9.6875,9.7383,9.6797,9.6367,9.6172,9.5703,9.539,9.5195,9.5117,9.4765,9.4062,9.3789,9.3476,9.2773,9.2578,9.2304,9.1679,9.1445,9.1133,9.0586,9.0312,9.0625,9.1094,9.0664,9.0312,9.0234,9.0195,9.0117,9.0195,9.0898,9.1328,9.164,9.2109,9.2733,9.2603,9.2864,9.3283,9.327,9.3302,9.3732,9.4395,9.502,9.5567,9.6308,9.705,9.7206,9.7362,9.7597,9.8026,9.7987,9.8143,9.8104,9.8104,9.8338,9.8651,9.9002,9.8885,9.8494,9.8065,9.7558,9.7011,9.6582,9.6464,9.6347,8.7539,8.6953,8.6953,8.6953,8.6953,8.7148,8.7109,8.6953,8.7109,8.707,8.6953,8.6914,8.6875,8.6914,8.7148,8.7695,8.8398,8.8828,8.9492,9.1054,9.1914,9.2265,9.2304,9.2226,9.2422,9.2656,9.2617,9.2969,9.3633,9.4453,9.5312,9.6133,9.6836,9.7422,9.7344,9.7304,9.7383,9.7148,9.7109,9.6797,9.664,9.6836,9.6758,9.664,9.7031,9.7422,9.7617,9.7695,9.7617,9.75,9.7422,9.7344,9.6914,9.6601,9.6133,9.5664,9.5898,9.5781,9.5312,9.5,9.4804,9.3906,9.3281,9.2812,9.2656,9.2578,9.25,9.2304,9.2304,9.2109,9.1836,9.1367,9.1484,9.1914,9.2031,9.1875,9.1914,9.1406,9.1054,9.1172,9.1719,9.2304,9.2304,9.2929,9.3164,9.2929,9.3316,9.3973,9.409,9.4044,9.4552,9.5137,9.5567,9.6113,9.6816,9.7479,9.7675,9.8065,9.8494,9.9002,9.8924,9.8924,9.9041,9.908,9.9119,9.947,9.9822,9.9392,9.8924,9.8572,9.826,9.7675,9.7206,9.6972,9.6972,8.9062,8.8711,8.8672,8.8672,8.8672,8.8672,8.8437,8.8125,8.8047,8.8047,8.7969,8.7695,8.7695,8.8047,8.8125,8.8515,8.9414,9.0234,9.1015,9.1914,9.2422,9.2578,9.2578,9.2656,9.2734,9.3047,9.2773,9.3281,9.4336,9.4922,9.5351,9.5976,9.707,9.7344,9.7304,9.75,9.7656,9.7617,9.7695,9.7461,9.7226,9.707,9.7031,9.6601,9.6914,9.7265,9.7656,9.7695,9.7695,9.7773,9.8047,9.7734,9.6601,9.6094,9.5469,9.4844,9.4492,9.4531,9.4062,9.3945,9.375,9.3359,9.2851,9.2695,9.2578,9.2578,9.2344,9.2226,9.2304,9.2578,9.2578,9.2304,9.2265,9.2422,9.2578,9.2578,9.25,9.2148,9.1914,9.1992,9.2265,9.25,9.2812,9.332,9.3594,9.332,9.3504,9.4168,9.4676,9.4708,9.5254,9.5762,9.6113,9.6621,9.7284,9.7753,9.7948,9.8455,9.9119,9.9783,10.0251,10.0212,10.0212,10.0134,10.0017,10.0251,10.0446,9.9939,9.9588,9.9431,9.908,9.8377,9.7948,9.787,9.7987,9.0117,9.0,9.0,9.0,9.0,8.9922,8.9531,8.8945,8.8906,8.8906,8.875,8.8047,8.8203,8.875,8.8672,8.9179,9.0195,9.1601,9.2344,9.2109,9.2461,9.2578,9.2578,9.2656,9.3008,9.3711,9.3242,9.375,9.457,9.5156,9.539,9.5664,9.6719,9.7226,9.6992,9.7304,9.7695,9.7695,9.7695,9.7695,9.7656,9.7265,9.7187,9.7148,9.6914,9.7344,9.7851,9.8008,9.8008,9.8125,9.8672,9.8086,9.6953,9.5859,9.4883,9.4062,9.3711,9.3437,9.3203,9.3086,9.3203,9.2734,9.2578,9.2578,9.2578,9.2578,9.2304,9.2109,9.2187,9.2578,9.2578,9.25,9.25,9.2578,9.2578,9.2578,9.2578,9.2578,9.25,9.2539,9.2773,9.3047,9.3008,9.3242,9.3554,9.3856,9.4069,9.4395,9.4942,9.5527,9.6113,9.6464,9.6777,9.6933,9.7518,9.7714,9.7948,9.8416,9.9275,10.0095,10.0876,10.0954,10.0798,10.0876,10.0915,10.1071,10.111,10.0837,10.0563,10.0368,9.99,9.9197,9.8924,9.8807,9.8963,9.0664,9.0,9.0,9.0,9.0,9.0039,9.0,8.9804,8.9765,8.9765,8.9648,8.8906,8.8906,8.9375,8.8945,8.9219,9.0312,9.1679,9.2226,9.1914,9.2265,9.2578,9.2578,9.2617,9.3047,9.3672,9.3633,9.3867,9.4336,9.4804,9.539,9.6133,9.6484,9.6758,9.707,9.7617,9.7578,9.7617,9.7734,9.7851,9.789,9.8164,9.832,9.8242,9.7773,9.7929,9.8515,9.8789,9.9101,9.9726,9.9297,9.8515,9.7539,9.6679,9.5547,9.4453,9.4375,9.3984,9.3242,9.3945,9.3789,9.3047,9.2695,9.2617,9.2617,9.2578,9.2461,9.2422,9.2383,9.2578,9.2578,9.2578,9.2578,9.2578,9.2578,9.2578,9.2578,9.2695,9.2656,9.2656,9.3125,9.3476,9.3242,9.3203,9.3594,9.4062,9.4548,9.5073,9.5684,9.6386,9.705,9.7323,9.7479,9.7518,9.7675,9.7714,9.7831,9.8143,9.8885,9.9705,10.0446,10.111,10.1305,10.1539,10.1657,10.1735,10.1696,10.1618,10.1344,10.1032,10.0524,10.0017,9.9783,9.9627,9.99,9.1719,9.1367,9.1367,9.1328,9.1328,9.1328,9.1054,9.0703,9.0664,9.0429,8.9844,8.914,8.8906,8.914,8.8945,8.9414,9.0703,9.1406,9.1914,9.1992,9.2383,9.2578,9.2578,9.2578,9.2812,9.3281,9.3633,9.414,9.457,9.5,9.5195,9.5156,9.5547,9.582,9.6015,9.6562,9.6992,9.7226,9.7851,9.8359,9.8359,9.8867,9.8984,9.8867,9.8672,9.8633,9.8945,9.9531,9.957,9.9609,9.9648,9.8906,9.8008,9.7226,9.6328,9.5039,9.4961,9.4922,9.414,9.4804,9.4531,9.3515,9.3242,9.3008,9.2734,9.2578,9.2578,9.2578,9.2578,9.2578,9.2578,9.2578,9.2578,9.2578,9.2578,9.2578,9.2695,9.3008,9.289,9.2695,9.2851,9.3008,9.3086,9.3203,9.3672,9.4258,9.4883,9.5553,9.6191,9.6738,9.7284,9.7518,9.7558,9.7675,9.7753,9.787,9.7987,9.8299,9.8885,9.9705,10.0446,10.1266,10.193,10.2359,10.2437,10.2281,10.2359,10.2281,10.1969,10.1696,10.1305,10.0915,10.0603,10.0485,10.0798,9.2578,9.2578,9.2578,9.2578,9.2578,9.2578,9.2187,9.164,9.1328,9.0898,9.0195,8.9258,8.8828,8.9023,8.9375,9.0117,9.1523,9.164,9.2031,9.2422,9.2539,9.2578,9.2578,9.2578,9.2656,9.2851,9.3554,9.414,9.4297,9.4687,9.4492,9.4414,9.4726,9.4804,9.4765,9.6015,9.6328,9.6992,9.8086,9.8984,9.9219,9.9414,9.9414,9.9297,9.9258,9.9258,9.9453,9.9883,9.9883,9.9687,9.957,9.9336,9.8203,9.7812,9.6992,9.5781,9.5508,9.539,9.5195,9.5429,9.5078,9.3906,9.3867,9.3398,9.2851,9.2578,9.2578,9.2578,9.2578,9.2578,9.2578,9.2578,9.2578,9.2578,9.2578,9.2617,9.2734,9.289,9.2969,9.2812,9.2656,9.2812,9.3086,9.3008,9.3398,9.4375,9.5028,9.5162,9.5801,9.6308,9.6777,9.7206,9.744,9.7636,9.7831,9.8104,9.8338,9.869,9.947,10.0407,10.1032,10.1657,10.2281,10.2906,10.275,10.2633,10.2789,10.2867,10.2672,10.2398,10.2125,10.1852,10.1618,10.1539,10.1696,9.2578,9.2578,9.2578,9.2578,9.2578,9.2578,9.2539,9.2344,9.1601,9.1289,9.082,8.9492,8.9101,8.9648,9.0508,9.1406,9.207,9.2226,9.2304,9.2578,9.2578,9.2578,9.2578,9.2578,9.2578,9.2695,9.3398,9.3398,9.3476,9.3867,9.4023,9.3906,9.3945,9.4258,9.4609,9.5703,9.6445,9.6758,9.8125,9.9336,10.0039,10.0664,10.0508,10.0156,9.9961,9.9922,9.9844,10.0117,10.0117,10.0,9.9414,9.9101,9.875,9.8086,9.7344,9.664,9.6289,9.6015,9.5469,9.5664,9.5429,9.4258,9.3906,9.3437,9.289,9.2578,9.2578,9.2578,9.2578,9.2578,9.2578,9.2578,9.2578,9.2578,9.2578,9.2578,9.2656,9.2734,9.2812,9.2773,9.2617,9.3047,9.3437,9.3203,9.3164,9.4219,9.5028,9.5084,9.53,9.5769,9.6347,9.6816,9.7479,9.7714,9.8299,9.8494,9.8846,9.9197,9.99,10.0876,10.1305,10.1852,10.275,10.314,10.2984,10.2828,10.2828,10.2945,10.3179,10.3062,10.2633,10.2633,10.2711,10.2672,10.2437,9.2578,9.2578,9.2578,9.2578,9.2578,9.2578,9.2578,9.2422,9.1679,9.1015,9.0429,8.9297,8.8945,8.9492,9.0195,9.1015,9.1719,9.1953,9.2187,9.2539,9.2578,9.2578,9.2578,9.2578,9.2578,9.2695,9.289,9.2969,9.2929,9.332,9.3711,9.3203,9.3164,9.3242,9.4062,9.5117,9.5625,9.6367,9.7773,9.9375,10.0039,10.0195,10.0,9.9609,9.9609,9.9609,9.9687,10.0117,9.9961,9.9687,9.9101,9.8711,9.8359,9.7851,9.7344,9.6601,9.6484,9.6054,9.5429,9.5586,9.5,9.4336,9.3828,9.3515,9.2851,9.2578,9.2578,9.2578,9.2578,9.2578,9.2578,9.2578,9.2578,9.2578,9.2578,9.2656,9.2656,9.2617,9.2617,9.2617,9.2617,9.2969,9.3242,9.3047,9.2851,9.332,9.3979,9.4161,9.4532,9.5073,9.573,9.6425,9.7206,9.787,9.8651,9.9197,9.9588,9.99,9.9939,10.0798,10.1305,10.1969,10.2828,10.3179,10.2945,10.2867,10.2906,10.2945,10.314,10.314,10.3101,10.3023,10.2906,10.2828,10.2633,9.2578,9.2578,9.2578,9.2578,9.2578,9.2578,9.2578,9.25,9.1679,9.0937,9.0234,8.9492,8.9062,8.9258,9.0039,9.1015,9.1679,9.1601,9.1992,9.2422,9.2578,9.2578,9.2578,9.2578,9.2578,9.2578,9.2656,9.2656,9.2812,9.3125,9.3164,9.2617,9.2734,9.2695,9.3086,9.4414,9.5586,9.6797,9.8164,9.9258,9.9765,9.9609,9.9336,9.9179,9.9179,9.9219,9.914,9.9531,9.9531,9.8828,9.8633,9.8281,9.7851,9.7734,9.7109,9.6367,9.6015,9.5469,9.4922,9.4765,9.4609,9.414,9.3594,9.3203,9.2773,9.2578,9.2578,9.2578,9.2578,9.2578,9.2578,9.2578,9.2578,9.2578,9.2578,9.2695,9.2812,9.2773,9.2851,9.3047,9.2969,9.2578,9.2773,9.2695,9.2617,9.2656,9.2887,9.3267,9.384,9.4565,9.5105,9.584,9.7089,9.7831,9.8494,9.9275,9.99,10.0642,10.072,10.1071,10.1813,10.2203,10.2828,10.2945,10.3062,10.3804,10.4389,10.3726,10.3062,10.3062,10.3062,10.3023,10.2945,10.2867,10.3023,9.2578,9.2578,9.2578,9.2578,9.2578,9.2578,9.2578,9.2422,9.164,9.1211,9.0859,9.0312,8.9922,9.0117,9.082,9.164,9.2461,9.25,9.2461,9.25,9.2578,9.25,9.2539,9.2578,9.2578,9.2578,9.2578,9.2578,9.2617,9.2734,9.2734,9.2578,9.2578,9.2578,9.3125,9.4297,9.625,9.75,9.8672,9.8789,9.9258,9.9414,9.9531,9.9219,9.9609,9.9844,9.9062,9.9062,9.8828,9.8008,9.7969,9.7969,9.7734,9.7695,9.7031,9.5898,9.5508,9.4726,9.3867,9.4101,9.4531,9.3945,9.3281,9.2812,9.2617,9.2578,9.2578,9.2578,9.2578,9.2578,9.2578,9.2578,9.2578,9.2578,9.2656,9.2812,9.2929,9.2929,9.3086,9.3476,9.3476,9.3242,9.2929,9.2969,9.2695,9.2695,9.2885,9.3263,9.3679,9.4285,9.4598,9.5371,9.6816,9.7675,9.8174,9.9111,10.0681,10.1461,10.1696,10.2086,10.2672,10.2945,10.2906,10.3648,10.4038,10.4975,10.5443,10.4311,10.3491,10.3218,10.314,10.3296,10.3296,10.3218,10.353,9.2578,9.2578,9.2578,9.2578,9.2578,9.2578,9.2304,9.1797,9.1445,9.0976,9.0586,9.0703,9.082,9.1015,9.1679,9.2265,9.25,9.1992,9.2187,9.2226,9.2148,9.2148,9.2344,9.2578,9.2578,9.2578,9.2578,9.2578,9.2578,9.2578,9.2578,9.2578,9.2578,9.2578,9.3164,9.4414,9.6289,9.7617,9.8242,9.8203,9.8281,9.8437,9.8515,9.832,9.8398,9.8554,9.8242,9.8203,9.7969,9.7773,9.7656,9.7578,9.7539,9.7539,9.6719,9.539,9.5117,9.4219,9.3008,9.3242,9.3398,9.3242,9.2773,9.2617,9.2656,9.2617,9.2617,9.2578,9.2656,9.2695,9.2578,9.2578,9.2578,9.2578,9.2695,9.2851,9.3086,9.3164,9.3281,9.3633,9.4062,9.4219,9.3828,9.3476,9.3086,9.2755,9.299,9.3298,9.379,9.4317,9.4747,9.541,9.6894,9.8221,9.8768,10.0134,10.1618,10.2125,10.2554,10.2789,10.3023,10.2906,10.3023,10.3921,10.4428,10.4584,10.4545,10.4272,10.4038,10.3921,10.3843,10.3843,10.3726,10.353,10.4077,9.2578,9.2578,9.2578,9.2578,9.2578,9.2578,9.2265,9.1758,9.1719,9.1211,9.0469,9.125,9.1523,9.1601,9.2187,9.2539,9.2461,9.2148,9.2226,9.2226,9.2187,9.207,9.2356,9.25,9.2461,9.25,9.2539,9.2539,9.2539,9.2578,9.2578,9.2578,9.2617,9.2695,9.3437,9.4687,9.6289,9.7344,9.7695,9.7695,9.7734,9.7773,9.7773,9.7773,9.7851,9.7851,9.7812,9.7812,9.7617,9.7383,9.7226,9.7148,9.7031,9.6758,9.6172,9.5351,9.4687,9.4062,9.3047,9.2617,9.2617,9.2695,9.2656,9.2734,9.289,9.2969,9.3125,9.3086,9.3008,9.289,9.2773,9.2578,9.289,9.2969,9.2656,9.2773,9.3359,9.3594,9.3633,9.3789,9.414,9.4336,9.4179,9.3672,9.3281,9.3047,9.3293,9.3679,9.4253,9.4747,9.5254,9.6074,9.7174,9.8455,9.9666,10.0642,10.1618,10.2359,10.2711,10.2945,10.3062,10.2906,10.3101,10.3882,10.4155,10.3882,10.4116,10.4584,10.4702,10.4741,10.4467,10.4077,10.4038,10.3921,10.4702,9.2578,9.2578,9.2578,9.2578,9.2578,9.2578,9.2539,9.2304,9.2304,9.1953,9.1406,9.2109,9.207,9.1719,9.2344,9.2578,9.2539,9.2422,9.2461,9.2461,9.2226,9.2383,9.2455,9.2422,9.2344,9.2226,9.2265,9.2383,9.2422,9.2461,9.25,9.289,9.3125,9.332,9.4023,9.5547,9.6836,9.7539,9.7617,9.7695,9.7695,9.7695,9.7695,9.7695,9.7695,9.7695,9.7695,9.75,9.7226,9.6875,9.6562,9.625,9.5742,9.5781,9.5195,9.4258,9.414,9.3633,9.2734,9.2617,9.2578,9.2656,9.2695,9.3047,9.3633,9.3828,9.3867,9.3867,9.3867,9.3476,9.3086,9.2812,9.332,9.3476,9.3203,9.3086,9.3672,9.4062,9.414,9.4336,9.414,9.4023,9.4023,9.3867,9.3476,9.3359,9.3594,9.4096,9.4754,9.5254,9.5801,9.6503,9.7518,9.8494,9.9666,10.0681,10.1578,10.2359,10.2867,10.3062,10.3101,10.2984,10.3335,10.396,10.4038,10.3921,10.4545,10.5248,10.4936,10.4545,10.435,10.4077,10.4116,10.4428,10.5209,9.2578,9.2578,9.2578,9.2578,9.2578,9.2578,9.2304,9.1797,9.1758,9.1875,9.2187,9.2539,9.25,9.2344,9.2344,9.2578,9.25,9.1875,9.1875,9.25,9.2109,9.2148,9.2249,9.2321,9.2265,9.2151,9.2169,9.2187,9.2187,9.2265,9.2773,9.3281,9.4062,9.4609,9.4414,9.5117,9.6015,9.6836,9.7344,9.7695,9.7695,9.7695,9.7695,9.7695,9.7656,9.7617,9.7539,9.7226,9.6719,9.6367,9.6094,9.5547,9.5351,9.5469,9.5273,9.4453,9.4258,9.4062,9.3086,9.2578,9.2578,9.2734,9.3125,9.3476,9.3906,9.4492,9.4648,9.4765,9.4765,9.4492,9.4414,9.4336,9.4648,9.4648,9.4414,9.4101,9.4297,9.457,9.4765,9.5078,9.5078,9.5351,9.5469,9.4804,9.4297,9.4219,9.4492,9.5039,9.5675,9.6003,9.6425,9.7011,9.7792,9.869,9.9666,10.072,10.1696,10.2515,10.2945,10.314,10.3101,10.3062,10.3413,10.396,10.3999,10.4077,10.4194,10.4311,10.4389,10.4194,10.4116,10.4428,10.4741,10.5131,10.5795,9.2578,9.2578,9.2578,9.2578,9.2578,9.2578,9.2265,9.1797,9.1758,9.2109,9.25,9.2578,9.2578,9.2578,9.2578,9.2539,9.2461,9.2031,9.1719,9.235,9.1914,9.1956,9.2134,9.2218,9.2109,9.2025,9.203,9.2031,9.2031,9.2109,9.2422,9.332,9.4961,9.4687,9.4609,9.5234,9.6289,9.6914,9.7226,9.7695,9.7695,9.7695,9.7695,9.7617,9.7461,9.7226,9.7031,9.6601,9.6054,9.5859,9.5547,9.5156,9.5351,9.5234,9.5234,9.4726,9.4648,9.4258,9.3086,9.3047,9.2969,9.2656,9.3437,9.414,9.4648,9.539,9.5586,9.5664,9.5664,9.5429,9.5312,9.5351,9.5429,9.5429,9.5273,9.4922,9.5078,9.5351,9.5117,9.5469,9.5976,9.6406,9.6719,9.6015,9.5312,9.5351,9.5429,9.6015,9.6622,9.707,9.744,9.8026,9.8729,9.9705,10.0329,10.0759,10.1735,10.2633,10.2945,10.3101,10.3296,10.3257,10.3608,10.3882,10.396,10.3843,10.3296,10.3218,10.3648,10.396,10.4116,10.4584,10.5287,10.5834,10.6302,9.2578,9.2578,9.2578,9.2578,9.2578,9.2461,9.2461,9.2539,9.25,9.25,9.2578,9.2461,9.2422,9.2539,9.2578,9.2461,9.2383,9.2265,9.2226,9.2166,9.1983,9.2003,9.1965,9.1948,9.1909,9.1832,9.1821,9.1914,9.1914,9.2503,9.2596,9.2743,9.4624,9.4609,9.4922,9.5664,9.6562,9.6601,9.6953,9.7226,9.7148,9.7265,9.7187,9.7031,9.6758,9.6484,9.6172,9.5664,9.5273,9.5078,9.5,9.5039,9.4844,9.4336,9.4609,9.4922,9.5156,9.4062,9.3281,9.3476,9.3554,9.3281,9.3672,9.4844,9.5703,9.6172,9.6484,9.6523,9.6484,9.6015,9.5703,9.582,9.5898,9.5898,9.5859,9.5859,9.6054,9.5937,9.5508,9.5742,9.6289,9.6758,9.7148,9.6758,9.6054,9.6367,9.6445,9.6797,9.7485,9.8548,9.8963,9.9431,10.0134,10.0915,10.1305,10.1227,10.1735,10.2633,10.2789,10.2984,10.3179,10.353,10.3804,10.3999,10.396,10.3765,10.3452,10.3257,10.3257,10.3608,10.4155,10.5209,10.6068,10.6224,10.6693,9.2227,9.2266,9.2227,9.234,9.2338,9.1782,9.188,9.2365,9.1841,9.1756,9.2226,9.1624,9.1858,9.2187,9.2226,9.2226,9.2187,9.2187,9.2148,9.2108,9.2064,9.1986,9.1948,9.187,9.1832,9.1754,9.1754,9.1793,9.2092,9.2827,9.2827,9.2535,9.4931,9.503,9.5,9.5781,9.5898,9.6015,9.6445,9.6445,9.6211,9.6133,9.6133,9.5976,9.582,9.5586,9.5351,9.4726,9.4375,9.4336,9.3711,9.3594,9.4219,9.4062,9.4258,9.4961,9.4687,9.3984,9.3672,9.3789,9.3984,9.4258,9.4648,9.4844,9.5742,9.6562,9.7187,9.7187,9.7148,9.6758,9.6601,9.6679,9.6719,9.6719,9.664,9.6679,9.6758,9.6484,9.6094,9.6289,9.6836,9.7109,9.75,9.7109,9.6601,9.7109,9.7461,9.7656,9.8074,9.9061,10.0017,10.0446,10.0759,10.1266,10.15,10.15,10.2047,10.2554,10.2711,10.3023,10.3569,10.3882,10.4038,10.4038,10.3882,10.3882,10.3843,10.3608,10.314,10.3921,10.4584,10.5756,10.6693,10.6849,10.7161,9.2093,9.2113,9.2113,9.2171,9.2126,9.1394,9.1473,9.1976,9.1357,9.1413,9.2027,9.1659,9.1637,9.2042,9.2109,9.2109,9.2031,9.2014,9.2003,9.1926,9.1948,9.187,9.1832,9.1832,9.1754,9.1716,9.1716,9.1754,9.2102,9.2827,9.3059,9.2257,9.5332,9.5185,9.4804,9.5312,9.5625,9.5429,9.5351,9.5508,9.5351,9.5117,9.5195,9.5078,9.4961,9.4726,9.4648,9.3906,9.3633,9.3828,9.3242,9.3554,9.4375,9.4726,9.4375,9.5078,9.5547,9.5039,9.4726,9.4844,9.5039,9.5234,9.5508,9.5742,9.6133,9.6875,9.7344,9.7578,9.7617,9.7617,9.7656,9.7656,9.7656,9.7617,9.7539,9.7422,9.7265,9.7031,9.6992,9.7031,9.7265,9.7539,9.75,9.7109,9.7031,9.7383,9.7695,9.7929,9.8273,9.8917,10.0024,10.0876,10.1032,10.1266,10.1539,10.1891,10.2281,10.2633,10.2711,10.314,10.3804,10.4116,10.4116,10.3921,10.3726,10.3687,10.3608,10.3296,10.3062,10.3843,10.4545,10.5404,10.638,10.7239,10.7708,9.2053,9.2053,9.2064,9.2034,9.1949,9.1234,9.129,9.1771,9.1135,9.1307,9.1928,9.1926,9.1863,9.1975,9.2014,9.199,9.1936,9.1848,9.1832,9.1716,9.1754,9.1754,9.1754,9.1716,9.1716,9.1716,9.1716,9.1716,9.1948,9.2595,9.2837,9.1958,9.4491,9.4979,9.41,9.506,9.5195,9.4531,9.4492,9.4648,9.4765,9.4883,9.5,9.4883,9.4375,9.3867,9.3828,9.3476,9.3008,9.3594,9.3867,9.4062,9.457,9.5312,9.4883,9.5,9.5703,9.5742,9.5469,9.5625,9.5703,9.5859,9.6015,9.6367,9.6797,9.7187,9.7578,9.7695,9.7695,9.7695,9.7695,9.7695,9.7695,9.7695,9.7617,9.7578,9.75,9.7344,9.7383,9.7422,9.7461,9.7695,9.7656,9.7344,9.7304,9.7578,9.7773,9.8047,9.832,9.8711,9.9842,10.1,10.1266,10.1461,10.2125,10.2476,10.2593,10.2789,10.2789,10.3218,10.3882,10.4077,10.4116,10.3882,10.3687,10.3335,10.314,10.2945,10.2984,10.3491,10.4194,10.4897,10.5834,10.6771,10.7434,9.1793,9.1793,9.1909,9.1902,9.17,9.105,9.1135,9.1638,9.0865,9.1019,9.1589,9.1241,9.1251,9.1793,9.1832,9.1793,9.1793,9.1754,9.1716,9.1716,9.1716,9.1716,9.1716,9.1716,9.1716,9.1716,9.1716,9.1716,9.187,9.2373,9.2672,9.2141,9.4032,9.4357,9.3568,9.457,9.4375,9.3906,9.3554,9.3594,9.3633,9.3476,9.3398,9.3711,9.3554,9.3906,9.3828,9.3476,9.3398,9.3672,9.3164,9.3086,9.3203,9.4101,9.4297,9.4258,9.5234,9.5586,9.582,9.6094,9.6367,9.6328,9.6484,9.6875,9.7226,9.7539,9.7656,9.7656,9.7695,9.7695,9.7695,9.7695,9.7695,9.7695,9.7695,9.7695,9.7695,9.7695,9.7695,9.7695,9.7695,9.7695,9.7695,9.7695,9.7695,9.7695,9.7695,9.7812,9.789,9.8281,9.9531,10.0629,10.1266,10.1696,10.232,10.2593,10.2515,10.2672,10.2711,10.3257,10.3921,10.4038,10.4077,10.3843,10.3608,10.3218,10.2945,10.2867,10.3023,10.3335,10.3608,10.4233,10.4623,10.5404,10.6185,9.1716,9.1638,9.0953,9.0865,9.0942,9.0334,9.045,9.1019,9.1019,9.1251,9.1638,9.1251,9.1251,9.1677,9.1716,9.1716,9.1716,9.1716,9.1716,9.1716,9.1716,9.1716,9.1716,9.1716,9.1716,9.1716,9.1716,9.1754,9.1832,9.1986,9.2141,9.2069,9.3302,9.3803,9.3221,9.3476,9.3867,9.3867,9.3008,9.2851,9.2929,9.2929,9.3086,9.3398,9.375,9.4062,9.4219,9.3906,9.3672,9.3554,9.3086,9.2734,9.2929,9.3594,9.3906,9.4297,9.5,9.5781,9.5976,9.6328,9.6836,9.6836,9.6562,9.6797,9.6679,9.6914,9.7109,9.7148,9.7617,9.7695,9.7695,9.7695,9.7695,9.7695,9.7695,9.7695,9.7695,9.7695,9.7695,9.7695,9.7695,9.7695,9.7695,9.7695,9.7695,9.7695,9.7695,9.8008,9.8008,9.7812,9.9101,9.9976,10.0461,10.0915,10.1227,10.1696,10.2125,10.232,10.2593,10.2984,10.3413,10.3843,10.3999,10.3608,10.3257,10.3023,10.2789,10.2789,10.2789,10.2984,10.3218,10.3491,10.3882,10.4233,10.4741,9.1445,9.1174,8.9831,8.9599,9.014,8.9676,8.9792,9.0489,9.129,9.1677,9.1677,9.1677,9.1716,9.1716,9.1716,9.1716,9.1716,9.1716,9.1716,9.1716,9.1716,9.1716,9.1716,9.1716,9.1716,9.1716,9.1716,9.1716,9.1716,9.187,9.1926,9.1951,9.2354,9.2834,9.2655,9.3008,9.3594,9.3398,9.3086,9.3164,9.3164,9.3164,9.3398,9.3711,9.4023,9.4453,9.4765,9.4531,9.4023,9.3554,9.3086,9.2734,9.2734,9.3203,9.3398,9.3867,9.4765,9.5586,9.6133,9.6523,9.6992,9.7187,9.6719,9.6328,9.6172,9.6172,9.6367,9.6679,9.7148,9.7578,9.7578,9.7695,9.7695,9.7695,9.7695,9.7695,9.7695,9.7695,9.7695,9.7695,9.7695,9.7695,9.7695,9.7695,9.7695,9.7695,9.7851,9.8242,9.8398,9.8047,9.8437,9.8887,9.9218,9.9634,10.029,10.0993,10.1657,10.2047,10.232,10.2593,10.2906,10.3335,10.3452,10.3101,10.2828,10.2789,10.2789,10.2789,10.2789,10.2906,10.2945,10.3218,10.353,10.3804,10.3491,9.0256,8.9665,8.9328,8.9328,8.9511,8.9936,9.0246,9.0527,9.1329,9.1716,9.1716,9.1716,9.1716,9.1716,9.1716,9.1716,9.1716,9.1716,9.1716,9.1716,9.1716,9.1716,9.1716,9.1716,9.1716,9.1716,9.1716,9.1716,9.1716,9.1716,9.1754,9.1914,9.1914,9.2254,9.2492,9.2773,9.289,9.289,9.3008,9.3008,9.3398,9.3476,9.375,9.4023,9.4258,9.5039,9.539,9.4648,9.414,9.3633,9.3125,9.2734,9.2695,9.2851,9.2969,9.3281,9.4219,9.4844,9.5429,9.5976,9.6406,9.6797,9.625,9.5625,9.5469,9.5273,9.5469,9.5625,9.6211,9.7031,9.7226,9.7578,9.7695,9.7695,9.7695,9.7695,9.7695,9.7695,9.7695,9.7695,9.7695,9.7695,9.7695,9.7695,9.7695,9.7695,9.7695,9.8008,9.8047,9.7929,9.789,9.8035,9.8247,9.9094,10.0017,10.0642,10.1266,10.1696,10.2164,10.2554,10.2828,10.2828,10.2828,10.2789,10.2789,10.2789,10.2789,10.2789,10.3062,10.3179,10.2945,10.3023,10.3335,10.3413,10.3179]},{"header":{"parameterUnit":"m.s-1","parameterCategory":1,"la1":31.0,"la2":29.5877,"lo1":-88.7671,"lo2":-86.6584,"dy":0.0162,"dx":0.0185,"nx":115,"ny":88,"refTime":"2025-12-05T12:00:00:Z","depth":0,"parameterNumber":3,"parameterNumberName":"V-component_of_WINDS"},"data":[0.0,0.0,0.0,0.0,0.0,0.0,0.0,0.0,0.0,0.0,0.0,0.0,0.0,0.0,0.0,0.0,0.0,0.0,0.0,0.0,0.0,0.0,0.0,0.0,0.0,0.0,0.0,0.0,0.0,0.0,0.0,0.0,0.0,0.0,0.0,0.0,0.0,0.0,0.0,0.0,0.0,0.0,0.0,0.0,0.0,0.0,0.0,0.0,0.0,0.0,0.0,0.0,0.0,0.0,0.0,0.0,0.0,0.0,0.0,0.0,0.0,0.0,0.0,0.0,0.0,0.0,0.0,0.0,0.0,0.0,0.0,0.0,0.0,0.0,0.0,0.0,0.0,0.0,0.0,0.0,0.0,0.0,0.0,0.0,0.0,0.0,0.0,0.0,0.0,0.0,0.0,0.0,0.0,0.0,0.0,0.0,0.0,0.0,0.0,0.0,0.0,0.0,0.0,0.0,0.0,0.0,0.0,0.0,0.0,0.0,0.0,0.0,0.0,0.0,0.0,0.0,0.0,0.0,0.0,0.0,0.0,0.0,0.0,0.0,0.0,0.0,0.0,0.0,0.0,0.0,0.0,0.0,0.0,0.0,0.0,0.0,0.0,0.0,0.0,0.0,0.0,0.0,0.0,0.0,0.0,0.0,0.0,0.0,0.0,0.0,0.0,0.0,0.0,0.0,0.0,0.0,0.0,0.0,0.0,0.0,0.0,0.0,0.0,0.0,0.0,0.0,0.0,0.0,0.0,0.0,0.0,0.0,0.0,0.0,0.0,0.0,0.0,0.0,0.0,0.0,0.0,0.0,0.0,0.0,0.0,0.0,0.0,0.0,0.0,0.0,0.0,0.0,0.0,0.0,0.0,0.0,0.0,0.0,0.0,0.0,0.0,0.0,0.0,0.0,0.0,0.0,0.0,0.0,0.0,0.0,0.0,0.0,0.0,0.0,0.0,0.0,0.0,0.0,0.0,0.0,0.0,0.0,0.0,0.0,0.0,0.0,0.0,0.0,0.0,0.0,0.0,0.0,0.0,0.0,0.0,0.0,0.0,0.0,0.0,0.0,0.0,0.0,0.0,0.0,0.0,0.0,0.0,0.0,0.0,0.0,0.0,0.0,0.0,0.0,0.0,0.0,0.0,0.0,0.0,0.0,0.0,0.0,0.0,0.0,0.0,0.0,0.0,0.0,0.0,0.0,0.0,0.0,0.0,0.0,0.0,0.0,0.0,0.0,0.0,0.0,0.0,0.0,0.0,0.0,0.0,0.0,0.0,0.0,0.0,0.0,0.0,0.0,0.0,0.0,0.0,0.0,0.0,0.0,0.0,0.0,0.0,0.0,0.0,0.0,0.0,0.0,0.0,0.0,0.0,0.0,0.0,0.0,0.0,0.0,0.0,0.0,0.0,0.0,0.0,0.0,0.0,0.0,0.0,0.0,0.0,0.0,0.0,0.0,0.0,0.0,0.0,0.0,0.0,0.0,0.0,0.0,0.0,0.0,0.0,0.0,0.0,0.0,0.0,0.0,0.0,0.0,0.0,0.0,0.0,0.0,0.0,0.0,0.0,0.0,0.0,0.0,0.0,0.0,0.0,0.0,0.0,0.0,0.0,0.0,0.0,0.0,0.0,0.0,0.0,0.0,0.0,0.0,0.0,0.0,0.0,0.0,0.0,0.0,0.0,0.0,0.0,0.0,0.0,0.0,0.0,0.0,0.0,0.0,0.0,0.0,0.0,0.0,0.0,0.0,0.0,0.0,0.0,0.0,0.0,0.0,0.0,0.0,0.0,0.0,0.0,0.0,0.0,0.0,0.0,0.0,0.0,0.0,0.0,0.0,0.0,0.0,0.0,0.0,0.0,0.0,0.0,0.0,0.0,0.0,0.0,0.0,0.0,0.0,0.0,0.0,0.0,0.0,0.0,0.0,0.0,0.0,0.0,0.0,0.0,0.0,0.0,0.0,0.0,0.0,0.0,0.0,0.0,0.0,0.0,0.0,0.0,0.0,0.0,0.0,0.0,0.0,0.0,0.0,0.0,0.0,0.0,0.0,0.0,0.0,0.0,0.0,0.0,0.0,0.0,0.0,0.0,0.0,0.0,0.0,0.0,0.0,0.0,0.0,0.0,0.0,0.0,0.0,0.0,0.0,0.0,0.0,0.0,0.0,0.0,0.0,0.0,0.0,0.0,0.0,0.0,0.0,0.0,0.0,0.0,0.0,0.0,0.0,0.0,0.0,0.0,0.0,0.0,0.0,0.0,0.0,0.0,0.0,0.0,0.0,0.0,0.0,0.0,0.0,0.0,0.0,0.0,0.0,0.0,0.0,0.0,0.0,0.0,0.0,0.0,0.0,0.0,0.0,0.0,0.0,0.0,0.0,0.0,0.0,0.0,0.0,0.0,0.0,0.0,0.0,0.0,0.0,0.0,0.0,0.0,0.0,0.0,0.0,0.0,0.0,0.0,0.0,0.0,0.0,0.0,0.0,0.0,0.0,0.0,0.0,0.0,0.0,0.0,0.0,0.0,0.0,0.0,0.0,0.0,0.0,0.0,0.0,0.0,0.0,0.0,0.0,0.0,0.0,0.0,0.0,0.0,0.0,0.0,0.0,0.0,0.0,0.0,0.0,0.0,0.0,0.0,0.0,0.0,0.0,0.0,0.0,0.0,0.0,0.0,0.0,0.0,0.0,0.0,0.0,0.0,0.0,0.0,0.0,0.0,0.0,0.0,0.0,0.0,0.0,0.0,0.0,0.0,0.0,0.0,0.0,0.0,0.0,0.0,0.0,0.0,0.0,0.0,0.0,0.0,0.0,0.0,0.0,0.0,0.0,0.0,0.0,0.0,0.0,0.0,0.0,0.0,0.0,0.0,0.0,0.0,0.0,0.0,0.0,0.0,0.0,0.0,0.0,0.0,0.0,0.0,0.0,0.0,0.0,0.0,0.0,0.0,0.0,0.0,0.0,0.0,0.0,0.0,0.0,0.0,0.0,0.0,0.0,0.0,0.0,0.0,0.0,0.0,0.0,0.0,0.0,0.0,0.0,0.0,0.0,0.0,0.0,0.0,0.0,0.0,0.0,0.0,0.0,0.0,0.0,0.0,0.0,0.0,0.0,0.0,0.0,0.0,0.0,0.0,0.0,0.0,0.0,0.0,0.0,0.0,0.0,0.0,0.0,0.0,0.0,0.0,0.0,0.0,0.0,0.0,0.0,0.0,0.0,0.0,0.0,0.0,0.0,0.0,0.0,0.0,0.0,0.0,0.0,0.0,0.0,0.0,0.0,0.0,0.0,0.0,0.0,0.0,0.0,0.0,0.0,0.0,0.0,0.0,0.0,0.0,0.0,0.0,0.0,0.0,0.0,0.0,0.0,0.0,0.0,0.0,0.0,0.0,0.0,0.0,0.0,0.0,0.0,0.0,0.0,0.0,0.0,0.0,0.0,0.0,0.0,0.0,0.0,0.0,0.0,0.0,0.0,0.0,0.0,0.0,0.0,0.0,0.0,0.0,0.0,0.0,0.0,0.0,0.0,0.0,0.0,0.0,0.0,0.0,0.0,0.0,0.0,0.0,0.0,0.0,0.0,0.0,0.0,0.0,0.0,0.0,0.0,0.0,0.0,0.0,0.0,0.0,0.0,0.0,0.0,0.0,0.0,0.0,0.0,0.0,0.0,0.0,0.0,0.0,0.0,0.0,0.0,0.0,0.0,0.0,0.0,0.0,0.0,0.0,0.0,0.0,0.0,0.0,0.0,0.0,0.0,0.0,0.0,0.0,0.0,0.0,0.0,0.0,0.0,0.0,0.0,0.0,0.0,0.0,0.0,0.0,0.0,0.0,0.0,0.0,0.0,0.0,0.0,0.0,0.0,0.0,0.0,0.0,0.0,0.0,0.0,0.0,0.0,0.0,0.0,0.0,0.0,0.0,0.0,0.0,0.0,0.0,0.0,0.0,0.0,0.0,0.0,0.0,0.0,0.0,0.0,0.0,0.0,0.0,0.0,0.0,0.0,0.0,0.0,0.0,0.0,0.0,0.0,0.0,0.0,0.0,0.0,0.0,0.0,0.0,0.0,0.0,0.0,0.0,0.0,0.0,0.0,0.0,0.0,0.0,0.0,0.0,0.0,0.0,0.0,0.0,0.0,0.0,0.0,0.0,0.0,0.0,0.0,0.0,0.0,0.0,0.0,0.0,0.0,0.0,0.0,0.0,0.0,0.0,0.0,0.0,0.0,0.0,0.0,0.0,0.0,0.0,0.0,0.0,0.0,0.0,0.0,0.0,0.0,-0.2841,0.0,0.0,0.0,0.0,0.0,0.0,0.0,0.0,0.0,0.0,0.0,0.0,0.0,0.0,0.0,0.0,0.0,0.0,0.0,0.0,0.0,0.0,0.0,0.0,0.0,0.0,0.0,0.0,0.0,0.0,0.0,0.0,0.0,0.0,0.0,0.0,0.0,0.0,0.0,0.0,0.0,0.0,0.0,0.0,0.0,0.0,0.0,0.0,0.0,0.0,0.0,0.0,0.0,0.0,0.0,0.0,0.0,0.0,0.0,0.0,0.0,0.0,0.0,0.0,0.0,0.0,0.0,0.0,0.0,0.0,0.0,0.0,0.0,0.0,0.0,0.0,0.0,0.0,0.0,0.0,0.0,0.0,0.0,0.0,0.0,0.0,0.0,0.0,0.0,0.0,0.0,0.0,0.0,0.0,0.0,0.0,0.0,0.0,0.0,0.0,0.0,0.0,0.0,0.0,0.0,0.0,0.0,0.0,0.0,0.0,-0.2022,-0.2227,-0.2019,-0.2148,-0.2472,0.0,0.0,0.0,0.0,0.0,0.0,0.0,0.0,0.0,0.0,0.0,0.0,0.0,0.0,0.0,0.0,0.0,0.0,0.0,0.0,0.0,0.0,0.0,0.0,0.0,0.0,0.0,0.0,0.0,0.0,0.0,0.0,0.0,0.0,0.0,0.0,0.0,0.0,0.0,0.0,0.0,0.0,0.0,0.0,0.0,0.0,0.0,0.0,0.0,0.0,0.0,0.0,0.0,0.0,0.0,0.0,0.0,0.0,0.0,0.0,0.0,0.0,0.0,0.0,0.0,0.0,0.0,0.0,0.0,0.0,0.0,0.0,0.0,0.0,0.0,0.0,0.0,0.0,0.0,0.0,0.0,0.0,0.0,0.0,0.0,0.0,0.0,0.0,0.0,0.0,0.0,0.0,0.0,0.0,0.0,0.0,0.0,0.0,0.0,0.0,0.0,0.0,0.0,0.0,0.0,0.0,0.0,0.0,0.0,0.0,0.0,0.0,-0.2034,-0.2029,-0.1979,0.0,0.0,0.0,0.0,0.0,0.0,0.0,0.0,0.0,0.0,0.0,0.0,0.0,0.0,0.0,0.0,0.0,0.0,0.0,0.0,0.0,0.0,0.0,0.0,0.0,0.0,0.0,0.0,0.0,0.0,0.0,0.0,0.0,0.0,0.0,0.0,0.0,0.0,0.0,0.0,0.0,0.0,0.0,0.0,0.0,0.0,0.0,0.0,0.0,0.0,0.0,0.0,0.0,0.0,0.0,0.0,0.0,0.0,0.0,0.0,0.0,0.0,0.0,0.0,0.0,0.0,0.0,0.0,0.0,0.0,0.0,0.0,0.0,0.0,0.0,0.0,0.0,0.0,0.0,0.0,0.0,0.0,0.0,0.0,0.0,0.0,0.0,0.0,0.0,0.0,0.0,0.0,0.0,0.0,0.0,0.0,0.0,0.0,0.0,0.0,0.0,0.0,0.0,0.0,0.0,0.0,0.0,0.0,0.0,0.0,-0.2061,-0.2184,-0.2034,0.0,-0.1978,0.0,0.0,0.0,0.0,0.0,0.0,0.0,0.0,0.0,0.0,0.0,0.0,0.0,0.0,0.0,0.0,0.0,0.0,0.0,0.0,0.0,0.0,0.0,0.0,0.0,0.0,0.0,0.0,0.0,0.0,0.0,0.0,0.0,0.0,0.0,0.0,0.0,0.0,0.0,0.0,0.0,0.0,0.0,0.0,0.0,0.0,0.0,0.0,0.0,0.0,0.0,0.0,0.0,0.0,0.0,0.0,0.0,0.0,0.0,0.0,0.0,0.0,0.0,0.0,0.0,0.0,0.0,0.0,0.0,0.0,0.0,0.0,0.0,0.0,0.0,0.0,0.0,0.0,0.0,0.0,0.0,0.0,0.0,0.0,0.0,0.0,0.0,0.0,0.0,0.0,0.0,0.0,0.0,0.0,0.0,0.0,0.0,0.0,0.0,0.0,0.0,0.0,0.0,0.0,0.0,0.0,0.0,0.0,0.0,0.0,0.0,-0.2064,-0.2052,-0.2149,0.0,0.0,0.0,0.0,0.0,0.0,0.0,0.0,0.0,0.0,0.0,0.0,0.0,0.0,0.0,0.0,0.0,0.0,0.0,0.0,0.0,0.0,0.0,0.0,0.0,0.0,0.0,0.0,0.0,0.0,0.0,0.0,0.0,0.0,0.0,0.0,0.0,0.0,0.0,0.0,0.0,0.0,0.0,0.0,0.0,0.0,0.0,0.0,0.0,0.0,0.0,0.0,0.0,0.0,0.0,0.0,0.0,0.0,0.0,0.0,0.0,0.0,0.0,0.0,0.0,0.0,0.0,0.0,0.0,0.0,0.0,0.0,0.0,0.0,0.0,0.0,0.0,0.0,0.0,0.0,0.0,0.0,0.0,0.0,0.0,0.0,0.0,0.0,0.0,0.0,0.0,0.0,0.0,0.0,0.0,0.0,0.0,0.0,0.0,0.0,0.0,0.0,0.0,0.0,0.0,0.0,0.0,0.0,0.0,0.0,-0.2235,0.0,-0.2065,-0.2064,-0.2299,-0.2626,0.0,0.0,0.0,0.0,0.0,0.0,0.0,0.0,0.0,0.0,0.0,0.0,0.0,0.0,0.0,0.0,0.0,0.0,0.0,0.0,0.0,0.0,0.0,0.0,0.0,0.0,0.0,0.0,0.0,0.0,0.0,0.0,0.0,0.0,0.0,0.0,0.0,0.0,0.0,0.0,0.0,0.0,0.0,0.0,0.0,0.0,0.0,0.0,0.0,0.0,0.0,0.0,0.0,0.0,0.0,0.0,0.0,0.0,0.0,0.0,0.0,0.0,0.0,0.0,0.0,0.0,0.0,0.0,0.0,0.0,0.0,0.0,0.0,0.0,0.0,0.0,0.0,0.0,0.0,0.0,0.0,0.0,0.0,0.0,0.0,0.0,0.0,0.0,0.0,0.0,0.0,0.0,0.0,0.0,0.0,0.0,0.0,0.0,0.0,0.0,0.0,0.0,0.0,0.0,0.0,0.0,0.0,0.0,0.0,-0.2257,-0.2226,-0.2196,-0.2064,-0.2191,0.0,0.0,0.0,0.0,0.0,0.0,0.0,0.0,0.0,0.0,0.0,0.0,0.0,0.0,0.0,0.0,0.0,0.0,0.0,0.0,0.0,0.0,0.0,0.0,0.0,0.0,0.0,0.0,0.0,0.0,0.0,0.0,0.0,0.0,0.0,0.0,0.0,0.0,0.0,0.0,0.0,0.0,0.0,0.0,0.0,0.0,0.0,0.0,0.0,0.0,0.0,0.0,0.0,0.0,0.0,0.0,0.0,0.0,0.0,0.0,0.0,0.0,0.0,0.0,0.0,0.0,0.0,0.0,0.0,0.0,0.0,0.0,0.0,0.0,0.0,0.0,0.0,0.0,0.0,0.0,0.0,0.0,0.0,0.0,0.0,0.0,0.0,0.0,0.0,0.0,0.0,0.0,0.0,0.0,0.0,0.0,0.0,0.0,0.0,0.0,0.0,0.0,0.0,0.0,0.0,0.0,0.0,0.0,0.0,-0.2153,-0.2144,-0.2257,-0.2226,-0.2112,-0.2366,0.0,0.0,0.0,0.0,0.0,0.0,0.0,0.0,0.0,0.0,0.0,0.0,0.0,0.0,0.0,0.0,0.0,0.0,0.0,0.0,0.0,0.0,0.0,0.0,0.0,0.0,0.0,0.0,0.0,0.0,0.0,0.0,0.0,0.0,0.0,0.0,0.0,0.0,0.0,0.0,0.0,0.0,0.0,0.0,0.0,0.0,0.0,0.0,0.0,0.0,0.0,0.0,0.0,0.0,0.0,0.0,0.0,0.0,0.0,0.0,0.0,0.0,0.0,0.0,0.0,0.0,0.0,0.0,0.0,0.0,0.0,0.0,0.0,0.0,0.0,0.0,0.0,0.0,0.0,0.0,0.0,0.0,0.0,0.0,0.0,0.0,0.0,0.0,0.0,0.0,0.0,0.0,0.0,0.0,0.0,0.0,0.0,0.0,0.0,0.0,0.0,0.0,0.0,0.0,0.0,0.0,0.0,0.0,0.0,-0.2169,0.0,-0.2169,0.0,-0.2148,-0.2537,0.0,0.0,0.0,0.0,0.0,0.0,0.0,0.0,0.0,0.0,0.0,0.0,0.0,0.0,0.0,0.0,0.0,0.0,0.0,0.0,0.0,0.0,0.0,0.0,0.0,0.0,0.0,0.0,0.0,0.0,0.0,0.0,0.0,0.0,0.0,0.0,0.0,0.0,0.0,0.0,0.0,0.0,0.0,0.0,0.0,0.0,0.0,0.0,0.0,0.0,0.0,0.0,0.0,0.0,0.0,0.0,0.0,0.0,0.0,0.0,0.0,0.0,0.0,0.0,0.0,0.0,0.0,0.0,0.0,0.0,0.0,0.0,0.0,0.0,0.0,0.0,0.0,0.0,0.0,0.0,0.0,0.0,0.0,0.0,0.0,0.0,0.0,0.0,0.0,0.0,0.0,0.0,0.0,0.0,0.0,0.0,0.0,0.0,0.0,0.0,0.0,0.0,0.0,0.0,0.0,0.0,0.0,0.0,0.0,-0.22,-0.223,-0.223,-0.2202,-0.2174,-0.2561,0.0,0.0,0.0,0.0,0.0,0.0,0.0,0.0,0.0,0.0,0.0,0.0,0.0,0.0,0.0,0.0,0.0,0.0,0.0,0.0,0.0,0.0,0.0,0.0,0.0,0.0,0.0,0.0,0.0,0.0,0.0,0.0,0.0,0.0,0.0,0.0,0.0,0.0,0.0,0.0,0.0,0.0,0.0,0.0,0.0,0.0,0.0,0.0,0.0,0.0,0.0,0.0,0.0,0.0,0.0,0.0,0.0,0.0,0.0,0.0,0.0,0.0,0.0,0.0,0.0,0.0,0.0,0.0,0.0,0.0,0.0,0.0,0.0,0.0,0.0,0.0,0.0,0.0,0.0,0.0,0.0,0.0,0.0,0.0,0.0,0.0,0.0,0.0,0.0,0.0,0.0,0.0,0.0,0.0,0.0,0.0,0.0,0.0,0.0,0.0,0.0,0.0,0.0,0.0,0.0,0.0,0.0,0.0,0.0,-0.2263,-0.2271,-0.2273,-0.2263,-0.2253,-0.2506,0.0,0.0,0.0,0.0,0.0,0.0,0.0,0.0,0.0,0.0,0.0,0.0,0.0,0.0,0.0,0.0,0.0,0.0,0.0,0.0,0.0,0.0,0.0,0.0,0.0,0.0,0.0,0.0,0.0,0.0,0.0,0.0,0.0,0.0,0.0,0.0,0.0,0.0,0.0,0.0,0.0,0.0,0.0,0.0,0.0,0.0,0.0,0.0,0.0,0.0,0.0,0.0,0.0,0.0,0.0,0.0,0.0,0.0,0.0,0.0,0.0,0.0,0.0,0.0,0.0,0.0,0.0,0.0,0.0,0.0,0.0,0.0,0.0,0.0,0.0,0.0,0.0,0.0,0.0,0.0,0.0,0.0,0.0,0.0,0.0,0.0,0.0,0.0,0.0,0.0,0.0,0.0,0.0,0.0,0.0,0.0,0.0,0.0,0.0,0.0,0.0,0.0,0.0,0.0,0.0,0.0,0.0,0.0,0.0,-0.2406,-0.2386,-0.2369,-0.2357,-0.2346,-0.2449,-0.2793,0.0,0.0,0.0,0.0,0.0,0.0,0.0,0.0,0.0,0.0,0.0,0.0,0.0,0.0,0.0,0.0,0.0,0.0,0.0,0.0,0.0,0.0,0.0,0.0,0.0,0.0,0.0,0.0,0.0,0.0,0.0,0.0,0.0,0.0,0.0,0.0,0.0,0.0,0.0,0.0,0.0,0.0,0.0,0.0,0.0,0.0,0.0,0.0,0.0,0.0,0.0,0.0,0.0,0.0,0.0,0.0,0.0,0.0,0.0,0.0,0.0,0.0,0.0,0.0,0.0,0.0,0.0,0.0,0.0,0.0,0.0,0.0,0.0,0.0,0.0,0.0,0.0,0.0,0.0,0.0,0.0,0.0,0.0,0.0,0.0,0.0,0.0,0.0,0.0,0.0,0.0,0.0,0.0,0.0,0.0,0.0,0.0,0.0,0.0,0.0,0.0,0.0,0.0,0.0,0.0,0.0,0.0,0.0,-0.245,-0.2564,-0.2521,-0.2482,-0.2451,-0.224,0.0,0.0,0.0,0.0,0.0,0.0,0.0,0.0,0.0,0.0,0.0,0.0,0.0,0.0,0.0,0.0,0.0,0.0,0.0,0.0,0.0,0.0,0.0,0.0,0.0,0.0,0.0,0.0,0.0,0.0,0.0,0.0,0.0,0.0,0.0,0.0,0.0,0.0,0.0,0.0,0.0,0.0,0.0,0.0,0.0,0.0,0.0,0.0,0.0,0.0,0.0,0.0,0.0,0.0,0.0,0.0,0.0,0.0,0.0,0.0,0.0,0.0,0.0,0.0,0.0,0.0,0.0,0.0,0.0,0.0,0.0,0.0,0.0,0.0,0.0,0.0,0.0,0.0,0.0,0.0,0.0,0.0,0.0,0.0,0.0,0.0,0.0,0.0,0.0,0.0,0.0,0.0,0.0,0.0,0.0,0.0,0.0,0.0,0.0,0.0,0.0,0.0,0.0,0.0,0.0,0.0,0.0,0.0,0.0,-0.2732,-0.2959,-0.2926,-0.2803,-0.2582,-0.2347,0.0,0.0,0.0,0.0,0.0,0.0,0.0,0.0,0.0,0.0,0.0,0.0,0.0,0.0,0.0,0.0,0.0,0.0,0.0,0.0,0.0,0.0,0.0,0.0,0.0,0.0,0.0,0.0,0.0,0.0,0.0,0.0,0.0,0.0,0.0,0.0,0.0,0.0,0.0,0.0,0.0,0.0,0.0,0.0,0.0,0.0,0.0,0.0,0.0,0.0,0.0,0.0,0.0,0.0,0.0,0.0,0.0,0.0,0.0,0.0,0.0,0.0,0.0,0.0,0.0,0.0,0.0,0.0,0.0,0.0,0.0,0.0,0.0,0.0,0.0,0.0,0.0,0.0,0.0,0.0,0.0,0.0,0.0,0.0,0.0,0.0,0.0,0.0,0.0,0.0,0.0,0.0,0.0,0.0,0.0,0.0,0.0,0.0,0.0,0.0,0.0,0.0,0.0,0.0,0.0,0.0,0.0,0.0,-0.2692,-0.2975,-0.3084,-0.3095,-0.3004,-0.2705,-0.2583,0.0,0.0,0.0,0.0,0.0,0.0,0.0,0.0,0.0,0.0,0.0,0.0,0.0,0.0,0.0,0.0,0.0,0.0,0.0,0.0,0.0,0.0,0.0,0.0,0.0,0.0,0.0,0.0,0.0,0.0,0.0,0.0,0.0,0.0,0.0,0.0,0.0,0.0,0.0,0.0,0.0,0.0,0.0,0.0,0.0,0.0,0.0,0.0,0.0,0.0,0.0,0.0,0.0,0.0,0.0,0.0,0.0,0.0,0.0,0.0,0.0,0.0,0.0,0.0,0.0,0.0,0.0,0.0,0.0,0.0,0.0,0.0,0.0,0.0,0.0,0.0,0.0,0.0,0.0,0.0,0.0,0.0,0.0,0.0,0.0,0.0,0.0,0.0,0.0,0.0,0.0,0.0,0.0,0.0,0.0,0.0,0.0,0.0,0.0,0.0,0.0,0.0,0.0,0.0,0.0,0.0,0.0,0.0,-0.2754,-0.3207,-0.3147,-0.3208,-0.301,-0.2812,-0.2647,0.0,0.0,0.0,0.0,0.0,0.0,0.0,0.0,0.0,0.0,0.0,0.0,0.0,0.0,0.0,0.0,0.0,0.0,0.0,0.0,0.0,0.0,0.0,0.0,0.0,0.0,0.0,0.0,0.0,0.0,0.0,0.0,0.0,0.0,0.0,0.0,0.0,0.0,0.0,0.0,0.0,0.0,0.0,0.0,0.0,0.0,0.0,0.0,0.0,0.0,0.0,0.0,0.0,0.0,0.0,0.0,0.0,0.0,0.0,0.0,0.0,0.0,0.0,0.0,0.0,0.0,0.0,0.0,0.0,0.0,0.0,0.0,0.0,0.0,0.0,0.0,0.0,0.0,0.0,0.0,0.0,0.0,0.0,0.0,0.0,0.0,0.0,0.0,0.0,0.0,0.0,0.0,0.0,0.0,0.0,0.0,0.0,0.0,0.0,0.0,0.0,0.0,0.0,0.0,0.0,0.0,0.0,0.0,-0.2688,-0.3189,-0.3077,-0.3103,-0.3078,-0.2874,-0.2549,0.0,0.0,0.0,0.0,0.0,0.0,0.0,0.0,0.0,0.0,0.0,0.0,0.0,0.0,0.0,0.0,0.0,0.0,0.0,0.0,0.0,0.0,0.0,0.0,0.0,0.0,0.0,0.0,0.0,0.0,0.0,0.0,0.0,0.0,0.0,0.0,0.0,0.0,0.0,0.0,0.0,0.0,0.0,0.0,0.0,0.0,0.0,0.0,-0.9165,0.0,0.0,0.0,0.0,0.0,0.0,0.0,0.0,0.0,0.0,0.0,0.0,0.0,0.0,0.0,0.0,0.0,0.0,0.0,0.0,0.0,0.0,0.0,0.0,0.0,0.0,0.0,0.0,0.0,0.0,0.0,0.0,0.0,0.0,0.0,0.0,0.0,0.0,0.0,0.0,0.0,0.0,0.0,0.0,0.0,0.0,0.0,0.0,0.0,0.0,0.0,0.0,0.0,0.0,0.0,0.0,0.0,0.0,0.0,-0.2902,-0.3195,-0.3082,-0.3107,-0.3071,-0.2913,-0.2777,0.0,0.0,0.0,0.0,0.0,0.0,0.0,0.0,0.0,0.0,0.0,0.0,0.0,0.0,0.0,0.0,0.0,0.0,0.0,0.0,0.0,0.0,0.0,0.0,0.0,0.0,0.0,0.0,0.0,0.0,0.0,0.0,0.0,0.0,0.0,0.0,0.0,0.0,0.0,0.0,0.0,0.0,0.0,0.0,0.0,0.0,0.0,0.0,0.0,0.0,0.0,0.0,0.0,0.0,0.0,0.0,0.0,0.0,0.0,0.0,0.0,0.0,0.0,0.0,0.0,0.0,0.0,0.0,0.0,0.0,0.0,0.0,0.0,0.0,0.0,0.0,0.0,0.0,0.0,0.0,0.0,0.0,0.0,0.0,0.0,0.0,0.0,0.0,0.0,0.0,0.0,0.0,0.0,0.0,0.0,0.0,0.0,0.0,0.0,0.0,0.0,0.0,0.0,0.0,0.0,0.0,0.0,-0.2626,-0.2909,-0.3168,-0.3249,-0.3085,-0.3058,-0.2938,-0.2819,0.0,0.0,0.0,0.0,0.0,0.0,0.0,0.0,0.0,0.0,0.0,0.0,0.0,0.0,0.0,0.0,0.0,0.0,0.0,0.0,0.0,0.0,0.0,0.0,0.0,0.0,0.0,0.0,0.0,0.0,0.0,0.0,0.0,0.0,0.0,0.0,0.0,0.0,0.0,-0.7296,-0.8301,0.0,0.0,0.0,0.0,0.0,0.0,0.0,0.0,-0.663,0.0,0.0,0.0,0.0,0.0,0.0,0.0,0.0,0.0,0.0,0.0,0.0,0.0,0.0,0.0,0.0,0.0,0.0,0.0,0.0,0.0,0.0,0.0,0.0,0.0,0.0,0.0,0.0,0.0,0.0,0.0,0.0,0.0,0.0,0.0,0.0,0.0,0.0,0.0,0.0,0.0,0.0,0.0,0.0,0.0,0.0,0.0,0.0,0.0,0.0,0.0,0.0,0.0,0.0,0.0,0.0,-0.2551,-0.2647,-0.2939,-0.3263,-0.3089,-0.3095,-0.3086,-0.295,-0.2829,-0.2559,0.0,0.0,0.0,0.0,0.0,0.0,0.0,0.0,0.0,0.0,0.0,0.0,0.0,0.0,0.0,0.0,0.0,0.0,0.0,0.0,0.0,0.0,0.0,0.0,0.0,0.0,0.0,0.0,0.0,0.0,0.0,0.0,0.0,0.0,0.0,0.0,0.0,0.0,0.0,-0.7799,-0.8183,0.0,0.0,0.0,0.0,0.0,0.0,0.0,0.0,-0.4305,0.0,0.0,0.0,0.0,0.0,0.0,0.0,0.0,0.0,0.0,0.0,0.0,0.0,0.0,0.0,0.0,0.0,0.0,0.0,0.0,0.0,0.0,0.0,0.0,0.0,0.0,0.0,0.0,0.0,0.0,0.0,0.0,0.0,0.0,0.0,0.0,0.0,0.0,0.0,0.0,0.0,0.0,0.0,0.0,0.0,0.0,0.0,0.0,0.0,0.0,0.0,0.0,0.0,0.0,0.0,-0.2605,-0.2694,-0.2977,-0.3092,-0.3097,-0.3082,-0.305,-0.292,-0.2632,0.0,0.0,0.0,0.0,0.0,0.0,0.0,0.0,0.0,0.0,0.0,0.0,0.0,0.0,0.0,0.0,0.0,0.0,0.0,0.0,0.0,0.0,0.0,0.0,0.0,0.0,0.0,0.0,0.0,0.0,0.0,0.0,0.0,0.0,0.0,0.0,0.0,0.0,0.0,0.0,-0.7096,-0.7344,-0.6302,0.0,0.0,0.0,0.0,0.0,0.0,-0.4927,-0.4114,0.0,0.0,0.0,0.0,0.0,0.0,0.0,0.0,0.0,0.0,0.0,0.0,0.0,0.0,0.0,0.0,0.0,0.0,0.0,0.0,0.0,0.0,0.0,0.0,0.0,0.0,0.0,0.0,0.0,0.0,0.0,0.0,0.0,0.0,0.0,0.0,0.0,0.0,0.0,0.0,0.0,0.0,0.0,0.0,0.0,0.0,0.0,0.0,0.0,0.0,0.0,0.0,0.0,0.0,0.0,-0.2647,-0.2734,-0.3006,-0.3092,-0.3097,-0.3069,-0.3195,-0.2885,-0.2603,0.0,0.0,0.0,0.0,0.0,0.0,0.0,0.0,0.0,0.0,0.0,0.0,0.0,0.0,0.0,0.0,0.0,0.0,0.0,0.0,0.0,0.0,0.0,0.0,0.0,0.0,0.0,0.0,0.0,0.0,0.0,0.0,0.0,0.0,0.0,0.0,0.0,0.0,0.0,0.0,0.0,-0.657,-0.5608,-0.5569,0.0,0.0,0.0,0.0,-0.4668,-0.4077,0.0,0.0,0.0,0.0,0.0,0.0,0.0,0.0,0.0,0.0,0.0,0.0,0.0,0.0,0.0,0.0,0.0,0.0,0.0,0.0,0.0,0.0,0.0,0.0,0.0,0.0,0.0,0.0,0.0,0.0,0.0,0.0,0.0,0.0,0.0,0.0,0.0,0.0,0.0,0.0,0.0,0.0,0.0,0.0,0.0,0.0,0.0,0.0,0.0,0.0,0.0,0.0,0.0,0.0,0.0,0.0,-0.2647,-0.2734,-0.2817,-0.3092,-0.3097,-0.3069,-0.3195,-0.2866,-0.2574,0.0,0.0,0.0,0.0,0.0,0.0,0.0,0.0,0.0,0.0,0.0,0.0,0.0,0.0,0.0,0.0,0.0,0.0,0.0,0.0,0.0,0.0,0.0,0.0,0.0,0.0,0.0,0.0,0.0,0.0,0.0,0.0,0.0,0.0,0.0,0.0,0.0,0.0,0.0,0.0,0.0,-0.5934,-0.4926,-0.4567,-0.4498,0.0,0.0,0.0,-0.398,-0.3215,0.0,0.0,0.0,0.0,0.0,0.0,0.0,0.0,0.0,0.0,0.0,0.0,0.0,0.0,0.0,0.0,0.0,0.0,0.0,0.0,0.0,0.0,0.0,0.0,0.0,0.0,0.0,0.0,0.0,0.0,0.0,0.0,0.0,0.0,0.0,0.0,0.0,0.0,0.0,0.0,0.0,0.0,0.0,0.0,0.0,0.0,0.0,0.0,0.0,0.0,0.0,0.0,0.0,0.0,0.0,0.0,-0.2649,-0.2749,-0.3024,-0.3095,-0.3097,-0.3069,-0.3195,-0.2845,-0.2552,0.0,0.0,0.0,0.0,0.0,0.0,0.0,0.0,0.0,0.0,0.0,0.0,0.0,0.0,0.0,0.0,0.0,0.0,0.0,0.0,0.0,0.0,0.0,0.0,0.0,0.0,0.0,0.0,0.0,0.0,0.0,0.0,0.0,0.0,0.0,0.0,0.0,0.0,0.0,0.0,0.0,0.0,-0.4629,-0.4163,0.0,0.0,0.0,-0.4059,-0.3843,0.0,0.0,0.0,0.0,0.0,0.0,0.0,0.0,0.0,0.0,0.0,0.0,0.0,0.0,0.0,0.0,0.0,0.0,0.0,0.0,0.0,0.0,0.0,0.0,0.0,0.0,0.0,0.0,0.0,0.0,0.0,0.0,0.0,0.0,0.0,0.0,0.0,0.0,0.0,0.0,0.0,0.0,0.0,0.0,0.0,0.0,0.0,0.0,0.0,0.0,0.0,0.0,0.0,0.0,0.0,0.0,0.0,-0.2465,-0.2758,-0.3033,-0.3278,-0.3095,-0.3065,-0.3182,-0.2836,0.0,0.0,0.0,0.0,0.0,0.0,0.0,0.0,0.0,0.0,0.0,0.0,0.0,0.0,0.0,0.0,0.0,0.0,0.0,0.0,0.0,0.0,0.0,0.0,0.0,0.0,0.0,-0.2129,0.0,0.0,0.0,0.0,0.0,0.0,0.0,0.0,0.0,0.0,0.0,0.0,0.0,0.0,-0.4356,-0.414,-0.3711,-0.3229,0.0,0.0,-0.3469,-0.3572,-0.2972,-0.2635,0.0,0.0,0.0,0.0,0.0,0.0,0.0,0.0,0.0,0.0,0.0,0.0,0.0,0.0,0.0,0.0,0.0,0.0,0.0,0.0,0.0,0.0,0.0,0.0,0.0,0.0,0.0,0.0,0.0,0.0,0.0,0.0,0.0,0.0,0.0,0.0,0.0,0.0,0.0,0.0,0.0,0.0,0.0,0.0,0.0,0.0,0.0,0.0,0.0,0.0,0.0,0.0,0.0,0.0,0.0,-0.2437,-0.2931,-0.3022,-0.3246,-0.3084,-0.3055,-0.3152,-0.2845,-0.2725,0.0,0.0,0.0,0.0,0.0,0.0,0.0,0.0,0.0,0.0,0.0,0.0,0.0,0.0,0.0,0.0,0.0,0.0,0.0,0.0,0.0,0.0,0.0,0.0,0.0,0.0,0.0,0.0,0.0,0.0,0.0,0.0,0.0,0.0,0.0,0.0,0.0,0.0,0.0,0.0,0.0,-0.3856,-0.348,-0.3036,-0.2727,0.0,0.0,-0.2688,-0.2683,-0.2733,-0.2545,-0.2381,0.0,0.0,0.0,0.0,0.0,0.0,0.0,0.0,0.0,0.0,0.0,0.0,0.0,0.0,0.0,0.0,0.0,0.0,0.0,0.0,0.0,0.0,0.0,0.0,0.0,0.0,0.0,0.0,0.0,0.0,0.0,0.0,0.0,0.0,0.0,0.0,0.0,0.0,0.0,0.0,0.0,0.0,0.0,0.0,0.0,0.0,0.0,0.0,0.0,0.0,0.0,0.0,0.0,-0.033,-0.0869,-0.1099,-0.1888,-0.3051,-0.3081,-0.3071,-0.3207,-0.2883,-0.2763,0.0,0.0,0.0,0.0,0.0,0.0,0.0,0.0,0.0,0.0,0.0,0.0,0.0,0.0,0.0,0.0,0.0,0.0,0.0,0.0,0.0,0.0,0.0,0.0,0.0,0.0,0.0,0.0,-0.2183,-0.2312,-0.2696,0.0,0.0,0.0,0.0,0.0,0.0,0.0,0.0,0.0,0.0,-0.3557,-0.335,-0.3087,0.0,0.0,-0.2736,-0.2557,-0.2673,-0.2699,-0.2672,-0.2512,-0.2625,0.0,0.0,0.0,0.0,0.0,0.0,0.0,0.0,0.0,0.0,0.0,0.0,0.0,0.0,0.0,0.0,0.0,0.0,0.0,0.0,0.0,0.0,0.0,0.0,0.0,0.0,0.0,0.0,0.0,0.0,0.0,0.0,0.0,0.0,0.0,0.0,0.0,0.0,0.0,0.0,0.0,0.0,0.0,0.0,0.0,0.0,0.0,0.0,0.0,0.0,0.0,0.0,0.0,0.0,0.0,-0.0752,-0.2089,-0.2877,-0.307,-0.3036,-0.3092,-0.2795,0.0,0.0,0.0,0.0,0.0,0.0,0.0,0.0,0.0,0.0,0.0,0.0,0.0,0.0,0.0,0.0,0.0,0.0,0.0,0.0,0.0,0.0,0.0,0.0,0.0,0.0,0.0,0.0,-0.2181,-0.2315,-0.2562,0.0,0.0,0.0,0.0,0.0,0.0,0.0,0.0,0.0,0.0,-0.3389,-0.3173,-0.2898,-0.2759,-0.2717,-0.2721,-0.271,-0.2822,-0.2665,-0.2634,-0.2503,0.0,0.0,0.0,0.0,0.0,0.0,0.0,0.0,0.0,0.0,0.0,0.0,0.0,0.0,0.0,0.0,0.0,0.0,0.0,0.0,0.0,0.0,0.0,0.0,0.0,0.0,0.0,0.0,0.0,0.0,0.0,0.0,0.0,0.0,0.0,0.0,0.0,0.0,0.0,0.0,0.0,0.0,0.0,0.0,0.0,0.0,0.0,0.0,0.0,0.0,0.0,0.0,0.0,0.0,0.0,0.0,0.0,0.0,-0.2088,-0.3039,-0.3009,-0.3103,-0.2992,-0.2694,0.0,0.0,0.0,0.0,0.0,0.0,0.0,0.0,0.0,0.0,0.0,0.0,0.0,0.0,0.0,0.0,0.0,0.0,0.0,0.0,0.0,0.0,0.0,0.0,0.0,0.0,-0.2121,-0.2139,-0.2158,0.0,0.0,0.0,0.0,0.0,0.0,0.0,0.0,0.0,0.0,-0.3249,-0.3173,-0.2613,-0.2631,-0.2657,-0.2653,-0.2628,-0.2781,-0.2811,-0.2649,-0.2454,0.0,0.0,0.0,0.0,0.0,0.0,0.0,0.0,0.0,0.0,0.0,0.0,0.0,0.0,0.0,0.0,0.0,0.0,0.0,0.0,0.0,0.0,0.0,0.0,0.0,0.0,0.0,-0.2256,-0.2129,0.0,0.0,0.0,0.0,0.0,0.0,0.0,0.0,0.0,0.0,0.0,-0.0776,-0.0308,0.0,0.0,0.0,0.0,0.0,0.0,0.0,0.0,0.0,0.0,0.0,0.0,0.0,0.0,0.0,0.0,0.0,-0.0762,-0.0952,-0.0948,-0.1106,-0.1057,-0.0989,0.0,0.0,0.0,0.0,0.0,0.0,0.0,0.0,0.0,0.0,0.0,0.0,0.0,0.0,0.0,0.0,0.0,0.0,0.0,0.0,0.0,0.0,0.0,0.0,0.0,-0.217,0.0,0.0,0.0,0.0,0.0,0.0,0.0,0.0,0.0,0.0,0.0,-0.2925,-0.3116,-0.2897,-0.2788,-0.2605,-0.2645,-0.2684,0.0,0.0,0.0,0.0,0.0,0.0,0.0,0.0,0.0,0.0,0.0,0.0,0.0,0.0,-0.2607,-0.2368,-0.237,-0.2536,-0.2515,0.0,0.0,0.0,0.0,0.0,0.0,0.0,0.0,0.0,0.0,0.0,0.0,0.0,0.0,0.0,0.0,-0.2189,0.0,0.0,0.0,0.0,0.0,0.0,0.0,0.0,0.0,0.0,0.0,0.0,0.0,0.0,0.0,0.0,0.0,0.0,0.0,0.0,0.0,0.0,0.0,0.0,0.0,0.0,0.0,0.0,0.0,0.0,0.0,0.0,0.0,0.0,0.0,-0.093,-0.1625,0.0,0.0,0.0,0.0,0.0,0.0,0.0,0.0,0.0,0.0,0.0,0.0,0.0,0.0,0.0,0.0,0.0,0.0,0.0,0.0,0.0,0.0,0.0,-0.2176,0.0,0.0,0.0,0.0,0.0,0.0,0.0,0.0,0.0,-0.2468,-0.2416,-0.2495,-0.284,-0.274,-0.2611,-0.259,0.0,0.0,0.0,0.0,0.0,0.0,0.0,-0.2615,-0.2607,-0.2608,-0.2624,-0.2672,-0.2747,-0.2796,-0.2787,0.0,0.0,-0.2523,-0.2513,-0.2688,-0.2836,-0.2832,-0.2824,-0.2642,-0.2652,-0.2665,0.0,0.0,0.0,0.0,0.0,0.0,0.0,0.0,-0.0905,-0.1516,0.0,-0.21,0.0,0.0,0.0,0.0,0.0,0.0,0.0,0.0,0.0,0.0,0.0,0.0,0.0,0.0,0.0,0.0,0.0,0.0,0.0,0.0,0.0,0.0,0.0,0.0,0.0,0.0,0.0,0.0,0.0,0.0,0.0,0.0,0.0,0.0,0.0,0.0,-0.0454,-0.1439,-0.1961,0.0,0.0,0.0,0.0,0.0,0.0,0.0,0.0,0.0,0.0,0.0,0.0,0.0,0.0,0.0,0.0,0.0,0.0,0.0,0.0,-0.2139,0.0,0.0,0.0,0.0,0.0,0.0,0.0,0.0,0.0,0.0,-0.2541,-0.2614,-0.2525,-0.2553,0.0,0.0,0.0,0.0,-0.2627,-0.2578,-0.259,-0.2609,-0.2453,-0.2637,-0.2829,-0.2862,0.0,0.0,-0.2829,-0.2882,-0.2913,-0.2889,-0.2976,-0.2999,-0.2829,-0.2799,-0.2795,-0.2966,-0.2965,-0.2963,-0.2788,-0.2787,-0.2789,-0.0647,0.0,0.0,0.0,0.0,-0.0609,0.0,-0.0,-0.031,-0.0469,-0.063,-0.0622,0.0,0.0,0.0,0.0,0.0,0.0,0.0,0.0,0.0,0.0,0.0,0.0,0.0,0.0,0.0,0.0,0.0,0.0,0.0,0.0,0.0,0.0,0.0,0.0,0.0,0.0,0.0,0.0,0.0,0.0,0.0,0.0,0.0,0.0,0.0,0.0,-0.0159,-0.046,-0.163,0.0,0.0,0.0,0.0,0.0,0.0,0.0,0.0,0.0,0.0,0.0,0.0,0.0,0.0,0.0,0.0,0.0,0.0,0.0,-0.211,-0.2176,-0.2221,0.0,0.0,0.0,0.0,0.0,0.0,0.0,0.0,0.0,-0.2688,-0.2681,-0.2518,0.0,0.0,-0.2547,-0.2529,-0.2577,-0.2631,-0.268,0.0,0.0,0.0,-0.278,-0.2935,-0.299,-0.2871,-0.292,-0.295,-0.3006,-0.305,-0.3062,-0.3093,-0.3099,-0.3052,-0.3003,-0.2969,-0.3131,-0.3108,-0.3092,-0.2911,-0.2909,-0.2909,0.0,-0.0163,-0.0962,-0.1424,-0.1253,-0.0315,0.0,0.0,0.0,0.0,0.0,0.0,0.0,0.0,0.0,0.0,0.0,0.0,0.0,0.0,0.0,0.0,0.0,0.0,0.0,0.0,0.0,0.0,0.0,0.0,0.0,0.0,0.0,0.0,0.0,0.0,0.0,0.0,0.0,0.0,0.0,0.0,0.0,0.0,0.0,0.0,0.0,0.0,0.0,0.0,-0.0923,-0.1189,0.0,0.0,0.0,0.0,0.0,0.0,0.0,0.0,0.0,0.0,0.0,-0.2234,0.0,0.0,0.0,0.0,-0.2144,-0.215,-0.2162,-0.2223,0.0,0.0,0.0,0.0,0.0,0.0,0.0,-0.2333,-0.2353,-0.2551,-0.2626,-0.2769,-0.2751,-0.2601,-0.2602,-0.2598,-0.2586,0.0,-0.2707,-0.275,-0.2776,-0.2816,-0.2887,-0.2864,-0.3039,-0.3117,-0.2973,-0.3013,-0.3054,-0.3082,-0.3112,-0.3149,-0.316,-0.316,-0.3161,-0.312,-0.308,-0.3048,-0.3018,-0.2998,-0.2998,-0.2998,-0.2998,0.0,0.0,0.0,0.0,0.0,0.0,0.0,0.0,0.0,0.0,0.0,0.0,0.0,0.0,0.0,0.0,0.0,0.0,0.0,0.0,0.0,0.0,0.0,0.0,0.0,0.0,0.0,0.0,0.0,0.0,0.0,0.0,0.0,0.0,0.0,0.0,0.0,0.0,0.0,0.0,0.0,0.0,0.0,0.0,0.0,0.0,0.0,0.0,0.0,0.0,0.0,-0.0612,-0.1942,0.0,0.0,0.0,0.0,0.0,0.0,0.0,0.0,0.0,0.0,0.0,0.0,0.0,0.0,0.0,-0.2203,0.0,-0.2249,-0.2279,0.0,0.0,0.0,-0.2379,-0.2466,-0.2478,-0.2512,-0.2433,0.0,0.0,0.0,0.0,-0.2882,-0.2748,-0.2742,-0.2725,-0.2699,-0.2767,-0.2819,-0.2799,-0.2846,-0.2886,-0.2901,-0.3097,-0.3139,-0.3032,-0.3056,-0.3074,-0.3123,-0.3123,-0.313,-0.3176,-0.3189,-0.3191,-0.3191,-0.3165,-0.3137,-0.3106,-0.3073,-0.3051,-0.3048,-0.3047,-0.3046,0.0,0.0,0.0,0.0,0.0,0.0,0.0,0.0,0.0,0.0,0.0,0.0,0.0,0.0,0.0,0.0,0.0,0.0,0.0,0.0,0.0,0.0,0.0,0.0,0.0,0.0,0.0,0.0,0.0,0.0,0.0,0.0,0.0,0.0,0.0,0.0,0.0,0.0,0.0,0.0,0.0,0.0,0.0,0.0,0.0,0.0,0.0,0.0,0.0,0.0,0.0,-0.0157,-0.0465,-0.0148,0.0,0.0,0.0,0.0,0.0,0.0,0.0,0.0,0.0,-0.2307,-0.2292,0.0,-0.2423,0.0,-0.2221,-0.2256,-0.2307,-0.2339,0.0,0.0,-0.2427,-0.2463,-0.253,-0.2557,-0.2587,-0.2631,-0.2656,-0.2862,-0.2754,-0.2935,-0.2963,-0.286,-0.2776,-0.2709,-0.2725,-0.2784,-0.2842,-0.2881,-0.2934,-0.2983,-0.3001,-0.3014,-0.3032,-0.3078,-0.3086,-0.31,-0.3137,-0.3157,-0.3172,-0.3187,-0.3206,-0.3219,-0.322,-0.3197,-0.3168,-0.3137,-0.3089,-0.3052,-0.3052,-0.3052,-0.3052,0.0,0.0,0.0,0.0,0.0,0.0,0.0,0.0,0.0,0.0,0.0,0.0,0.0,0.0,0.0,0.0,0.0,0.0,0.0,0.0,0.0,0.0,0.0,0.0,0.0,0.0,0.0,0.0,0.0,0.0,0.0,0.0,0.0,0.0,0.0,0.0,0.0,0.0,0.0,0.0,0.0,0.0,0.0,0.0,0.0,0.0,0.0,-0.068,-0.1002,-0.0995,-0.0321,0.0,0.0,0.0,-0.0725,0.0,0.0,0.0,0.0,0.0,0.0,0.0,0.0,0.0,0.0,0.0,-0.2342,0.0,-0.2442,0.0,-0.2369,-0.2413,-0.2451,-0.2481,-0.2499,-0.2538,-0.2611,-0.2632,-0.2664,-0.2721,-0.2743,-0.2945,-0.2818,-0.3013,-0.2859,-0.2911,-0.2856,-0.2818,-0.2837,-0.2878,-0.292,-0.2953,-0.2996,-0.3032,-0.305,-0.3052,-0.3063,-0.3089,-0.3097,-0.3112,-0.3155,-0.3165,-0.3176,-0.3201,-0.321,-0.3216,-0.3225,-0.3208,-0.3179,-0.3148,-0.3116,-0.3085,-0.3058,-0.3052,-0.3052,0.0,0.0,0.0,0.0,0.0,0.0,0.0,0.0,0.0,0.0,0.0,0.0,0.0,0.0,0.0,0.0,0.0,0.0,0.0,0.0,0.0,0.0,0.0,0.0,0.0,0.0,0.0,0.0,0.0,0.0,0.0,0.0,0.0,0.0,0.0,0.0,0.0,0.0,0.0,0.0,0.0,0.0,0.0,0.0,0.0,0.0,0.0,-0.1324,-0.2116,-0.2276,-0.0947,-0.0309,-0.0306,-0.0299,-0.088,0.0,-0.2053,0.0,0.0,0.0,0.0,0.0,0.0,0.0,0.0,-0.2462,-0.2424,-0.2372,-0.257,-0.2606,-0.2451,-0.25,-0.2542,-0.2567,-0.2575,-0.2609,-0.2687,-0.2705,-0.274,-0.2819,-0.2834,-0.2851,-0.2875,-0.2901,-0.2916,-0.293,-0.2941,-0.295,-0.2971,-0.2986,-0.2999,-0.3011,-0.3035,-0.305,-0.3052,-0.3052,-0.3065,-0.3095,-0.3106,-0.3123,-0.3178,-0.3171,-0.3171,-0.3209,-0.3209,-0.3204,-0.3227,-0.321,-0.3185,-0.3156,-0.3148,-0.3126,-0.307,-0.3058,-0.3056,0.0,0.0,0.0,0.0,0.0,0.0,0.0,0.0,0.0,0.0,0.0,0.0,0.0,0.0,0.0,0.0,0.0,0.0,0.0,0.0,0.0,0.0,0.0,0.0,0.0,0.0,0.0,0.0,0.0,0.0,0.0,0.0,0.0,0.0,0.0,0.0,0.0,0.0,0.0,0.0,0.0,0.0,0.0,0.0,0.0,0.0,0.0,-0.0328,-0.0977,-0.2277,-0.2084,0.0,0.0,0.0,0.0,0.0,0.0,0.0,0.0,0.0,0.0,0.0,-0.2671,-0.2649,-0.2583,-0.241,-0.2403,-0.2553,-0.2745,-0.2605,-0.2605,-0.2615,-0.2624,-0.2631,-0.2653,-0.2684,-0.2727,-0.2773,-0.2811,-0.2826,-0.287,-0.2901,-0.2906,-0.2913,-0.2934,-0.2975,-0.2973,-0.2983,-0.3028,-0.3018,-0.3017,-0.3039,-0.3048,-0.3052,-0.3052,-0.3052,-0.307,-0.3118,-0.3134,-0.3148,-0.3179,-0.3204,-0.3202,-0.3205,-0.321,-0.3223,-0.323,-0.3225,-0.3212,-0.3185,-0.3179,-0.3155,-0.3071,-0.3073,-0.3081,0.0,0.0,0.0,0.0,0.0,0.0,0.0,0.0,0.0,0.0,0.0,0.0,0.0,0.0,0.0,0.0,0.0,0.0,0.0,0.0,0.0,0.0,0.0,0.0,0.0,0.0,0.0,0.0,0.0,0.0,0.0,0.0,0.0,0.0,0.0,0.0,0.0,0.0,0.0,0.0,0.0,0.0,0.0,0.0,0.0,0.0,0.0,0.0,0.0,0.0,0.0,0.0,0.0,0.0,0.0,0.0,0.0,-0.0658,-0.1987,-0.2523,-0.2729,-0.2758,-0.2801,-0.2782,-0.2677,-0.249,-0.2646,-0.2813,-0.2842,-0.2692,-0.2692,-0.2692,-0.2698,-0.2713,-0.2728,-0.2754,-0.2799,-0.2831,-0.2861,-0.2887,-0.2894,-0.29,-0.2915,-0.2916,-0.2934,-0.2976,-0.2986,-0.2999,-0.304,-0.3039,-0.3036,-0.305,-0.3052,-0.3052,-0.3052,-0.3052,-0.3061,-0.3093,-0.3123,-0.3146,-0.3163,-0.3201,-0.3224,-0.3213,-0.3221,-0.323,-0.323,-0.323,-0.3221,-0.3198,-0.32,-0.3185,-0.3114,-0.3097,-0.3095,0.0,0.0,0.0,0.0,0.0,0.0,0.0,0.0,0.0,0.0,0.0,0.0,0.0,0.0,0.0,0.0,0.0,0.0,0.0,0.0,0.0,0.0,0.0,0.0,0.0,0.0,0.0,0.0,0.0,0.0,0.0,0.0,0.0,0.0,0.0,0.0,0.0,0.0,0.0,0.0,0.0,0.0,0.0,0.0,0.0,0.0,0.0,0.0,0.0,0.0,-0.1153,-0.197,-0.1794,-0.0663,0.0,0.0,0.0,-0.0689,-0.2224,-0.2628,-0.2671,-0.2502,-0.2539,-0.2698,-0.2591,-0.274,-0.2728,-0.2888,-0.292,-0.294,-0.2762,-0.2767,-0.2774,-0.2791,-0.28,-0.2825,-0.286,-0.2878,-0.2897,-0.2932,-0.2906,-0.289,-0.2912,-0.2916,-0.293,-0.2964,-0.2984,-0.3013,-0.3043,-0.3051,-0.3052,-0.3062,-0.3065,-0.3063,-0.3069,-0.3071,-0.307,-0.3089,-0.3125,-0.315,-0.3164,-0.3198,-0.3227,-0.3228,-0.323,-0.323,-0.323,-0.323,-0.3223,-0.32,-0.3213,-0.3216,-0.317,-0.3134,-0.3115,0.0,0.0,0.0,0.0,0.0,0.0,0.0,0.0,0.0,0.0,0.0,0.0,0.0,0.0,0.0,0.0,0.0,0.0,0.0,0.0,0.0,0.0,0.0,0.0,0.0,0.0,0.0,0.0,0.0,0.0,0.0,0.0,0.0,0.0,0.0,0.0,0.0,0.0,0.0,0.0,0.0,0.0,0.0,0.0,0.0,0.0,0.0,0.0,0.0,0.0,-0.0172,-0.0346,0.0,0.0,0.0,0.0,0.0,-0.0179,-0.0361,-0.1087,-0.1647,-0.1673,-0.1669,-0.2006,-0.2651,-0.286,-0.2866,-0.2819,-0.2856,-0.2883,-0.286,-0.2871,-0.2863,-0.2831,-0.2866,-0.2882,-0.2846,-0.2881,-0.2905,-0.2896,-0.2902,-0.2909,-0.2915,-0.2916,-0.2936,-0.298,-0.2988,-0.2991,-0.3041,-0.3052,-0.3063,-0.3085,-0.3092,-0.3103,-0.3118,-0.3129,-0.3133,-0.3165,-0.317,-0.3185,-0.3204,-0.3219,-0.323,-0.323,-0.323,-0.323,-0.323,-0.323,-0.3227,-0.3221,-0.3228,-0.3224,-0.321,-0.319,-0.3165,0.0,0.0,0.0,0.0,0.0,0.0,0.0,0.0,0.0,0.0,0.0,0.0,0.0,0.0,0.0,0.0,0.0,0.0,0.0,0.0,0.0,0.0,0.0,0.0,0.0,0.0,0.0,0.0,0.0,0.0,0.0,0.0,0.0,0.0,0.0,0.0,0.0,0.0,0.0,0.0,0.0,0.0,0.0,0.0,0.0,0.0,0.0,0.0,0.0,0.0,0.0,0.0,0.0,0.0,0.0,0.0,0.0,0.0,0.0,-0.0373,-0.0563,-0.0757,-0.1133,-0.1869,-0.2931,-0.2921,-0.2725,-0.2161,-0.2529,-0.2896,-0.2894,-0.2881,-0.2864,-0.2855,-0.2878,-0.2887,-0.2881,-0.2897,-0.2916,-0.2919,-0.2904,-0.2898,-0.2915,-0.2916,-0.2931,-0.2975,-0.2992,-0.3028,-0.307,-0.3077,-0.3081,-0.3095,-0.3097,-0.3111,-0.3137,-0.3142,-0.3149,-0.3163,-0.3178,-0.3191,-0.3208,-0.3219,-0.323,-0.323,-0.323,-0.323,-0.323,-0.323,-0.323,-0.323,-0.323,-0.323,-0.3228,-0.3219,-0.319,0.0,0.0,0.0,0.0,0.0,0.0,0.0,0.0,0.0,0.0,0.0,0.0,0.0,0.0,0.0,0.0,0.0,0.0,0.0,0.0,0.0,0.0,0.0,0.0,0.0,0.0,0.0,0.0,0.0,0.0,0.0,0.0,0.0,0.0,0.0,0.0,0.0,0.0,0.0,0.0,0.0,0.0,0.0,0.0,0.0,0.0,0.0,0.0,0.0,0.0,0.0,0.0,0.0,0.0,0.0,0.0,0.0,0.0,0.0,0.0,0.0,0.0,-0.0764,-0.152,-0.2251,-0.2218,-0.2011,-0.1459,-0.2184,-0.2912,-0.2912,-0.2894,-0.2874,-0.2885,-0.289,-0.2897,-0.2905,-0.2912,-0.292,-0.2934,-0.2901,-0.2885,-0.2908,-0.2916,-0.2932,-0.2972,-0.3024,-0.307,-0.3093,-0.3101,-0.3108,-0.3116,-0.3118,-0.3133,-0.3156,-0.3164,-0.3165,-0.3163,-0.3183,-0.3198,-0.3205,-0.3219,-0.3228,-0.323,-0.323,-0.323,-0.323,-0.323,-0.323,-0.323,-0.323,-0.323,-0.323,-0.323,-0.3208,0.0,0.0,0.0,0.0,0.0,0.0,0.0,0.0,0.0,0.0,0.0,0.0,0.0,0.0,0.0,0.0,0.0,0.0,0.0,0.0,0.0,0.0,0.0,0.0,0.0,0.0,0.0,0.0,0.0,0.0,0.0,0.0,0.0,0.0,0.0,0.0,0.0,0.0,0.0,0.0,0.0,0.0,0.0,0.0,0.0,0.0,0.0,0.0,0.0,0.0,0.0,0.0,0.0,0.0,0.0,0.0,0.0,0.0,0.0,0.0,0.0,0.0,0.0,0.0,0.0,0.0,-0.0184,-0.055,-0.2038,-0.2961,-0.2927,-0.2951,-0.2951,-0.2909,-0.2927,-0.2934,-0.2894,-0.2901,-0.2908,-0.2883,-0.2886,-0.2885,-0.2913,-0.2921,-0.2943,-0.2996,-0.3051,-0.3092,-0.3103,-0.3125,-0.3149,-0.317,-0.3179,-0.319,-0.321,-0.3221,-0.3215,-0.3217,-0.3221,-0.3223,-0.3224,-0.3225,-0.323,-0.323,-0.323,-0.323,-0.323,-0.323,-0.323,-0.323,-0.323,-0.323,-0.323,-0.323,-0.3212,0.0,0.0,0.0,0.0,0.0,0.0,0.0,0.0,0.0,0.0,0.0,0.0,0.0,0.0,0.0,0.0,0.0,0.0,0.0,0.0,0.0,0.0,0.0,0.0,0.0,0.0,0.0,0.0,0.0,0.0,0.0,0.0,0.0,0.0,0.0,0.0,0.0,0.0,0.0,0.0,0.0,0.0,0.0,0.0,0.0,0.0,0.0,0.0,0.0,0.0,0.0,0.0,0.0,0.0,0.0,0.0,0.0,0.0,0.0,0.0,0.0,0.0,0.0,0.0,0.0,0.0,-0.0372,-0.166,-0.257,-0.2921,-0.2917,-0.2924,-0.2917,-0.2897,-0.2902,-0.2906,-0.2902,-0.2909,-0.2916,-0.2923,-0.2926,-0.2928,-0.2942,-0.2958,-0.2987,-0.3028,-0.3073,-0.3103,-0.3122,-0.315,-0.3179,-0.3205,-0.3213,-0.3217,-0.3228,-0.323,-0.323,-0.323,-0.323,-0.323,-0.323,-0.323,-0.323,-0.323,-0.323,-0.323,-0.323,-0.323,-0.323,-0.323,-0.323,-0.323,-0.323,-0.323,-0.3224,0.0,0.0,0.0,0.0,0.0,0.0,0.0,0.0,0.0,0.0,0.0,0.0,0.0,0.0,0.0,0.0,0.0,0.0,0.0,0.0,0.0,0.0,0.0,0.0,0.0,0.0,0.0,0.0,0.0,0.0,0.0,0.0,0.0,0.0,0.0,0.0,0.0,0.0,0.0,0.0,0.0,0.0,0.0,0.0,0.0,0.0,0.0,0.0,0.0,0.0,0.0,0.0,0.0,0.0,0.0,0.0,0.0,0.0,0.0,0.0,0.0,0.0,0.0,0.0,0.0,0.0,0.0,-0.2593,-0.2916,-0.2897,-0.2898,-0.2893,-0.2886,-0.2886,-0.2885,-0.2897,-0.2923,-0.2928,-0.2936,-0.2957,-0.2956,-0.2965,-0.2976,-0.2999,-0.3028,-0.3048,-0.3085,-0.3115,-0.3142,-0.3174,-0.3208,-0.3227,-0.323,-0.323,-0.323,-0.323,-0.323,-0.323,-0.323,-0.323,-0.323,-0.323,-0.323,-0.323,-0.323,-0.323,-0.323,-0.323,-0.323,-0.323,-0.323,-0.323,-0.323,-0.323,-0.323,0.0,0.0,0.0,0.0,0.0,0.0,0.0,0.0,0.0,0.0,0.0,0.0,0.0,0.0,0.0,0.0,0.0,0.0,0.0,0.0,0.0,0.0,0.0,0.0,0.0,0.0,0.0,0.0,0.0,0.0,0.0,0.0,0.0,0.0,0.0,0.0,0.0,0.0,0.0,0.0,0.0,0.0,0.0,0.0,0.0,0.0,0.0,0.0,0.0,0.0,0.0,0.0,0.0,0.0,0.0,0.0,0.0,0.0,0.0,0.0,0.0,0.0,0.0,0.0,0.0,0.0,0.0,-0.2781,-0.2936,-0.2908,-0.2891,-0.2905,-0.2915,-0.2915,-0.2915,-0.2928,-0.2956,-0.296,-0.296,-0.2965,-0.2969,-0.2981,-0.3002,-0.3031,-0.3048,-0.3065,-0.3104,-0.3142,-0.3152,-0.3193,-0.3223,-0.3228,-0.323,-0.323,-0.323,-0.323,-0.323,-0.323,-0.323,-0.323,-0.323,-0.323,-0.323,-0.323,-0.323,-0.323,-0.323,-0.323,-0.323,-0.323,-0.323,-0.323,-0.323,-0.323,-0.323,0.0,0.0,0.0,0.0,0.0,0.0,0.0,0.0,0.0,0.0,0.0,0.0,0.0,0.0,0.0,0.0,0.0,0.0,0.0,0.0,0.0,0.0,0.0,0.0,0.0,0.0,0.0,0.0,0.0,0.0,0.0,0.0,0.0,0.0,0.0,0.0,0.0,0.0,0.0,0.0,0.0,0.0,0.0,0.0,0.0,0.0,0.0,0.0,0.0,0.0,0.0,0.0,0.0,0.0,0.0,0.0,0.0,0.0,0.0,0.0,0.0,0.0,-0.1379,-0.1371,-0.0582,-0.1149,-0.2273,-0.2825,-0.2972,-0.3124,-0.2935,-0.2939,-0.2945,-0.2945,-0.2946,-0.2957,-0.2981,-0.2991,-0.2998,-0.3014,-0.302,-0.3025,-0.3035,-0.3062,-0.3081,-0.3088,-0.3134,-0.3165,-0.3176,-0.3206,-0.323,-0.323,-0.323,-0.323,-0.323,-0.323,-0.323,-0.323,-0.323,-0.323,-0.323,-0.323,-0.323,-0.3231,-0.3231,-0.3238,-0.324,-0.3239,-0.3238,-0.3235,-0.3234,-0.323,-0.323,-0.323,-0.323,0.0,0.0,0.0,0.0,0.0,0.0,0.0,0.0,0.0,0.0,0.0,0.0,0.0,0.0,0.0,0.0,0.0,0.0,0.0,0.0,0.0,0.0,0.0,0.0,0.0,0.0,0.0,0.0,0.0,0.0,0.0,0.0,0.0,0.0,0.0,0.0,0.0,0.0,0.0,0.0,0.0,0.0,0.0,0.0,0.0,0.0,0.0,0.0,0.0,0.0,0.0,0.0,0.0,0.0,0.0,0.0,0.0,0.0,0.0,0.0,0.0,0.0,-0.199,-0.2574,-0.138,-0.2326,-0.288,-0.3055,-0.3013,-0.3165,-0.3175,-0.2991,-0.2987,-0.2979,-0.2976,-0.2988,-0.3016,-0.3021,-0.3031,-0.3044,-0.3048,-0.3051,-0.3056,-0.2886,-0.29,-0.3097,-0.315,-0.3186,-0.3191,-0.3212,-0.323,-0.323,-0.323,-0.323,-0.323,-0.323,-0.323,-0.323,-0.3234,-0.3234,-0.3238,-0.3235,-0.3235,-0.3234,-0.3239,-0.3247,-0.3251,-0.3249,-0.3246,-0.3243,-0.3235,-0.323,-0.323,-0.323,-0.3232,0.0,0.0,0.0,0.0,0.0,0.0,0.0,0.0,0.0,0.0,0.0,0.0,0.0,0.0,0.0,0.0,0.0,0.0,0.0,0.0,0.0,0.0,0.0,0.0,0.0,0.0,0.0,0.0,0.0,0.0,0.0,0.0,0.0,0.0,0.0,0.0,0.0,0.0,0.0,0.0,0.0,0.0,0.0,0.0,0.0,0.0,0.0,0.0,0.0,0.0,0.0,0.0,0.0,0.0,0.0,0.0,0.0,0.0,0.0,0.0,0.0,0.0,-0.1816,-0.2812,-0.2787,-0.3137,-0.3101,-0.3089,-0.305,-0.302,-0.304,-0.3043,-0.3035,-0.3013,-0.3007,-0.302,-0.304,-0.3051,-0.3052,-0.3052,-0.2862,-0.3052,-0.2868,-0.2506,-0.2521,-0.2924,-0.3157,-0.3194,-0.3197,-0.3216,-0.3228,-0.323,-0.323,-0.323,-0.323,-0.323,-0.323,-0.3231,-0.3236,-0.324,-0.3253,-0.3255,-0.3258,-0.326,-0.3269,-0.3279,-0.3287,-0.3284,-0.3272,-0.3265,-0.325,-0.3238,-0.324,-0.3242,-0.3236,0.0,0.0,0.0,0.0,0.0,0.0,0.0,0.0,0.0,0.0,0.0,0.0,0.0,0.0,0.0,0.0,0.0,0.0,0.0,0.0,0.0,0.0,0.0,0.0,0.0,0.0,0.0,0.0,0.0,0.0,0.0,0.0,0.0,0.0,0.0,0.0,0.0,0.0,0.0,0.0,0.0,0.0,0.0,0.0,0.0,0.0,0.0,0.0,0.0,0.0,0.0,0.0,0.0,0.0,0.0,0.0,0.0,0.0,0.0,0.0,0.0,0.0,0.0,-0.1817,-0.3018,-0.3182,-0.3149,-0.313,-0.3092,-0.3069,-0.3055,-0.3052,-0.3047,-0.3039,-0.3039,-0.304,-0.305,-0.3052,-0.3052,-0.2862,-0.1907,-0.1147,-0.1156,-0.136,-0.2351,-0.2957,-0.3191,-0.3215,-0.3219,-0.3223,-0.323,-0.323,-0.323,-0.3234,-0.3238,-0.3246,-0.3251,-0.3253,-0.3257,-0.3255,-0.3266,-0.3279,-0.3281,-0.329,-0.33,-0.331,-0.332,-0.3315,-0.3303,-0.3285,-0.3269,-0.3262,-0.326,-0.3251,-0.324,0.0,0.0,0.0,0.0,0.0,0.0,0.0,0.0,0.0,0.0,0.0,0.0,0.0,0.0,0.0,0.0,0.0,0.0,0.0,0.0,0.0,0.0,0.0,0.0,0.0,0.0,0.0,0.0,0.0,0.0,0.0,0.0,0.0,0.0,0.0,0.0,0.0,0.0,0.0,0.0,0.0,0.0,0.0,0.0,0.0,0.0,0.0,0.0,0.0,0.0,0.0,0.0,0.0,0.0,0.0,0.0,0.0,0.0,0.0,0.0,0.0,0.0,0.0,0.0,-0.1818,-0.2604,-0.2979,-0.2172,-0.195,-0.2317,-0.2881,-0.2674,-0.2671,-0.3052,-0.267,-0.248,-0.248,-0.2862,-0.3052,-0.2672,-0.1339,0.0,0.0,-0.0588,-0.1977,-0.279,-0.3213,-0.3231,-0.3231,-0.323,-0.3231,-0.3235,-0.3245,-0.3247,-0.325,-0.326,-0.3272,-0.3277,-0.3281,-0.3279,-0.328,-0.3299,-0.3309,-0.3325,-0.3337,-0.3351,-0.3359,-0.3347,-0.3333,-0.3313,-0.3292,-0.3276,-0.3265,-0.3246,-0.3235,0.0,0.0,0.0,0.0,0.0,0.0,0.0,0.0,0.0,0.0,0.0,0.0,0.0,0.0,0.0,0.0,0.0,0.0,0.0,0.0,0.0,0.0,0.0,0.0,0.0,0.0,0.0,0.0,0.0,0.0,0.0,0.0,0.0,0.0,0.0,0.0,0.0,0.0,0.0,0.0,0.0,0.0,0.0,0.0,0.0,0.0,0.0,0.0,0.0,0.0,0.0,0.0,0.0,0.0,0.0,0.0,0.0,0.0,0.0,0.0,0.0,0.0,0.0,0.0,0.0,-0.1605,-0.1995,0.0,0.0,-0.097,-0.232,-0.2309,-0.2299,-0.2868,-0.2102,-0.1527,-0.1527,-0.2293,-0.2486,-0.2298,0.0,0.0,0.0,0.0,-0.0993,-0.2198,-0.2815,-0.3228,-0.3231,-0.3231,-0.3232,-0.3242,-0.3258,-0.3269,-0.3273,-0.3284,-0.3296,-0.33,-0.3309,-0.3317,-0.3314,-0.3332,-0.3344,-0.336,-0.3369,-0.3384,-0.3389,-0.3375,-0.3363,-0.3347,-0.3322,-0.3291,-0.3276,-0.3268,-0.3261,0.0,0.0,0.0,0.0,0.0,0.0,0.0,0.0,0.0,0.0,0.0,0.0,0.0,0.0,0.0,0.0,0.0,0.0,0.0,0.0,0.0,0.0,0.0,0.0,0.0,0.0,0.0,0.0,0.0,0.0,0.0,0.0,0.0,0.0,0.0,0.0,0.0,0.0,0.0,0.0,0.0,0.0,0.0,0.0,0.0,0.0,0.0,0.0,0.0,0.0,0.0,0.0,0.0,0.0,0.0,0.0,0.0,0.0,0.0,0.0,0.0,0.0,0.0,0.0,0.0,0.0,0.0,0.0,0.0,-0.0589,-0.1749,-0.2331,-0.2726,-0.2723,-0.1542,0.0,0.0,-0.0578,-0.0771,-0.0772,0.0,0.0,0.0,0.0,0.0,-0.1205,-0.2218,-0.3234,-0.3232,-0.3232,-0.3232,-0.3257,-0.3275,-0.3288,-0.33,-0.3311,-0.332,-0.3322,-0.3339,-0.3365,-0.337,-0.3382,-0.339,-0.3399,-0.3392,-0.34,-0.3404,-0.34,-0.3389,-0.3378,-0.3355,-0.3328,-0.3328,-0.3324,-0.3315,0.0,0.0,0.0,0.0,0.0,0.0,0.0,0.0,0.0,0.0,0.0,0.0,0.0,0.0,0.0,0.0,0.0,0.0,0.0,0.0,0.0,0.0,0.0,0.0,0.0,0.0,0.0,0.0,0.0,0.0,0.0,0.0,0.0,0.0,0.0,0.0,0.0,0.0,0.0,0.0,0.0,0.0,0.0,0.0,0.0,0.0,0.0,0.0,0.0,0.0,0.0,0.0,0.0,0.0,0.0,0.0,0.0,0.0,0.0,0.0,0.0,0.0,0.0,0.0,0.0,0.0,0.0,0.0,0.0,0.0,-0.0783,-0.137,-0.177,-0.1575,-0.078,0.0,0.0,0.0,0.0,0.0,0.0,0.0,0.0,0.0,0.0,-0.0807,-0.1817,-0.2626,-0.303,-0.3232,-0.3243,-0.3272,-0.3295,-0.3313,-0.3335,-0.335,-0.3356,-0.3359,-0.337,-0.3397,-0.3405,-0.3416,-0.3415,-0.3414,-0.3412,-0.3416,-0.3425,-0.3426,-0.3415,-0.3401,-0.3382,-0.3367,-0.336,-0.3355,-0.3352,0.0,0.0,0.0,0.0,0.0,0.0,0.0,0.0,0.0,0.0,0.0,0.0,0.0,0.0,0.0,0.0,0.0,0.0,0.0,0.0,0.0,0.0,0.0,0.0,0.0,0.0,0.0,0.0,0.0,0.0,0.0,0.0,0.0,0.0,0.0,0.0,0.0,0.0,0.0,0.0,0.0,0.0,0.0,0.0,0.0,0.0,0.0,0.0,0.0,0.0,0.0,0.0,0.0,0.0,0.0,0.0,0.0,0.0,0.0,0.0,0.0,0.0,0.0,0.0,0.0,0.0,0.0,0.0,0.0,0.0,0.0,0.0,0.0,0.0,0.0,0.0,0.0,0.0,0.0,0.0,0.0,0.0,0.0,0.0,-0.0405,-0.1616,-0.2229,-0.2646,-0.3053,-0.3258,-0.3273,-0.3296,-0.3318,-0.3337,-0.3363,-0.3389,-0.3395,-0.34,-0.3408,-0.3423,-0.3422,-0.3427,-0.3426,-0.3426,-0.3434,-0.3445,-0.3457,-0.3453,-0.344,-0.3425,-0.3407,-0.3388,-0.3373,-0.3369,-0.3365,0.0,0.0,0.0,0.0,0.0,0.0,0.0,0.0,0.0,0.0,0.0,0.0,0.0,0.0,0.0,0.0,0.0,0.0,0.0,0.0,0.0,0.0,0.0,0.0,0.0,0.0,0.0,0.0,0.0,0.0,0.0,0.0,0.0,0.0,0.0,0.0,0.0,0.0,0.0,0.0,0.0,0.0,0.0,0.0,0.0,0.0,0.0,0.0,0.0,0.0,0.0,0.0,0.0,0.0,0.0,0.0,0.0,0.0,0.0,0.0,0.0,0.0,0.0,0.0,0.0,0.0,0.0,0.0,0.0,0.0,0.0,0.0,0.0,0.0,0.0,0.0,0.0,0.0,0.0,0.0,0.0,0.0,0.0,0.0,0.0,0.0,-0.2851,-0.3076,-0.308,-0.3284,-0.3302,-0.3322,-0.3337,-0.3356,-0.3381,-0.3404,-0.3411,-0.3425,-0.344,-0.3457,-0.3454,-0.3454,-0.3459,-0.346,-0.3461,-0.3474,-0.3486,-0.3471,-0.3454,-0.3442,-0.3431,-0.3411,-0.3395,-0.3386,-0.3386,0.0,0.0,0.0,0.0,0.0,0.0,0.0,0.0,0.0,0.0,0.0,0.0,0.0,0.0,0.0,0.0,0.0,0.0,0.0,0.0,0.0,0.0,0.0,0.0,0.0,0.0,0.0,0.0,0.0,0.0,0.0,0.0,0.0,0.0,0.0,0.0,0.0,0.0,0.0,0.0,0.0,0.0,0.0,0.0,0.0,0.0,0.0,0.0,0.0,0.0,0.0,0.0,0.0,0.0,0.0,0.0,0.0,0.0,0.0,0.0,0.0,0.0,0.0,0.0,0.0,0.0,0.0,0.0,0.0,0.0,0.0,0.0,0.0,0.0,0.0,0.0,0.0,0.0,0.0,0.0,0.0,0.0,0.0,0.0,0.0,0.0,-0.3061,-0.3083,-0.3099,-0.3307,-0.3326,-0.3344,-0.3356,-0.3374,-0.3397,-0.3414,-0.342,-0.3438,-0.3461,-0.3484,-0.3501,-0.3499,-0.3499,-0.3497,-0.3493,-0.3501,-0.3508,-0.349,-0.3478,-0.3472,-0.346,-0.3435,-0.342,-0.3418,-0.3422,0.0,0.0,0.0,0.0,0.0,0.0,0.0,0.0,0.0,0.0,0.0,0.0,0.0,0.0,0.0,0.0,0.0,0.0,0.0,0.0,0.0,0.0,0.0,0.0,0.0,0.0,0.0,0.0,0.0,0.0,0.0,0.0,0.0,0.0,0.0,0.0,0.0,0.0,0.0,0.0,0.0,0.0,0.0,0.0,0.0,0.0,0.0,0.0,0.0,0.0,0.0,0.0,0.0,0.0,0.0,0.0,0.0,0.0,0.0,0.0,0.0,0.0,0.0,0.0,0.0,0.0,0.0,0.0,0.0,0.0,0.0,0.0,0.0,0.0,0.0,0.0,0.0,0.0,0.0,0.0,0.0,0.0,0.0,0.0,0.0,-0.1433,-0.2463,-0.3296,-0.3315,-0.3336,-0.3356,-0.3369,-0.338,-0.3385,-0.3405,-0.3412,-0.342,-0.3437,-0.3467,-0.3495,-0.3523,-0.3525,-0.352,-0.3523,-0.3524,-0.3529,-0.3531,-0.3521,-0.3512,-0.3505,-0.3489,-0.3464,-0.3454,-0.345,-0.3456,0.0,0.0,0.0,0.0,0.0,0.0,0.0,0.0,0.0,0.0,0.0,0.0,0.0,0.0,0.0,0.0,0.0,0.0,0.0,0.0,0.0,0.0,0.0,0.0,0.0,0.0,0.0,0.0,0.0,0.0,0.0,0.0,0.0,0.0,0.0,0.0,0.0,0.0,0.0,0.0,0.0,0.0,0.0,0.0,0.0,0.0,0.0,0.0,0.0,0.0,0.0,0.0,0.0,0.0,0.0,0.0,0.0,0.0,0.0,0.0,0.0,0.0,0.0,0.0,0.0,0.0,0.0,0.0,0.0,0.0,0.0,0.0,0.0,0.0,0.0,0.0,0.0,0.0,0.0,0.0,0.0,0.0,0.0,0.0,0.0,0.0,-0.2063,-0.2905,-0.3341,-0.3366,-0.3389,-0.3399,-0.3404,-0.3405,-0.3411,-0.3412,-0.3416,-0.3427,-0.3453,-0.3482,-0.3508,-0.3531,-0.3538,-0.3546,-0.355,-0.3553,-0.3551,-0.3549,-0.3539,-0.3528,-0.351,-0.3493,-0.3484,-0.3479,-0.3489,0.0,0.0,0.0,0.0,0.0,0.0,0.0,0.0,0.0,0.0,0.0,0.0,0.0,0.0,0.0,0.0,0.0,0.0,0.0,0.0,0.0,0.0,0.0,0.0,0.0,0.0,0.0,0.0,0.0,0.0,0.0,0.0,0.0,0.0,0.0,0.0,0.0,0.0,0.0,0.0,0.0,0.0,0.0,0.0,0.0,0.0,0.0,0.0,0.0,0.0,0.0,0.0,0.0,0.0,0.0,0.0,0.0,0.0,0.0,0.0,0.0,0.0,0.0,0.0,0.0,0.0,0.0,0.0,0.0,0.0,0.0,0.0,0.0,0.0,0.0,0.0,0.0,0.0,0.0,0.0,0.0,0.0,0.0,0.0,0.0,0.0,0.0,-0.2502,-0.3359,-0.3378,-0.3397,-0.3405,-0.3407,-0.3411,-0.3414,-0.3418,-0.3422,-0.3433,-0.3453,-0.3482,-0.3508,-0.3536,-0.3559,-0.3574,-0.3577,-0.3572,-0.3574,-0.3572,-0.3561,-0.3551,-0.3538,-0.3524,-0.3513,-0.3509,-0.352,0.0,0.0,0.0,0.0,0.0,0.0,0.0,0.0,0.0,0.0,0.0,0.0,0.0,0.0,0.0,0.0,0.0,0.0,0.0,0.0,0.0,0.0,0.0,0.0,0.0,0.0,0.0,0.0,0.0,0.0,0.0,0.0,0.0,0.0,0.0,0.0,0.0,0.0,0.0,0.0,0.0,0.0,0.0,0.0,0.0,0.0,0.0,0.0,0.0,0.0,0.0,0.0,0.0,0.0,0.0,0.0,0.0,0.0,0.0,0.0,0.0,0.0,0.0,0.0,0.0,0.0,0.0,0.0,0.0,0.0,0.0,0.0,0.0,0.0,0.0,0.0,0.0,0.0,0.0,0.0,0.0,0.0,0.0,0.0,0.0,0.0,-0.1451,-0.2492,-0.3345,-0.3363,-0.338,-0.3395,-0.3403,-0.341,-0.3416,-0.3426,-0.3434,-0.3446,-0.3474,-0.3506,-0.3528,-0.355,-0.3572,-0.3594,-0.3588,-0.3584,-0.3589,-0.3592,-0.3585,-0.3576,-0.3566,-0.3557,-0.3549,-0.3546,-0.3551,0.0,0.0,0.0,0.0,0.0,0.0,0.0,0.0,0.0,0.0,0.0,0.0,0.0,0.0,0.0,0.0,0.0,0.0,0.0,0.0,0.0,0.0,0.0,0.0,0.0,0.0,0.0,0.0,0.0,0.0,0.0,0.0,0.0,0.0,0.0,0.0,0.0,0.0,0.0,0.0,0.0,0.0,0.0,0.0,0.0,0.0,0.0,0.0,0.0,0.0,0.0,0.0,0.0,0.0,0.0,0.0,0.0,0.0,0.0,0.0,0.0,0.0,0.0,0.0,0.0,0.0,0.0,0.0,0.0,0.0,0.0,0.0,0.0,0.0,0.0,0.0,0.0,0.0,0.0,0.0,0.0,0.0,0.0,0.0,0.0,0.0,-0.1451,-0.249,-0.312,-0.3135,-0.3365,-0.3381,-0.3404,-0.3412,-0.3433,-0.344,-0.3452,-0.3464,-0.3489,-0.3523,-0.3538,-0.3557,-0.3588,-0.3602,-0.3596,-0.3591,-0.3591,-0.3595,-0.3603,-0.3599,-0.3584,-0.3584,-0.3587,-0.3585,-0.3577,0.0,0.0,0.0,0.0,0.0,0.0,0.0,0.0,0.0,0.0,0.0,0.0,0.0,0.0,0.0,0.0,0.0,0.0,0.0,0.0,0.0,0.0,0.0,0.0,0.0,0.0,0.0,0.0,0.0,0.0,0.0,0.0,0.0,0.0,0.0,0.0,0.0,0.0,0.0,0.0,0.0,0.0,0.0,0.0,0.0,0.0,0.0,0.0,0.0,0.0,0.0,0.0,0.0,0.0,0.0,0.0,0.0,0.0,0.0,0.0,0.0,0.0,0.0,0.0,0.0,0.0,0.0,0.0,0.0,0.0,0.0,0.0,0.0,0.0,0.0,0.0,0.0,0.0,0.0,0.0,0.0,0.0,0.0,0.0,0.0,0.0,-0.1025,-0.1849,-0.2682,-0.2905,-0.3134,-0.3367,-0.3395,-0.3418,-0.3445,-0.3464,-0.3478,-0.3489,-0.349,-0.352,-0.3538,-0.3561,-0.3591,-0.3603,-0.3595,-0.3592,-0.3594,-0.3595,-0.3602,-0.3602,-0.36,-0.3598,-0.3594,-0.3591,-0.3584,0.0,0.0,0.0,0.0,0.0,0.0,0.0,0.0,0.0,0.0,0.0,0.0,0.0,0.0,0.0,0.0,0.0,0.0,0.0,0.0,0.0,0.0,0.0,0.0,0.0,0.0,0.0,0.0,0.0,0.0,0.0,0.0,0.0,0.0,0.0,0.0,0.0,0.0,0.0,0.0,0.0,0.0,0.0,0.0,0.0,0.0,0.0,0.0,0.0,0.0,0.0,0.0,0.0,0.0,0.0,0.0,0.0,0.0,0.0,0.0,0.0,0.0,0.0,0.0,0.0,0.0,0.0,0.0,0.0,0.0,0.0,0.0,0.0,0.0,0.0,0.0,0.0,0.0,0.0,0.0,0.0,0.0,0.0,0.0,0.0,0.0,-0.0811,-0.1628,-0.2252,-0.2889,-0.3113,-0.3347,-0.339,-0.3416,-0.344,-0.3467,-0.3489,-0.3514,-0.3517,-0.3529,-0.3555,-0.3569,-0.3591,-0.3595,-0.3599,-0.3625,-0.3645,-0.3622,-0.3599,-0.3599,-0.3599,-0.3598,-0.3595,-0.3592,-0.3598,0.0,0.0,0.0,0.0,0.0,0.0,0.0,0.0,0.0,0.0,0.0,0.0,0.0,0.0,0.0,0.0,0.0,0.0,0.0,0.0,0.0,0.0,0.0,0.0,0.0,0.0,0.0,0.0,0.0,0.0,0.0,0.0,0.0,0.0,0.0,0.0,0.0,0.0,0.0,0.0,0.0,0.0,0.0,0.0,0.0,0.0,0.0,0.0,0.0,0.0,0.0,0.0,0.0,0.0,0.0,0.0,0.0,0.0,0.0,0.0,0.0,0.0,0.0,0.0,0.0,0.0,0.0,0.0,0.0,0.0,0.0,0.0,0.0,0.0,0.0,0.0,0.0,0.0,0.0,0.0,0.0,0.0,0.0,0.0,0.0,0.0,-0.1013,-0.1831,-0.2453,-0.3087,-0.3097,-0.333,-0.3381,-0.3411,-0.3643,-0.3678,-0.3516,-0.3543,-0.3551,-0.3565,-0.3585,-0.3595,-0.3594,-0.3619,-0.3633,-0.3666,-0.3682,-0.3643,-0.3614,-0.3604,-0.3602,-0.3607,-0.3607,-0.3604,-0.3615,0.0,0.0,0.0,0.0,0.0,0.0,0.0,0.0,0.0,0.0,0.0,0.0,0.0,0.0,0.0,0.0,0.0,0.0,0.0,0.0,0.0,0.0,0.0,0.0,0.0,0.0,0.0,0.0,0.0,0.0,0.0,0.0,0.0,0.0,0.0,0.0,0.0,0.0,0.0,0.0,0.0,0.0,0.0,0.0,0.0,0.0,0.0,0.0,0.0,0.0,0.0,0.0,0.0,0.0,0.0,0.0,0.0,0.0,0.0,0.0,0.0,0.0,0.0,0.0,0.0,0.0,0.0,0.0,0.0,0.0,0.0,0.0,0.0,0.0,0.0,0.0,0.0,0.0,0.0,0.0,0.0,0.0,0.0,0.0,0.0,-0.1821,-0.1826,-0.2036,-0.2661,-0.3294,-0.3309,-0.3332,-0.3384,-0.343,-0.3449,-0.3497,-0.3549,-0.3566,-0.3581,-0.3589,-0.3598,-0.3594,-0.3598,-0.3629,-0.3647,-0.3652,-0.3651,-0.3641,-0.3633,-0.3629,-0.3626,-0.3626,-0.3622,-0.3615,-0.3634,0.0,0.0,0.0,0.0,0.0,0.0,0.0,0.0,0.0,0.0,0.0,0.0,0.0,0.0,0.0,0.0,0.0,0.0,0.0,0.0,0.0,0.0,0.2217,0.0,0.0,0.0,0.0,0.0,0.0,0.0,0.0,0.0,0.0,0.0,0.0,0.0,0.0,0.0,0.0,0.0,0.0,0.0,0.0,0.0,0.0,0.0,0.0,0.0,0.0,0.0,0.0,0.0,0.0,0.0,0.0,0.0,0.0,0.0,0.0,0.0,0.0,0.0,0.0,0.0,0.0,0.0,0.0,0.0,0.0,0.0,0.0,0.0,0.0,0.0,0.0,0.0,0.0,0.0,0.0,0.0,0.0,0.0,0.0,0.0,0.0,0.0,-0.2239,-0.2453,-0.288,-0.3309,-0.3326,-0.3355,-0.3181,-0.3438,-0.348,-0.3514,-0.3549,-0.3574,-0.3587,-0.3595,-0.3599,-0.3594,-0.36,-0.3628,-0.3637,-0.3628,-0.3636,-0.3652,-0.3656,-0.3658,-0.3648,-0.3634,-0.3633,-0.3629,-0.3656,0.0,0.0,0.0,0.0,0.0,0.0,0.0,0.0,0.0,0.0,0.0,0.0,0.0,0.0,0.0,0.0,0.0,0.0,0.0,0.0,0.0,0.0,0.6668,0.0,0.0,0.0,0.0,0.0,0.0,0.0,0.0,0.0,0.0,0.0,0.0,0.0,0.0,0.0,0.0,0.0,0.0,0.0,0.0,0.0,0.0,0.0,0.0,0.0,0.0,0.0,0.0,0.0,0.0,0.0,0.0,0.0,0.0,0.0,0.0,0.0,0.0,0.0,0.0,0.0,0.0,0.0,0.0,0.0,0.0,0.0,0.0,0.0,0.0,0.0,0.0,0.0,0.0,0.0,0.0,0.0,0.0,0.0,0.0,0.0,0.0,0.0,0.0,-0.2875,-0.3102,-0.3326,-0.3345,-0.337,-0.3405,-0.344,-0.348,-0.3516,-0.3547,-0.3574,-0.3592,-0.3599,-0.36,-0.3596,-0.3609,-0.363,-0.3633,-0.3629,-0.3651,-0.3675,-0.3664,-0.3651,-0.3644,-0.3634,-0.3636,-0.3647,-0.3674,0.0,0.0,0.0,0.0,0.0,0.0,0.0,0.0,0.0,0.0,0.0,0.0,0.0,0.0,0.0,0.0,0.0,0.0,0.0,0.0,0.0,0.0,0.9086,0.9907,0.8072,0.8467,0.8266,0.0,0.0,0.0,0.0,0.0,0.0,0.0,0.0,0.0,0.0,0.0,0.0,0.0,0.0,0.0,0.0,0.0,0.0,0.0,0.0,0.0,0.0,0.0,0.0,0.0,0.0,0.0,0.0,0.0,0.0,0.0,0.0,0.0,0.0,0.0,0.0,0.0,0.0,0.0,0.0,0.0,0.0,0.0,0.0,0.0,0.0,0.0,0.0,0.0,0.0,0.0,0.0,0.0,0.0,0.0,0.0,0.0,0.0,0.0,0.0,0.0,-0.2296,-0.3143,-0.3367,-0.3388,-0.3415,-0.3446,-0.348,-0.3517,-0.3551,-0.358,-0.3595,-0.3602,-0.36,-0.3599,-0.3611,-0.363,-0.3632,-0.3634,-0.3639,-0.3643,-0.3645,-0.3639,-0.3636,-0.3647,-0.3658,-0.3671,-0.3694,0.0,0.0,0.0,0.0,0.0,0.0,0.0,0.0,0.0,0.0,0.0,0.0,0.0,0.0,0.0,0.0,0.0,0.0,0.0,0.3628,0.0,0.845,1.1517,1.296,1.1718,1.2933,1.232,0.0,0.0,0.0,0.0,0.0,0.0,0.0,0.0,0.0,0.0,0.0,0.0,0.0,0.0,0.0,0.0,0.0,0.0,0.0,0.0,0.0,0.0,0.0,0.0,0.0,0.0,0.0,0.0,0.0,0.0,0.0,0.0,0.0,0.0,0.0,0.0,0.0,0.0,0.0,0.0,0.0,0.0,0.0,0.0,0.0,0.0,0.0,0.0,0.0,0.0,0.0,0.0,0.0,0.0,0.0,0.0,0.0,0.0,0.0,0.0,0.0,-0.1897,-0.2754,-0.3403,-0.3423,-0.3448,-0.3482,-0.3504,-0.3519,-0.3553,-0.3584,-0.3595,-0.36,-0.3607,-0.3606,-0.3618,-0.3628,-0.363,-0.3626,-0.3607,-0.3604,-0.3619,-0.363,-0.3636,-0.3652,-0.3677,-0.3696,-0.3712,0.0,0.0202,0.0,0.0,0.0,0.0,0.0,0.0,0.0,0.0,0.0,0.0,0.0,0.0,0.0,0.0,0.0,0.0,0.0,0.989,1.048,1.2521,1.2516,1.2922,1.2917,1.2906,1.27,1.2305,1.2305,1.0744,1.0959,1.0362,0.5166,0.0,0.0,0.0,0.0,0.0,0.0,0.0,0.0,0.0,0.0,0.0,0.0,0.0,0.0,0.0,0.0,0.0,0.0,0.0,0.0,0.0,0.0,0.0,0.0,0.0,0.0,0.0,0.0,0.0,0.0,0.0,0.0,0.0,0.0,0.0,0.0,0.0,0.0,0.0,0.0,0.0,0.0,0.0,0.0,0.0,0.0,0.0,0.0,0.0,0.0,0.0,0.0,0.0,0.0,0.0,-0.1702,-0.3011,-0.3456,-0.3472,-0.3497,-0.3524,-0.3538,-0.3535,-0.3553,-0.3584,-0.3589,-0.3596,-0.3603,-0.3615,-0.3625,-0.3632,-0.363,-0.3624,-0.3613,-0.3606,-0.3606,-0.3618,-0.3637,-0.3674,-0.3704,-0.3709,-0.3726,0.4632,0.4634,0.4632,0.2821,0.1007,0.6217,0.8847,0.9097,0.8843,0.6014,0.0201,0.32,0.3208,0.0,0.0,0.0,0.0,0.0,0.0,1.2331,1.2939,1.2928,1.2922,1.2912,1.2906,1.2895,1.2895,1.2901,1.2738,1.284,1.284,1.1772,0.935,0.5604,0.0,0.0,0.0,0.0,0.0,0.0,0.0,0.0,0.0,0.0,0.0,0.0,0.0,0.0,0.0,0.0,0.0,0.0,0.0,0.0,0.0,0.0,0.0,0.0,0.0,0.0,0.0,0.0,0.0,0.0,0.0,0.0,0.0,0.0,0.0,0.0,0.0,0.0,0.0,0.0,0.0,0.0,0.0,0.0,0.0,0.0,0.0,0.0,0.0,0.0,0.0,0.0,0.0,0.0,-0.1498,-0.281,-0.3493,-0.3508,-0.3519,-0.3536,-0.3544,-0.3544,-0.3564,-0.3581,-0.3587,-0.3598,-0.3617,-0.3628,-0.3633,-0.3633,-0.3628,-0.3628,-0.3626,-0.3618,-0.3602,-0.3629,-0.3652,-0.3693,-0.3726,-0.3731,-0.3742,0.907,0.8869,0.8869,0.5637,0.201,0.9001,1.2652,1.2722,1.2636,0.9205,0.5427,0.7818,0.7614,0.5831,0.0,0.0,0.0,0.9468,1.2521,1.2511,1.2922,1.2912,1.2906,1.2906,1.2895,1.289,1.289,1.2895,1.2944,1.284,1.2872,1.2966,1.2974,0.8746,0.0,0.0,0.0,0.0,0.0,0.0,0.0,0.0,0.0,0.0,0.0,0.0,0.0,0.0,0.0,0.0,0.0,0.0,0.0,0.0,0.0,0.0,0.0,0.0,0.0,0.0,0.0,0.0,0.0,0.0,0.0,0.0,0.0,0.0,0.0,0.0,0.0,0.0,0.0,0.0,0.0,0.0,0.0,0.0,0.0,0.0,0.0,0.0,0.0,0.0,0.0,0.0,0.0,0.0,-0.1286,-0.2374,-0.3274,-0.3523,-0.3528,-0.3536,-0.3546,-0.3558,-0.3572,-0.3584,-0.3587,-0.3602,-0.3625,-0.3636,-0.3636,-0.3629,-0.3622,-0.3621,-0.3618,-0.3607,-0.3599,-0.3626,-0.3651,-0.3681,-0.3715,-0.3745,-0.3761,1.2732,1.2732,1.2939,0.8457,0.2809,0.979,1.283,1.2489,1.2808,1.2426,1.1899,1.2511,1.2094,1.0886,1.0891,1.1091,1.0881,1.25,1.2906,1.289,1.2895,1.2895,1.2895,1.289,1.289,1.289,1.289,1.289,1.2922,1.2807,1.3047,1.3128,1.307,1.0402,0.7199,0.1867,0.0,0.0,0.0,0.0,0.0,0.0,0.0,0.0,0.0,0.0,0.0,0.0,0.0,0.0,0.0,0.0,0.0,0.0,0.0,0.0,0.0,0.0,0.0,0.0,0.0,0.0,0.0,0.0,0.0,0.0,0.0,0.0,0.0,0.0,0.0,0.0,0.0,0.0,0.0,0.0,0.0,0.0,0.0,0.0,0.0,0.0,0.0,0.0,0.0,0.0,0.0,0.0,0.0,0.0,-0.2832,-0.3306,-0.3536,-0.3543,-0.3566,-0.3579,-0.3583,-0.3589,-0.3589,-0.3604,-0.3628,-0.3634,-0.3636,-0.3628,-0.3621,-0.3609,-0.3602,-0.3595,-0.3596,-0.3614,-0.3639,-0.3663,-0.3696,-0.3729,-0.3752,1.2901,1.2901,1.2917,1.1488,0.984,1.1987,1.2808,1.2879,1.277,1.2792,1.2668,1.262,1.2825,1.2901,1.2906,1.2901,1.2901,1.2895,1.289,1.289,1.289,1.289,1.289,1.289,1.289,1.289,1.289,1.289,1.2912,1.2982,1.2818,1.295,1.238,1.0334,0.9628,0.0,0.0,0.0,0.0,0.0,0.0,0.0,0.0,0.0,0.0,0.0,0.0,0.0,0.0,0.0,0.0,0.0,0.0,0.0,0.0,0.0,0.0,0.0,0.0,0.0,0.0,0.0,0.0,0.0,0.0,0.0,0.0,0.0,0.0,0.0,0.0,0.0,0.0,0.0,0.0,0.0,0.0,0.0,0.0,0.0,0.0,0.0,0.0,0.0,0.0,0.0,0.0,0.0,0.0,0.0,0.0,-0.2635,-0.3536,-0.3551,-0.3573,-0.3583,-0.358,-0.3585,-0.3587,-0.3606,-0.3629,-0.3633,-0.3634,-0.3626,-0.3618,-0.3604,-0.3595,-0.3592,-0.3598,-0.3609,-0.3618,-0.364,-0.3654,-0.3681,-0.3708,1.289,1.2879,1.2985,1.277,1.2781,1.2897,1.2913,1.2792,1.2792,1.2825,1.2879,1.2825,1.2825,1.2884,1.289,1.289,1.289,1.289,1.289,1.289,1.289,1.289,1.289,1.289,1.289,1.289,1.289,1.2895,1.2906,1.2928,1.295,1.2326,1.063,0.8413,0.8771,0.0,0.0,0.0,0.0,0.0,0.0,0.0,0.0,0.0,0.0,0.0,0.0,0.0,0.0,0.0,0.0,0.0,0.0,0.0,0.0,0.0,0.0,0.0,0.0,0.0,0.0,0.0,0.0,0.0,0.0,0.0,0.0,0.0,0.0,0.0,0.0,0.0,0.0,0.0,0.0,0.0,0.0,0.0,0.0,0.0,0.0,0.0,0.0,0.0,0.0,0.0,0.0,0.0,0.0,0.0,0.0,-0.2181,-0.3069,-0.3524,-0.3535,-0.3551,-0.3566,-0.3573,-0.3583,-0.3596,-0.3611,-0.3626,-0.3632,-0.3618,-0.3606,-0.3598,-0.3589,-0.3589,-0.3589,-0.3596,-0.3604,-0.3614,-0.3628,-0.364,-0.3658,1.2852,1.2814,1.2825,1.2792,1.2869,1.2803,1.2819,1.2919,1.283,1.2884,1.2884,1.2884,1.289,1.289,1.289,1.289,1.289,1.289,1.289,1.289,1.289,1.289,1.289,1.289,1.289,1.289,1.289,1.289,1.289,1.2912,1.2511,1.1087,0.7471,0.3242,0.3843,0.0,0.0,0.0,0.0,0.0,0.0,0.0,0.0,0.0,0.0,0.0,0.0,0.0,0.0,0.0,0.0,0.0,0.0,0.0,0.0,0.0,0.0,0.0,0.0,0.0,0.0,0.0,0.0,0.0,0.0,0.0,0.0,0.0,0.0,0.0,0.0,0.0,0.0,0.0,0.0,0.0,0.0,0.0,0.0,0.0,0.0,0.0,0.0,0.0,0.0,0.0,0.0,0.0,0.0,0.0,0.0,-0.1942,-0.2815,-0.3262,-0.3502,-0.3527,-0.355,-0.3564,-0.3573,-0.3583,-0.3594,-0.3609,-0.3613,-0.36,-0.3591,-0.3589,-0.3589,-0.3589,-0.3589,-0.3594,-0.3595,-0.3604,-0.3615,-0.3625,-0.3614,1.2886,1.2602,1.2753,1.2753,1.258,1.264,1.2683,1.2924,1.2835,1.289,1.289,1.289,1.289,1.289,1.289,1.289,1.289,1.289,1.289,1.289,1.289,1.289,1.289,1.289,1.289,1.289,1.289,1.289,1.289,1.289,1.2895,1.2305,1.2305,0.7261,0.1211,0.0,0.0,0.0,0.0,0.0,0.0,0.0,0.0,0.0,0.0,0.0,0.0,0.0,0.0,0.0,0.0,0.0,0.0,0.0,0.0,0.0,0.0,0.0,0.0,0.0,0.0,0.0,0.0,0.0,0.0,0.0,0.0,0.0,0.0,0.0,0.0,0.0,0.0,0.0,0.0,0.0,0.0,0.0,0.0,0.0,0.0,0.0,0.0,0.0,0.0,0.0,0.0,0.0,0.0,0.0,0.0,-0.1497,-0.2573,-0.3028,-0.3493,-0.3514,-0.3536,-0.3551,-0.3568,-0.3581,-0.3591,-0.3591,-0.3591,-0.3589,-0.3589,-0.3589,-0.3589,-0.3589,-0.3599,-0.3603,-0.3595,-0.3598,-0.3609,-0.3611,-0.3603]}]]